<?xml version='1.0' encoding='UTF-8'?><gpx version="1.1" creator="JPX - https://github.com/jenetics/jpx" xmlns="http://www.topografix.com/GPX/1/1"><trk><trkseg><trkpt lat="1.2134040246458409" lon="-76.6461525755104"><ele>812.0000000000001</ele><time>2026-04-26T14:17:31Z</time></trkpt><trkpt lat="1.2134744156259019" lon="-76.64619711003637"><ele>812.0</ele><time>2026-04-26T14:17:33Z</time></trkpt><trkpt lat="1.2135383906053807" lon="-76.64622848330309"><ele>812.0</ele><time>2026-04-26T14:17:35Z</time></trkpt><trkpt lat="1.2135615324685118" lon="-76.64632584419762"><ele>812.0</ele><time>2026-04-26T14:17:38Z</time></trkpt><trkpt lat="1.2135766963192742" lon="-76.64638975143673"><ele>812.0000000000001</ele><time>2026-04-26T14:17:40Z</time></trkpt><trkpt lat="1.2136613806943073" lon="-76.64647594788238"><ele>812.0</ele><time>2026-04-26T14:17:42Z</time></trkpt><trkpt lat="1.2137199636077027" lon="-76.64655321415165"><ele>812.0000000000001</ele><time>2026-04-26T14:17:44Z</time></trkpt><trkpt lat="1.2137389710713884" lon="-76.64662926288939"><ele>812.0</ele><time>2026-04-26T14:17:46Z</time></trkpt><trkpt lat="1.2137157909526974" lon="-76.64669748838942"><ele>812.0</ele><time>2026-04-26T14:17:49Z</time></trkpt><trkpt lat="1.2136280505012214" lon="-76.64671365710893"><ele>812.0</ele><time>2026-04-26T14:17:51Z</time></trkpt><trkpt lat="1.2135597226173014" lon="-76.64674324176727"><ele>812.0000000000001</ele><time>2026-04-26T14:17:53Z</time></trkpt><trkpt lat="1.2135476134987664" lon="-76.64682402229037"><ele>812.0</ele><time>2026-04-26T14:17:56Z</time></trkpt><trkpt lat="1.2136108900452887" lon="-76.64687496649772"><ele>812.0000000000001</ele><time>2026-04-26T14:17:57Z</time></trkpt><trkpt lat="1.213654525798819" lon="-76.64692866045033"><ele>812.0</ele><time>2026-04-26T14:17:58Z</time></trkpt><trkpt lat="1.2136685046455211" lon="-76.64700242117644"><ele>812.0</ele><time>2026-04-26T14:17:58.999Z</time></trkpt><trkpt lat="1.213670383289018" lon="-76.64711583287249"><ele>812.0</ele><time>2026-04-26T14:18:00.999Z</time></trkpt><trkpt lat="1.2136891124259228" lon="-76.64717814857796"><ele>812.0000000000001</ele><time>2026-04-26T14:18:01.999Z</time></trkpt><trkpt lat="1.213774749013765" lon="-76.64726606094136"><ele>812.0</ele><time>2026-04-26T14:18:03.999Z</time></trkpt><trkpt lat="1.2138516851701715" lon="-76.64733027849628"><ele>810.8</ele><time>2026-04-26T14:18:04.999Z</time></trkpt><trkpt lat="1.2139463271234867" lon="-76.64742276368573"><ele>809.6</ele><time>2026-04-26T14:18:05.999Z</time></trkpt><trkpt lat="1.2140192396064258" lon="-76.64750443735892"><ele>808.4</ele><time>2026-04-26T14:18:07.999Z</time></trkpt><trkpt lat="1.2140017820094406" lon="-76.64759023988525"><ele>807.1999999999999</ele><time>2026-04-26T14:18:10.999Z</time></trkpt><trkpt lat="1.2139786774394437" lon="-76.64767241289503"><ele>806.0</ele><time>2026-04-26T14:18:14.999Z</time></trkpt><trkpt lat="1.2140003606337528" lon="-76.64775790601924"><ele>805.8333333333334</ele><time>2026-04-26T14:18:19.999Z</time></trkpt><trkpt lat="1.2139379949636886" lon="-76.64782047378183"><ele>805.6666666666667</ele><time>2026-04-26T14:18:23.999Z</time></trkpt><trkpt lat="1.2138631540405487" lon="-76.64789320100958"><ele>805.5</ele><time>2026-04-26T14:18:26.999Z</time></trkpt><trkpt lat="1.2138369583779036" lon="-76.64795423348787"><ele>805.3333333333333</ele><time>2026-04-26T14:18:29.999Z</time></trkpt><trkpt lat="1.2138370816795976" lon="-76.64804271295849"><ele>805.1666666666666</ele><time>2026-04-26T14:18:33.999Z</time></trkpt><trkpt lat="1.2138045166970541" lon="-76.64810198849062"><ele>805.0</ele><time>2026-04-26T14:18:36.999Z</time></trkpt><trkpt lat="1.2138096541481416" lon="-76.6481829750062"><ele>804.9999999999999</ele><time>2026-04-26T14:18:39.999Z</time></trkpt><trkpt lat="1.2138137367104733" lon="-76.64827830863962"><ele>805.0</ele><time>2026-04-26T14:18:42.999Z</time></trkpt><trkpt lat="1.2138445517128618" lon="-76.6483646838364"><ele>805.0</ele><time>2026-04-26T14:18:44.999Z</time></trkpt><trkpt lat="1.213883614087699" lon="-76.64841736830793"><ele>805.0</ele><time>2026-04-26T14:18:45.999Z</time></trkpt><trkpt lat="1.2139182884553665" lon="-76.64848808719428"><ele>804.9999999999999</ele><time>2026-04-26T14:18:47.999Z</time></trkpt><trkpt lat="1.2139577009679292" lon="-76.6485946506573"><ele>805.0</ele><time>2026-04-26T14:18:50.999Z</time></trkpt><trkpt lat="1.213976158418824" lon="-76.64868421594754"><ele>804.9999999999999</ele><time>2026-04-26T14:18:52.999Z</time></trkpt><trkpt lat="1.2139637305238566" lon="-76.64878038358572"><ele>805.0</ele><time>2026-04-26T14:18:55.999Z</time></trkpt><trkpt lat="1.2139057887491052" lon="-76.64885390643961"><ele>805.0</ele><time>2026-04-26T14:18:57.999Z</time></trkpt><trkpt lat="1.2139093649338992" lon="-76.64892060337753"><ele>805.0</ele><time>2026-04-26T14:19:00.999Z</time></trkpt><trkpt lat="1.2139519381150208" lon="-76.64896740804174"><ele>804.9999999999999</ele><time>2026-04-26T14:19:03.999Z</time></trkpt><trkpt lat="1.2138966691302757" lon="-76.64904191335107"><ele>805.0</ele><time>2026-04-26T14:19:08Z</time></trkpt><trkpt lat="1.2138334360924956" lon="-76.64908295446192"><ele>804.9999999999999</ele><time>2026-04-26T14:19:11Z</time></trkpt><trkpt lat="1.2137643156812665" lon="-76.64909243784984"><ele>805.0</ele><time>2026-04-26T14:19:13Z</time></trkpt><trkpt lat="1.2137277917060088" lon="-76.64916703560274"><ele>805.0</ele><time>2026-04-26T14:19:15Z</time></trkpt><trkpt lat="1.213670492884331" lon="-76.64924174268094"><ele>805.0</ele><time>2026-04-26T14:19:17Z</time></trkpt><trkpt lat="1.2136716357482695" lon="-76.64932294754034"><ele>804.9999999999999</ele><time>2026-04-26T14:19:33Z</time></trkpt><trkpt lat="1.213637818840305" lon="-76.64942981140717"><ele>805.0</ele><time>2026-04-26T14:19:36Z</time></trkpt><trkpt lat="1.2135945853088885" lon="-76.64949903249719"><ele>807.9999999999999</ele><time>2026-04-26T14:19:38Z</time></trkpt><trkpt lat="1.213548518568463" lon="-76.64956028261861"><ele>811.0</ele><time>2026-04-26T14:19:40Z</time></trkpt><trkpt lat="1.2135312341421125" lon="-76.64963273459212"><ele>814.0</ele><time>2026-04-26T14:19:44Z</time></trkpt><trkpt lat="1.2134610051034798" lon="-76.64959354641985"><ele>817.0</ele><time>2026-04-26T14:19:47Z</time></trkpt><trkpt lat="1.2133760722836429" lon="-76.64961382557662"><ele>819.9999999999999</ele><time>2026-04-26T14:19:49Z</time></trkpt><trkpt lat="1.213292335948709" lon="-76.64962198242203"><ele>823.0</ele><time>2026-04-26T14:19:51Z</time></trkpt><trkpt lat="1.213233458056257" lon="-76.64965741721151"><ele>822.9999999999999</ele><time>2026-04-26T14:19:54Z</time></trkpt><trkpt lat="1.2131794526269637" lon="-76.64971594307539"><ele>823.0</ele><time>2026-04-26T14:19:57Z</time></trkpt><trkpt lat="1.2131749472304103" lon="-76.64977890260656"><ele>823.0</ele><time>2026-04-26T14:20:00Z</time></trkpt><trkpt lat="1.2131402630706347" lon="-76.64985731640158"><ele>823.0</ele><time>2026-04-26T14:20:03.999Z</time></trkpt><trkpt lat="1.2130953950771202" lon="-76.649929178102"><ele>822.9999999999999</ele><time>2026-04-26T14:20:06.999Z</time></trkpt><trkpt lat="1.213008459241596" lon="-76.64996120363044"><ele>823.0</ele><time>2026-04-26T14:20:09.999Z</time></trkpt><trkpt lat="1.2129206008370186" lon="-76.64999325955876"><ele>817.5999999999999</ele><time>2026-04-26T14:20:13.999Z</time></trkpt><trkpt lat="1.2128138590457544" lon="-76.64996150100127"><ele>812.1999999999999</ele><time>2026-04-26T14:20:17.999Z</time></trkpt><trkpt lat="1.2127576327995588" lon="-76.65001012034831"><ele>806.8</ele><time>2026-04-26T14:20:23.999Z</time></trkpt><trkpt lat="1.2127100412677694" lon="-76.6499406580677"><ele>801.4</ele><time>2026-04-26T14:20:49.999Z</time></trkpt><trkpt lat="1.212651827028302" lon="-76.649992597734"><ele>796.0</ele><time>2026-04-26T14:21:03.999Z</time></trkpt><trkpt lat="1.2125877466964228" lon="-76.65007569215548"><ele>796.0</ele><time>2026-04-26T14:21:06.999Z</time></trkpt><trkpt lat="1.212537799610221" lon="-76.65019284285125"><ele>796.0</ele><time>2026-04-26T14:21:09.999Z</time></trkpt><trkpt lat="1.212478381254707" lon="-76.65027941332154"><ele>796.0</ele><time>2026-04-26T14:21:12Z</time></trkpt><trkpt lat="1.2124271006569345" lon="-76.65036794257088"><ele>796.0</ele><time>2026-04-26T14:21:14Z</time></trkpt><trkpt lat="1.212385979018187" lon="-76.65044371738067"><ele>796.0</ele><time>2026-04-26T14:21:16Z</time></trkpt><trkpt lat="1.2123514139793303" lon="-76.65051482070226"><ele>793.9999999999999</ele><time>2026-04-26T14:21:18Z</time></trkpt><trkpt lat="1.212317381319779" lon="-76.65058129825746"><ele>792.0</ele><time>2026-04-26T14:21:20Z</time></trkpt><trkpt lat="1.2122706003873553" lon="-76.65063939773303"><ele>790.0</ele><time>2026-04-26T14:21:22Z</time></trkpt><trkpt lat="1.2122297217318339" lon="-76.65070221206801"><ele>788.0</ele><time>2026-04-26T14:21:24Z</time></trkpt><trkpt lat="1.2121483465994056" lon="-76.65072165097578"><ele>785.9999999999999</ele><time>2026-04-26T14:21:26Z</time></trkpt><trkpt lat="1.2120447189867" lon="-76.65073726599532"><ele>784.0</ele><time>2026-04-26T14:21:28Z</time></trkpt><trkpt lat="1.2119765057217433" lon="-76.65077146587659"><ele>783.9999999999999</ele><time>2026-04-26T14:21:30Z</time></trkpt><trkpt lat="1.2119004418035162" lon="-76.6508283509056"><ele>784.0</ele><time>2026-04-26T14:21:32Z</time></trkpt><trkpt lat="1.2118664500591543" lon="-76.65088569238628"><ele>784.0</ele><time>2026-04-26T14:21:34Z</time></trkpt><trkpt lat="1.2118300878753447" lon="-76.6509381310717"><ele>784.0</ele><time>2026-04-26T14:21:36Z</time></trkpt><trkpt lat="1.2118406675330387" lon="-76.65102112713983"><ele>783.9999999999999</ele><time>2026-04-26T14:21:39Z</time></trkpt><trkpt lat="1.2119398102192733" lon="-76.65105880105928"><ele>784.0</ele><time>2026-04-26T14:21:42Z</time></trkpt><trkpt lat="1.212010070727097" lon="-76.65107402563585"><ele>783.9999999999999</ele><time>2026-04-26T14:21:46Z</time></trkpt><trkpt lat="1.212083980381835" lon="-76.65107744682582"><ele>784.0</ele><time>2026-04-26T14:21:48Z</time></trkpt><trkpt lat="1.2121222812529957" lon="-76.65112806090742"><ele>784.0</ele><time>2026-04-26T14:21:51Z</time></trkpt><trkpt lat="1.212209727563359" lon="-76.651165876048"><ele>784.0</ele><time>2026-04-26T14:21:54Z</time></trkpt><trkpt lat="1.2122837080861342" lon="-76.65115224968619"><ele>783.9999999999999</ele><time>2026-04-26T14:21:56Z</time></trkpt><trkpt lat="1.212348197142403" lon="-76.65119822538486"><ele>784.0</ele><time>2026-04-26T14:21:58Z</time></trkpt><trkpt lat="1.2123920229727854" lon="-76.65125130280357"><ele>784.5714285714286</ele><time>2026-04-26T14:22:01Z</time></trkpt><trkpt lat="1.2124049632889575" lon="-76.65133123040405"><ele>785.1428571428571</ele><time>2026-04-26T14:22:08Z</time></trkpt><trkpt lat="1.2123374878722277" lon="-76.65131830610942"><ele>785.7142857142858</ele><time>2026-04-26T14:22:14Z</time></trkpt><trkpt lat="1.212344545514374" lon="-76.6513987263465"><ele>786.2857142857142</ele><time>2026-04-26T14:25:51Z</time></trkpt><trkpt lat="1.212335829127463" lon="-76.65133218673513"><ele>786.8571428571429</ele><time>2026-04-26T14:28:16Z</time></trkpt><trkpt lat="1.2122825041670506" lon="-76.65137001280534"><ele>787.4285714285714</ele><time>2026-04-26T14:30:52Z</time></trkpt><trkpt lat="1.2122552488732676" lon="-76.65144732214856"><ele>788.0</ele><time>2026-04-26T14:30:56Z</time></trkpt><trkpt lat="1.2122630333091111" lon="-76.65152064357378"><ele>788.0000000000001</ele><time>2026-04-26T14:30:58Z</time></trkpt><trkpt lat="1.2123339959882415" lon="-76.65150670753646"><ele>788.0</ele><time>2026-04-26T14:31:00Z</time></trkpt><trkpt lat="1.2123630056640295" lon="-76.65156295866757"><ele>788.0</ele><time>2026-04-26T14:31:06Z</time></trkpt><trkpt lat="1.2123152768074912" lon="-76.65162920885346"><ele>788.0</ele><time>2026-04-26T14:31:10Z</time></trkpt><trkpt lat="1.2123035591404447" lon="-76.65170718266964"><ele>788.0000000000001</ele><time>2026-04-26T14:31:13Z</time></trkpt><trkpt lat="1.212320055397479" lon="-76.65178414632169"><ele>788.0</ele><time>2026-04-26T14:31:16Z</time></trkpt><trkpt lat="1.2122913761773806" lon="-76.65187074533962"><ele>784.6666666666667</ele><time>2026-04-26T14:31:20Z</time></trkpt><trkpt lat="1.212206285169669" lon="-76.65190890659278"><ele>781.3333333333334</ele><time>2026-04-26T14:31:22.999Z</time></trkpt><trkpt lat="1.2121638203310459" lon="-76.65195767830913"><ele>778.0</ele><time>2026-04-26T14:31:25.999Z</time></trkpt><trkpt lat="1.2121129055715534" lon="-76.6520009250204"><ele>774.6666666666667</ele><time>2026-04-26T14:31:27.999Z</time></trkpt><trkpt lat="1.2120779259611218" lon="-76.6520732181202"><ele>771.3333333333334</ele><time>2026-04-26T14:31:29.999Z</time></trkpt><trkpt lat="1.2120435928007511" lon="-76.65214883889588"><ele>768.0</ele><time>2026-04-26T14:31:31.999Z</time></trkpt><trkpt lat="1.2120093506966223" lon="-76.65223723185005"><ele>766.5</ele><time>2026-04-26T14:31:33.999Z</time></trkpt><trkpt lat="1.2119422604654513" lon="-76.65231662335329"><ele>765.0</ele><time>2026-04-26T14:31:35.999Z</time></trkpt><trkpt lat="1.2118815076468215" lon="-76.65239991193235"><ele>763.5</ele><time>2026-04-26T14:31:37.999Z</time></trkpt><trkpt lat="1.2118661779190885" lon="-76.65247262350007"><ele>762.0</ele><time>2026-04-26T14:31:39.999Z</time></trkpt><trkpt lat="1.2118538646202481" lon="-76.65255304173544"><ele>760.5</ele><time>2026-04-26T14:31:42Z</time></trkpt><trkpt lat="1.2118499987570615" lon="-76.6526220040008"><ele>759.0</ele><time>2026-04-26T14:31:45Z</time></trkpt><trkpt lat="1.211936570432505" lon="-76.65267450513191"><ele>759.0</ele><time>2026-04-26T14:31:48Z</time></trkpt><trkpt lat="1.2120287326240102" lon="-76.65270222359729"><ele>759.0</ele><time>2026-04-26T14:31:50Z</time></trkpt><trkpt lat="1.2121163466278935" lon="-76.65274068369918"><ele>759.0</ele><time>2026-04-26T14:31:52Z</time></trkpt><trkpt lat="1.2121633454050773" lon="-76.65279112652347"><ele>759.0</ele><time>2026-04-26T14:31:54Z</time></trkpt><trkpt lat="1.212235429219548" lon="-76.6528116896324"><ele>759.0</ele><time>2026-04-26T14:31:57Z</time></trkpt><trkpt lat="1.2122644306839965" lon="-76.65287900790415"><ele>759.0</ele><time>2026-04-26T14:32:00Z</time></trkpt><trkpt lat="1.2122515321300085" lon="-76.65296636575451"><ele>760.1666666666666</ele><time>2026-04-26T14:32:04Z</time></trkpt><trkpt lat="1.2122534844823156" lon="-76.65304663654332"><ele>761.3333333333334</ele><time>2026-04-26T14:32:41Z</time></trkpt><trkpt lat="1.2123116095125455" lon="-76.653112316183"><ele>762.5</ele><time>2026-04-26T14:32:44Z</time></trkpt><trkpt lat="1.212340582831597" lon="-76.65319576544724"><ele>763.6666666666667</ele><time>2026-04-26T14:32:47Z</time></trkpt><trkpt lat="1.2123663726310703" lon="-76.65326386802006"><ele>764.8333333333334</ele><time>2026-04-26T14:32:49Z</time></trkpt><trkpt lat="1.21239090356312" lon="-76.65332636879938"><ele>766.0</ele><time>2026-04-26T14:32:51Z</time></trkpt><trkpt lat="1.2124163171568731" lon="-76.65339740338744"><ele>766.0</ele><time>2026-04-26T14:32:53Z</time></trkpt><trkpt lat="1.2124550966677818" lon="-76.65347450351534"><ele>766.0</ele><time>2026-04-26T14:32:57Z</time></trkpt><trkpt lat="1.2124666591395181" lon="-76.6535448846807"><ele>766.0</ele><time>2026-04-26T14:33:01Z</time></trkpt><trkpt lat="1.2124775163163868" lon="-76.65362094298327"><ele>766.0</ele><time>2026-04-26T14:33:15Z</time></trkpt><trkpt lat="1.2124535539413306" lon="-76.6536839451436"><ele>766.0</ele><time>2026-04-26T14:33:26.999Z</time></trkpt><trkpt lat="1.2124083813532758" lon="-76.65373455064791"><ele>766.0</ele><time>2026-04-26T14:33:28.999Z</time></trkpt><trkpt lat="1.2123402940543657" lon="-76.65376723747808"><ele>766.0</ele><time>2026-04-26T14:33:31.999Z</time></trkpt><trkpt lat="1.2122835171584554" lon="-76.65381841524199"><ele>764.3333333333334</ele><time>2026-04-26T14:33:34.999Z</time></trkpt><trkpt lat="1.2122079188837338" lon="-76.65386711063233"><ele>762.6666666666667</ele><time>2026-04-26T14:33:37.999Z</time></trkpt><trkpt lat="1.212188862935655" lon="-76.6539372035104"><ele>761.0</ele><time>2026-04-26T14:33:40.999Z</time></trkpt><trkpt lat="1.2122554320800651" lon="-76.65398200962616"><ele>759.3333333333334</ele><time>2026-04-26T14:33:43.999Z</time></trkpt><trkpt lat="1.2123190374990933" lon="-76.65402809374035"><ele>757.6666666666666</ele><time>2026-04-26T14:33:48Z</time></trkpt><trkpt lat="1.212387172107629" lon="-76.65406297280646"><ele>756.0</ele><time>2026-04-26T14:33:51Z</time></trkpt><trkpt lat="1.2124359137369518" lon="-76.6541067403487"><ele>756.0</ele><time>2026-04-26T14:33:54Z</time></trkpt><trkpt lat="1.2124465882604394" lon="-76.65417881172084"><ele>756.0</ele><time>2026-04-26T14:34:00Z</time></trkpt><trkpt lat="1.2124689496093886" lon="-76.65424502203675"><ele>756.0</ele><time>2026-04-26T14:34:48Z</time></trkpt><trkpt lat="1.2124630811086006" lon="-76.65417469511699"><ele>756.0</ele><time>2026-04-26T14:34:59Z</time></trkpt><trkpt lat="1.2124291137086687" lon="-76.65410751246029"><ele>756.0</ele><time>2026-04-26T14:35:08Z</time></trkpt><trkpt lat="1.2123770005107088" lon="-76.65405191590915"><ele>756.0</ele><time>2026-04-26T14:35:17Z</time></trkpt><trkpt lat="1.2123180579894786" lon="-76.6540134596361"><ele>756.0</ele><time>2026-04-26T14:35:24Z</time></trkpt><trkpt lat="1.2122579438269918" lon="-76.65398306351074"><ele>756.0</ele><time>2026-04-26T14:35:30Z</time></trkpt><trkpt lat="1.212204462987224" lon="-76.65393745842918"><ele>756.0</ele><time>2026-04-26T14:35:38Z</time></trkpt><trkpt lat="1.2122238087693884" lon="-76.6538737771932"><ele>756.0</ele><time>2026-04-26T14:35:49Z</time></trkpt><trkpt lat="1.2123004889980398" lon="-76.65381923116652"><ele>756.0</ele><time>2026-04-26T14:36:06Z</time></trkpt><trkpt lat="1.2123553777792966" lon="-76.6537709774612"><ele>756.0</ele><time>2026-04-26T14:36:12Z</time></trkpt><trkpt lat="1.2124095740029066" lon="-76.653726686338"><ele>756.0</ele><time>2026-04-26T14:36:21Z</time></trkpt><trkpt lat="1.2124918507021027" lon="-76.65365629753168"><ele>756.0</ele><time>2026-04-26T14:36:40Z</time></trkpt><trkpt lat="1.2124874363201392" lon="-76.6535830053205"><ele>756.0</ele><time>2026-04-26T14:38:00Z</time></trkpt><trkpt lat="1.2124454773881033" lon="-76.65352536884306"><ele>756.0</ele><time>2026-04-26T14:38:10Z</time></trkpt><trkpt lat="1.2124745101615801" lon="-76.65358485362357"><ele>756.0</ele><time>2026-04-26T15:05:43Z</time></trkpt><trkpt lat="1.2125021933908597" lon="-76.65364193359514"><ele>756.0</ele><time>2026-04-26T15:06:06Z</time></trkpt><trkpt lat="1.2124481763655588" lon="-76.65368186822258"><ele>756.0</ele><time>2026-04-26T15:06:29Z</time></trkpt><trkpt lat="1.2124067254447586" lon="-76.65374015204996"><ele>756.0</ele><time>2026-04-26T15:06:36Z</time></trkpt><trkpt lat="1.2123531918673673" lon="-76.65377776862034"><ele>756.0</ele><time>2026-04-26T15:06:40.999Z</time></trkpt><trkpt lat="1.2122936581827304" lon="-76.65380545437158"><ele>756.0</ele><time>2026-04-26T15:06:45.999Z</time></trkpt><trkpt lat="1.212239705908531" lon="-76.65384827373488"><ele>756.0</ele><time>2026-04-26T15:06:53.999Z</time></trkpt><trkpt lat="1.212183071794033" lon="-76.65387932823852"><ele>756.0</ele><time>2026-04-26T15:06:58.999Z</time></trkpt><trkpt lat="1.2121784569710774" lon="-76.65394416793099"><ele>756.0</ele><time>2026-04-26T15:07:04.999Z</time></trkpt><trkpt lat="1.2122406569886133" lon="-76.65398576690815"><ele>756.0</ele><time>2026-04-26T15:07:13.999Z</time></trkpt><trkpt lat="1.2123254339644864" lon="-76.65402693625465"><ele>756.0</ele><time>2026-04-26T15:07:25Z</time></trkpt><trkpt lat="1.2123793968436785" lon="-76.65406399029091"><ele>756.0</ele><time>2026-04-26T15:07:28Z</time></trkpt><trkpt lat="1.2124235600501767" lon="-76.65411167203385"><ele>756.0</ele><time>2026-04-26T15:07:33.999Z</time></trkpt><trkpt lat="1.2124131004660048" lon="-76.65418023604946"><ele>756.0</ele><time>2026-04-26T15:07:41Z</time></trkpt><trkpt lat="1.2124402919864135" lon="-76.65424124191148"><ele>756.0</ele><time>2026-04-26T15:08:07Z</time></trkpt><trkpt lat="1.2124174142177429" lon="-76.65431265075973"><ele>756.0</ele><time>2026-04-26T15:08:23Z</time></trkpt><trkpt lat="1.212406178483688" lon="-76.65438378617944"><ele>756.0</ele><time>2026-04-26T15:08:25Z</time></trkpt><trkpt lat="1.2124241943292082" lon="-76.654473148315"><ele>756.0</ele><time>2026-04-26T15:08:28Z</time></trkpt><trkpt lat="1.2124345817617148" lon="-76.65454650556943"><ele>754.8571428571429</ele><time>2026-04-26T15:08:31Z</time></trkpt><trkpt lat="1.2124403569783533" lon="-76.65461877265184"><ele>753.7142857142858</ele><time>2026-04-26T15:08:35Z</time></trkpt><trkpt lat="1.2124931380410406" lon="-76.65465987101486"><ele>752.5714285714286</ele><time>2026-04-26T15:08:37Z</time></trkpt><trkpt lat="1.2125313363253631" lon="-76.65472612338459"><ele>751.4285714285714</ele><time>2026-04-26T15:08:40Z</time></trkpt><trkpt lat="1.2125632993738757" lon="-76.65479036728746"><ele>750.2857142857143</ele><time>2026-04-26T15:08:42Z</time></trkpt><trkpt lat="1.2125442014630887" lon="-76.65485417082095"><ele>749.1428571428571</ele><time>2026-04-26T15:08:45Z</time></trkpt><trkpt lat="1.212521470125176" lon="-76.65493185070288"><ele>748.0</ele><time>2026-04-26T15:08:48Z</time></trkpt><trkpt lat="1.2125230120018335" lon="-76.65503655015307"><ele>748.0</ele><time>2026-04-26T15:08:51Z</time></trkpt><trkpt lat="1.2125404731231455" lon="-76.6551348262416"><ele>748.0</ele><time>2026-04-26T15:08:54Z</time></trkpt><trkpt lat="1.2125900661720364" lon="-76.65518546143629"><ele>748.0</ele><time>2026-04-26T15:08:58Z</time></trkpt><trkpt lat="1.212672338297349" lon="-76.65526439686995"><ele>748.0</ele><time>2026-04-26T15:09:01Z</time></trkpt><trkpt lat="1.2127342992840868" lon="-76.65529116595877"><ele>748.0</ele><time>2026-04-26T15:09:03Z</time></trkpt><trkpt lat="1.212762520431864" lon="-76.65536483919217"><ele>748.0</ele><time>2026-04-26T15:09:06Z</time></trkpt><trkpt lat="1.212776760615971" lon="-76.65544538023879"><ele>745.5</ele><time>2026-04-26T15:09:09Z</time></trkpt><trkpt lat="1.2127850068180124" lon="-76.65551506396363"><ele>743.0</ele><time>2026-04-26T15:09:12Z</time></trkpt><trkpt lat="1.2127989645309536" lon="-76.65559445206479"><ele>740.5</ele><time>2026-04-26T15:09:15Z</time></trkpt><trkpt lat="1.2128124567517307" lon="-76.65567205971193"><ele>738.0</ele><time>2026-04-26T15:09:18Z</time></trkpt><trkpt lat="1.2128525434670088" lon="-76.6557321632312"><ele>735.5</ele><time>2026-04-26T15:09:21Z</time></trkpt><trkpt lat="1.2128483467113709" lon="-76.6558110553266"><ele>733.0</ele><time>2026-04-26T15:09:23.999Z</time></trkpt><trkpt lat="1.2128949460907525" lon="-76.65587778305057"><ele>733.0</ele><time>2026-04-26T15:09:27.999Z</time></trkpt><trkpt lat="1.212907447908128" lon="-76.65594456513259"><ele>733.0</ele><time>2026-04-26T15:09:31.999Z</time></trkpt><trkpt lat="1.2129138210046653" lon="-76.65600992909154"><ele>733.0</ele><time>2026-04-26T15:09:34.999Z</time></trkpt><trkpt lat="1.2129340290840496" lon="-76.6560952173438"><ele>733.0</ele><time>2026-04-26T15:09:37.999Z</time></trkpt><trkpt lat="1.2129824175029964" lon="-76.65615473291194"><ele>733.0</ele><time>2026-04-26T15:09:40.999Z</time></trkpt><trkpt lat="1.2129540948299793" lon="-76.65621217366"><ele>733.0</ele><time>2026-04-26T15:11:52.999Z</time></trkpt><trkpt lat="1.2129962470646907" lon="-76.65629342851966"><ele>732.8</ele><time>2026-04-26T15:11:55.999Z</time></trkpt><trkpt lat="1.2130228465318478" lon="-76.65635050965783"><ele>732.5999999999999</ele><time>2026-04-26T15:11:56.999Z</time></trkpt><trkpt lat="1.2130504520279428" lon="-76.6564334525852"><ele>732.4000000000001</ele><time>2026-04-26T15:11:58.999Z</time></trkpt><trkpt lat="1.2131107103882774" lon="-76.65652716724658"><ele>732.2</ele><time>2026-04-26T15:12:00.999Z</time></trkpt><trkpt lat="1.213165464148789" lon="-76.65661772653351"><ele>732.0</ele><time>2026-04-26T15:12:02.999Z</time></trkpt><trkpt lat="1.2132371245028346" lon="-76.65669627263352"><ele>732.0</ele><time>2026-04-26T15:12:04.999Z</time></trkpt><trkpt lat="1.213300918567869" lon="-76.65676428784398"><ele>732.0</ele><time>2026-04-26T15:12:06.999Z</time></trkpt><trkpt lat="1.213341738463392" lon="-76.65684000726473"><ele>732.0</ele><time>2026-04-26T15:12:08.999Z</time></trkpt><trkpt lat="1.2133714966568496" lon="-76.6569052658454"><ele>732.0</ele><time>2026-04-26T15:12:11.999Z</time></trkpt><trkpt lat="1.2134116912953143" lon="-76.6569735011015"><ele>732.0</ele><time>2026-04-26T15:12:14.999Z</time></trkpt><trkpt lat="1.2134556752465695" lon="-76.65702657403071"><ele>732.0</ele><time>2026-04-26T15:12:17.999Z</time></trkpt><trkpt lat="1.2134632528189078" lon="-76.65709268041657"><ele>730.5</ele><time>2026-04-26T15:12:19.999Z</time></trkpt><trkpt lat="1.2134819757753053" lon="-76.65715819983419"><ele>729.0</ele><time>2026-04-26T15:12:20.999Z</time></trkpt><trkpt lat="1.2135177328408966" lon="-76.65721572484307"><ele>727.5</ele><time>2026-04-26T15:12:21.999Z</time></trkpt><trkpt lat="1.2135705178401404" lon="-76.65726424273497"><ele>726.0</ele><time>2026-04-26T15:12:22.999Z</time></trkpt><trkpt lat="1.2136278942298928" lon="-76.65729184392985"><ele>724.5</ele><time>2026-04-26T15:12:23.999Z</time></trkpt><trkpt lat="1.2137255856509244" lon="-76.65735954251083"><ele>723.0</ele><time>2026-04-26T15:12:25.999Z</time></trkpt><trkpt lat="1.2137920531841007" lon="-76.6574143683544"><ele>723.0</ele><time>2026-04-26T15:12:27.999Z</time></trkpt><trkpt lat="1.2138707484237716" lon="-76.65741649231582"><ele>723.0</ele><time>2026-04-26T15:12:29.999Z</time></trkpt><trkpt lat="1.2139659616890919" lon="-76.65739252633554"><ele>723.0</ele><time>2026-04-26T15:12:31.999Z</time></trkpt><trkpt lat="1.2140446933839595" lon="-76.65738013487133"><ele>723.0</ele><time>2026-04-26T15:12:33.999Z</time></trkpt><trkpt lat="1.2141181437659923" lon="-76.65739601669235"><ele>723.0</ele><time>2026-04-26T15:12:35.999Z</time></trkpt><trkpt lat="1.2141979576355535" lon="-76.65744143656114"><ele>723.0</ele><time>2026-04-26T15:12:37.999Z</time></trkpt><trkpt lat="1.2142914415375698" lon="-76.65751443996423"><ele>724.4</ele><time>2026-04-26T15:12:39.999Z</time></trkpt><trkpt lat="1.2143866192971047" lon="-76.6575807830608"><ele>725.8</ele><time>2026-04-26T15:12:41.999Z</time></trkpt><trkpt lat="1.2144507119773196" lon="-76.65765209538279"><ele>727.2</ele><time>2026-04-26T15:12:42.999Z</time></trkpt><trkpt lat="1.2144770161319638" lon="-76.65773171197692"><ele>728.6</ele><time>2026-04-26T15:12:43.999Z</time></trkpt><trkpt lat="1.2145035732449312" lon="-76.65781209422175"><ele>730.0</ele><time>2026-04-26T15:12:44.999Z</time></trkpt><trkpt lat="1.2145019055005888" lon="-76.65791878974213"><ele>730.0</ele><time>2026-04-26T15:12:45.999Z</time></trkpt><trkpt lat="1.214497799261672" lon="-76.65799952140726"><ele>730.0</ele><time>2026-04-26T15:12:46.999Z</time></trkpt><trkpt lat="1.2145030981405462" lon="-76.65809073435344"><ele>730.0</ele><time>2026-04-26T15:12:47.999Z</time></trkpt><trkpt lat="1.2145058427178261" lon="-76.65818231217632"><ele>730.0</ele><time>2026-04-26T15:12:48.999Z</time></trkpt><trkpt lat="1.2144981445092966" lon="-76.65826220519129"><ele>730.0</ele><time>2026-04-26T15:12:49.999Z</time></trkpt><trkpt lat="1.2145032596197005" lon="-76.65833288668512"><ele>730.0</ele><time>2026-04-26T15:12:50.999Z</time></trkpt><trkpt lat="1.2145108973880496" lon="-76.65840875778063"><ele>730.0000000000001</ele><time>2026-04-26T15:12:51.999Z</time></trkpt><trkpt lat="1.2145182074951937" lon="-76.65847847999855"><ele>730.0</ele><time>2026-04-26T15:12:52.999Z</time></trkpt><trkpt lat="1.2145301846066228" lon="-76.65854857299847"><ele>730.0</ele><time>2026-04-26T15:12:53.999Z</time></trkpt><trkpt lat="1.2145452974587017" lon="-76.6586221612357"><ele>730.0</ele><time>2026-04-26T15:12:54.999Z</time></trkpt><trkpt lat="1.2145375625198709" lon="-76.65869382553237"><ele>730.0</ele><time>2026-04-26T15:12:55.999Z</time></trkpt><trkpt lat="1.2145395586889416" lon="-76.6587734774123"><ele>730.0000000000001</ele><time>2026-04-26T15:12:56.999Z</time></trkpt><trkpt lat="1.2145410691182223" lon="-76.65884251680835"><ele>730.0</ele><time>2026-04-26T15:12:57.999Z</time></trkpt><trkpt lat="1.2145425152627725" lon="-76.65891265505041"><ele>730.6666666666667</ele><time>2026-04-26T15:12:58.999Z</time></trkpt><trkpt lat="1.214544035187414" lon="-76.65898660219426"><ele>731.3333333333334</ele><time>2026-04-26T15:12:59.999Z</time></trkpt><trkpt lat="1.2145456125592062" lon="-76.6590611606287"><ele>732.0</ele><time>2026-04-26T15:13:00.999Z</time></trkpt><trkpt lat="1.2145474096450752" lon="-76.65913214469198"><ele>732.6666666666666</ele><time>2026-04-26T15:13:01.999Z</time></trkpt><trkpt lat="1.2145497594964751" lon="-76.65922531588237"><ele>733.3333333333333</ele><time>2026-04-26T15:13:02.999Z</time></trkpt><trkpt lat="1.2145528325873947" lon="-76.65935525379471"><ele>734.0</ele><time>2026-04-26T15:13:03.999Z</time></trkpt><trkpt lat="1.2145687427013032" lon="-76.65948478610292"><ele>735.75</ele><time>2026-04-26T15:13:04.999Z</time></trkpt><trkpt lat="1.2145708142861764" lon="-76.65960902408801"><ele>737.5</ele><time>2026-04-26T15:13:05.999Z</time></trkpt><trkpt lat="1.2145636067978256" lon="-76.65973550444707"><ele>739.25</ele><time>2026-04-26T15:13:06.999Z</time></trkpt><trkpt lat="1.214547893116895" lon="-76.65984604596446"><ele>741.0</ele><time>2026-04-26T15:13:07.999Z</time></trkpt><trkpt lat="1.2145509314273613" lon="-76.65993835155906"><ele>741.0</ele><time>2026-04-26T15:13:08.999Z</time></trkpt><trkpt lat="1.2145529675174656" lon="-76.6600264757216"><ele>741.0</ele><time>2026-04-26T15:13:09.999Z</time></trkpt><trkpt lat="1.2145412430902334" lon="-76.66011473770983"><ele>741.0</ele><time>2026-04-26T15:13:10.999Z</time></trkpt><trkpt lat="1.2145133349773811" lon="-76.66019966295246"><ele>741.0</ele><time>2026-04-26T15:13:11.999Z</time></trkpt><trkpt lat="1.2144528212560615" lon="-76.66027686333916"><ele>741.0</ele><time>2026-04-26T15:13:12.999Z</time></trkpt><trkpt lat="1.21440929640211" lon="-76.6603658934237"><ele>741.5714285714286</ele><time>2026-04-26T15:13:13.999Z</time></trkpt><trkpt lat="1.214375792130254" lon="-76.66043403471852"><ele>742.1428571428572</ele><time>2026-04-26T15:13:14.999Z</time></trkpt><trkpt lat="1.2143439507649687" lon="-76.66050139882168"><ele>742.7142857142858</ele><time>2026-04-26T15:13:15.999Z</time></trkpt><trkpt lat="1.2143060036133186" lon="-76.66056380539162"><ele>743.2857142857142</ele><time>2026-04-26T15:13:16.999Z</time></trkpt><trkpt lat="1.214275889872359" lon="-76.66062726864618"><ele>743.8571428571429</ele><time>2026-04-26T15:13:17.999Z</time></trkpt><trkpt lat="1.214248589332671" lon="-76.66069371959573"><ele>744.4285714285714</ele><time>2026-04-26T15:13:18.999Z</time></trkpt><trkpt lat="1.2142243600384566" lon="-76.66075662555801"><ele>745.0</ele><time>2026-04-26T15:13:19.999Z</time></trkpt><trkpt lat="1.2142011305123919" lon="-76.66086333678433"><ele>745.0</ele><time>2026-04-26T15:13:21.999Z</time></trkpt><trkpt lat="1.2142662755346818" lon="-76.66090146968058"><ele>745.0</ele><time>2026-04-26T15:13:22.999Z</time></trkpt><trkpt lat="1.2142984879393994" lon="-76.66095940987417"><ele>745.0</ele><time>2026-04-26T15:13:23.999Z</time></trkpt><trkpt lat="1.214330140786078" lon="-76.66103022716256"><ele>745.0</ele><time>2026-04-26T15:13:24.999Z</time></trkpt><trkpt lat="1.214373759646763" lon="-76.6610912539484"><ele>745.0</ele><time>2026-04-26T15:13:25.999Z</time></trkpt><trkpt lat="1.214414710392806" lon="-76.661145607716"><ele>745.0</ele><time>2026-04-26T15:13:26.999Z</time></trkpt><trkpt lat="1.2144502609434789" lon="-76.66120199510323"><ele>745.0</ele><time>2026-04-26T15:13:27.999Z</time></trkpt><trkpt lat="1.2144852565657407" lon="-76.66125750230368"><ele>746.1666666666667</ele><time>2026-04-26T15:13:28.999Z</time></trkpt><trkpt lat="1.2145453199989138" lon="-76.66135421070511"><ele>747.3333333333334</ele><time>2026-04-26T15:13:30.999Z</time></trkpt><trkpt lat="1.2145792623081937" lon="-76.66145487277494"><ele>748.5</ele><time>2026-04-26T15:13:32.999Z</time></trkpt><trkpt lat="1.2145961484496919" lon="-76.66153671610003"><ele>749.6666666666666</ele><time>2026-04-26T15:13:34.999Z</time></trkpt><trkpt lat="1.2146084150567982" lon="-76.66160205133347"><ele>750.8333333333333</ele><time>2026-04-26T15:13:36.999Z</time></trkpt><trkpt lat="1.214626224479382" lon="-76.66167905930287"><ele>752.0</ele><time>2026-04-26T15:13:38.999Z</time></trkpt><trkpt lat="1.2146350785530204" lon="-76.66177654780034"><ele>752.0</ele><time>2026-04-26T15:13:40.999Z</time></trkpt><trkpt lat="1.2146317120891104" lon="-76.6618734796746"><ele>752.0</ele><time>2026-04-26T15:13:42.999Z</time></trkpt><trkpt lat="1.2145946431668482" lon="-76.66197671134178"><ele>752.0</ele><time>2026-04-26T15:13:45Z</time></trkpt><trkpt lat="1.2146309455677171" lon="-76.66207414138421"><ele>752.0</ele><time>2026-04-26T15:13:47Z</time></trkpt><trkpt lat="1.214589343035333" lon="-76.6621276838615"><ele>752.0</ele><time>2026-04-26T15:13:48Z</time></trkpt><trkpt lat="1.2145894708189522" lon="-76.66220190114242"><ele>753.4000000000001</ele><time>2026-04-26T15:13:49Z</time></trkpt><trkpt lat="1.214585425730662" lon="-76.66227228185485"><ele>754.8000000000001</ele><time>2026-04-26T15:13:50Z</time></trkpt><trkpt lat="1.214591841718419" lon="-76.66237702126399"><ele>756.2</ele><time>2026-04-26T15:13:52Z</time></trkpt><trkpt lat="1.214588044101755" lon="-76.6624945248409"><ele>757.6</ele><time>2026-04-26T15:13:54Z</time></trkpt><trkpt lat="1.2145852257714194" lon="-76.6625933693027"><ele>759.0</ele><time>2026-04-26T15:13:56Z</time></trkpt><trkpt lat="1.2145822480666932" lon="-76.66270576577445"><ele>759.0</ele><time>2026-04-26T15:13:58Z</time></trkpt><trkpt lat="1.2145791913840291" lon="-76.6627737583991"><ele>759.0</ele><time>2026-04-26T15:13:59Z</time></trkpt><trkpt lat="1.2145725476837415" lon="-76.66284370646633"><ele>759.0</ele><time>2026-04-26T15:14:00Z</time></trkpt><trkpt lat="1.2145592198538318" lon="-76.66295981785275"><ele>759.0</ele><time>2026-04-26T15:14:02Z</time></trkpt><trkpt lat="1.2145586567112583" lon="-76.6630245822865"><ele>759.0</ele><time>2026-04-26T15:14:03Z</time></trkpt><trkpt lat="1.2145619279063695" lon="-76.66310745253189"><ele>759.0</ele><time>2026-04-26T15:14:04Z</time></trkpt><trkpt lat="1.214565684187449" lon="-76.66319495000081"><ele>760.0</ele><time>2026-04-26T15:14:05Z</time></trkpt><trkpt lat="1.214568613085889" lon="-76.66327316903543"><ele>761.0</ele><time>2026-04-26T15:14:06Z</time></trkpt><trkpt lat="1.2145722498739937" lon="-76.66335402658538"><ele>762.0</ele><time>2026-04-26T15:14:07Z</time></trkpt><trkpt lat="1.214577326753711" lon="-76.66341993701143"><ele>763.0</ele><time>2026-04-26T15:14:08Z</time></trkpt><trkpt lat="1.2146041634820643" lon="-76.66349244436117"><ele>764.0</ele><time>2026-04-26T15:14:09Z</time></trkpt><trkpt lat="1.2146302579013064" lon="-76.66356653204951"><ele>765.0</ele><time>2026-04-26T15:14:10Z</time></trkpt><trkpt lat="1.2146572644042282" lon="-76.66364320936052"><ele>765.8333333333334</ele><time>2026-04-26T15:14:11Z</time></trkpt><trkpt lat="1.2146663939352755" lon="-76.66373322489733"><ele>766.6666666666667</ele><time>2026-04-26T15:14:12Z</time></trkpt><trkpt lat="1.2146748636218305" lon="-76.66381595297224"><ele>767.5</ele><time>2026-04-26T15:14:13Z</time></trkpt><trkpt lat="1.2146834383279526" lon="-76.66389771058645"><ele>768.3333333333334</ele><time>2026-04-26T15:14:14Z</time></trkpt><trkpt lat="1.2147023457490163" lon="-76.6639738663848"><ele>769.1666666666667</ele><time>2026-04-26T15:14:15Z</time></trkpt><trkpt lat="1.21472160277197" lon="-76.66405020294239"><ele>770.0</ele><time>2026-04-26T15:14:16Z</time></trkpt><trkpt lat="1.2147489929954982" lon="-76.66411647052128"><ele>770.0000000000001</ele><time>2026-04-26T15:14:17Z</time></trkpt><trkpt lat="1.2147793010545356" lon="-76.6641913818404"><ele>770.0</ele><time>2026-04-26T15:14:18Z</time></trkpt><trkpt lat="1.2148098233022149" lon="-76.66426609324058"><ele>770.0</ele><time>2026-04-26T15:14:19Z</time></trkpt><trkpt lat="1.2148382471972483" lon="-76.66433684957259"><ele>770.0</ele><time>2026-04-26T15:14:20Z</time></trkpt><trkpt lat="1.214864987262265" lon="-76.66440406210218"><ele>770.0000000000001</ele><time>2026-04-26T15:14:21Z</time></trkpt><trkpt lat="1.2148706500379178" lon="-76.6644731097289"><ele>770.0</ele><time>2026-04-26T15:14:22Z</time></trkpt><trkpt lat="1.2149094325006329" lon="-76.66454285120085"><ele>772.0000000000001</ele><time>2026-04-26T15:14:23Z</time></trkpt><trkpt lat="1.2149339365066945" lon="-76.66462003544625"><ele>774.0</ele><time>2026-04-26T15:14:24Z</time></trkpt><trkpt lat="1.2149573396299929" lon="-76.66469375205858"><ele>776.0</ele><time>2026-04-26T15:14:25Z</time></trkpt><trkpt lat="1.2149815215087558" lon="-76.66476992164085"><ele>778.0</ele><time>2026-04-26T15:14:26Z</time></trkpt><trkpt lat="1.2150051761084855" lon="-76.66484443037065"><ele>780.0000000000001</ele><time>2026-04-26T15:14:27Z</time></trkpt><trkpt lat="1.2150304840662667" lon="-76.66492414694773"><ele>782.0</ele><time>2026-04-26T15:14:28Z</time></trkpt><trkpt lat="1.2150550223894523" lon="-76.66500034944168"><ele>782.0000000000001</ele><time>2026-04-26T15:14:29Z</time></trkpt><trkpt lat="1.2150797080467866" lon="-76.66507608077771"><ele>782.0</ele><time>2026-04-26T15:14:30Z</time></trkpt><trkpt lat="1.2151034948995032" lon="-76.66515235335534"><ele>782.0</ele><time>2026-04-26T15:14:31Z</time></trkpt><trkpt lat="1.215126947322957" lon="-76.66522734856332"><ele>782.0</ele><time>2026-04-26T15:14:32Z</time></trkpt><trkpt lat="1.2151509165123147" lon="-76.66530205817205"><ele>782.0000000000001</ele><time>2026-04-26T15:14:33Z</time></trkpt><trkpt lat="1.2151721821348354" lon="-76.6653683410274"><ele>782.0</ele><time>2026-04-26T15:14:34Z</time></trkpt><trkpt lat="1.2151922999997158" lon="-76.6654310464297"><ele>782.6666666666667</ele><time>2026-04-26T15:14:35Z</time></trkpt><trkpt lat="1.2152122963689895" lon="-76.66549366337344"><ele>783.3333333333334</ele><time>2026-04-26T15:14:36Z</time></trkpt><trkpt lat="1.2152221044752474" lon="-76.66563632443842"><ele>784.0</ele><time>2026-04-26T15:14:38Z</time></trkpt><trkpt lat="1.2152160071678664" lon="-76.66570021854758"><ele>784.6666666666667</ele><time>2026-04-26T15:14:39Z</time></trkpt><trkpt lat="1.2152090724749505" lon="-76.66577288768121"><ele>785.3333333333334</ele><time>2026-04-26T15:14:40Z</time></trkpt><trkpt lat="1.2152020603540623" lon="-76.66584530937882"><ele>786.0</ele><time>2026-04-26T15:14:41Z</time></trkpt><trkpt lat="1.2151956978283929" lon="-76.66591092885045"><ele>786.0</ele><time>2026-04-26T15:14:42Z</time></trkpt><trkpt lat="1.2151952271721231" lon="-76.66599218667633"><ele>786.0</ele><time>2026-04-26T15:14:44Z</time></trkpt><trkpt lat="1.2151332074356507" lon="-76.66603710137315"><ele>786.0</ele><time>2026-04-26T15:14:45Z</time></trkpt><trkpt lat="1.2151298937576929" lon="-76.66611909441946"><ele>786.0</ele><time>2026-04-26T15:14:47Z</time></trkpt><trkpt lat="1.2151961136988132" lon="-76.66620144578233"><ele>786.0</ele><time>2026-04-26T15:14:49Z</time></trkpt><trkpt lat="1.2152572963741748" lon="-76.66622415901675"><ele>786.0</ele><time>2026-04-26T15:14:50Z</time></trkpt><trkpt lat="1.2153364107757714" lon="-76.66625424220204"><ele>786.5</ele><time>2026-04-26T15:14:52Z</time></trkpt><trkpt lat="1.215408486385074" lon="-76.66632358292372"><ele>787.0</ele><time>2026-04-26T15:14:54Z</time></trkpt><trkpt lat="1.2154892212780684" lon="-76.66639679013007"><ele>787.5</ele><time>2026-04-26T15:14:57Z</time></trkpt><trkpt lat="1.215452064559467" lon="-76.66645043095149"><ele>788.0</ele><time>2026-04-26T15:14:59Z</time></trkpt><trkpt lat="1.2154698832428692" lon="-76.6665535175482"><ele>788.5</ele><time>2026-04-26T15:15:01Z</time></trkpt><trkpt lat="1.2154745193801813" lon="-76.66662349630207"><ele>789.0</ele><time>2026-04-26T15:15:03Z</time></trkpt><trkpt lat="1.215484391914896" lon="-76.66669957673571"><ele>789.0</ele><time>2026-04-26T15:15:05Z</time></trkpt><trkpt lat="1.2155679411586653" lon="-76.66674879578729"><ele>789.0</ele><time>2026-04-26T15:15:14Z</time></trkpt><trkpt lat="1.2156216002302718" lon="-76.66682203533415"><ele>789.0</ele><time>2026-04-26T15:15:16Z</time></trkpt><trkpt lat="1.2156427541939818" lon="-76.66688904125466"><ele>789.0</ele><time>2026-04-26T15:15:17Z</time></trkpt><trkpt lat="1.2156475622563219" lon="-76.66697924953381"><ele>789.0</ele><time>2026-04-26T15:15:18Z</time></trkpt><trkpt lat="1.2156470286588128" lon="-76.66707379139649"><ele>789.0</ele><time>2026-04-26T15:15:19Z</time></trkpt><trkpt lat="1.2156470286592722" lon="-76.66715620000215"><ele>789.0</ele><time>2026-04-26T15:15:20Z</time></trkpt><trkpt lat="1.215645039018956" lon="-76.66725297133985"><ele>789.0</ele><time>2026-04-26T15:15:21Z</time></trkpt><trkpt lat="1.215632092034437" lon="-76.6673490407179"><ele>789.0</ele><time>2026-04-26T15:15:22Z</time></trkpt><trkpt lat="1.2156016094808366" lon="-76.66745472286645"><ele>789.0</ele><time>2026-04-26T15:15:23Z</time></trkpt><trkpt lat="1.2155681721794165" lon="-76.6675494564827"><ele>789.0</ele><time>2026-04-26T15:15:24Z</time></trkpt><trkpt lat="1.2155342794712962" lon="-76.6676463054529"><ele>789.0</ele><time>2026-04-26T15:15:25Z</time></trkpt><trkpt lat="1.2155046790220996" lon="-76.66773088923755"><ele>789.0</ele><time>2026-04-26T15:15:26Z</time></trkpt><trkpt lat="1.2154850942636515" lon="-76.66781394611584"><ele>789.0</ele><time>2026-04-26T15:15:27Z</time></trkpt><trkpt lat="1.2154677925406596" lon="-76.66790091572219"><ele>789.0</ele><time>2026-04-26T15:15:28Z</time></trkpt><trkpt lat="1.215449969899319" lon="-76.66799050378465"><ele>789.0</ele><time>2026-04-26T15:15:29Z</time></trkpt><trkpt lat="1.2154313404545443" lon="-76.6680838764302"><ele>788.8333333333334</ele><time>2026-04-26T15:15:30Z</time></trkpt><trkpt lat="1.2154137134790404" lon="-76.6681720113125"><ele>788.6666666666667</ele><time>2026-04-26T15:15:31Z</time></trkpt><trkpt lat="1.2153980570940803" lon="-76.66825029325162"><ele>788.5</ele><time>2026-04-26T15:15:32Z</time></trkpt><trkpt lat="1.21538272624372" lon="-76.6683269475054"><ele>788.3333333333334</ele><time>2026-04-26T15:15:33Z</time></trkpt><trkpt lat="1.2153674089980662" lon="-76.66840353373976"><ele>788.1666666666667</ele><time>2026-04-26T15:15:34Z</time></trkpt><trkpt lat="1.2154219494484164" lon="-76.66844053302266"><ele>788.0</ele><time>2026-04-26T15:15:35Z</time></trkpt><trkpt lat="1.2154452151328632" lon="-76.66854888322904"><ele>788.5999999999999</ele><time>2026-04-26T15:15:37Z</time></trkpt><trkpt lat="1.2154707854738562" lon="-76.66866796642502"><ele>789.1999999999999</ele><time>2026-04-26T15:15:39Z</time></trkpt><trkpt lat="1.215495906413621" lon="-76.6687856034921"><ele>789.8</ele><time>2026-04-26T15:15:41Z</time></trkpt><trkpt lat="1.2155139109807764" lon="-76.6688614387524"><ele>790.4</ele><time>2026-04-26T15:15:42Z</time></trkpt><trkpt lat="1.2155337629457037" lon="-76.66894026430353"><ele>791.0</ele><time>2026-04-26T15:15:43Z</time></trkpt><trkpt lat="1.2155523158429065" lon="-76.66901393176434"><ele>791.0000000000001</ele><time>2026-04-26T15:15:44Z</time></trkpt><trkpt lat="1.2156095833391325" lon="-76.66912817396987"><ele>791.0</ele><time>2026-04-26T15:15:46Z</time></trkpt><trkpt lat="1.215692340688688" lon="-76.66921402398492"><ele>791.0</ele><time>2026-04-26T15:15:48Z</time></trkpt><trkpt lat="1.215732774229122" lon="-76.66926512101816"><ele>791.0</ele><time>2026-04-26T15:15:49Z</time></trkpt><trkpt lat="1.2157661733985483" lon="-76.66932116319543"><ele>791.0000000000001</ele><time>2026-04-26T15:15:50Z</time></trkpt><trkpt lat="1.215811312142732" lon="-76.6693737650598"><ele>791.0</ele><time>2026-04-26T15:15:51Z</time></trkpt><trkpt lat="1.2158507830167422" lon="-76.66943265873083"><ele>791.8333333333334</ele><time>2026-04-26T15:15:52Z</time></trkpt><trkpt lat="1.2159101511519173" lon="-76.66949182236614"><ele>792.6666666666667</ele><time>2026-04-26T15:15:53Z</time></trkpt><trkpt lat="1.2159668989440608" lon="-76.66956359911231"><ele>793.5</ele><time>2026-04-26T15:15:54Z</time></trkpt><trkpt lat="1.216024329091218" lon="-76.6696365549614"><ele>794.3333333333333</ele><time>2026-04-26T15:15:55Z</time></trkpt><trkpt lat="1.2160625820736843" lon="-76.66970342837847"><ele>795.1666666666666</ele><time>2026-04-26T15:15:56Z</time></trkpt><trkpt lat="1.2161165779016827" lon="-76.66976501873982"><ele>796.0</ele><time>2026-04-26T15:15:57Z</time></trkpt><trkpt lat="1.2161743075488178" lon="-76.66980930022167"><ele>795.9999999999999</ele><time>2026-04-26T15:15:58Z</time></trkpt><trkpt lat="1.2162275563974272" lon="-76.66986581307776"><ele>796.0</ele><time>2026-04-26T15:15:59Z</time></trkpt><trkpt lat="1.2162829214468824" lon="-76.66992489041583"><ele>796.0</ele><time>2026-04-26T15:16:00Z</time></trkpt><trkpt lat="1.216343167327639" lon="-76.6699736019433"><ele>796.0</ele><time>2026-04-26T15:16:01Z</time></trkpt><trkpt lat="1.2164103797683463" lon="-76.67002269834194"><ele>795.9999999999999</ele><time>2026-04-26T15:16:02Z</time></trkpt><trkpt lat="1.2164652554678876" lon="-76.67007699019271"><ele>796.0</ele><time>2026-04-26T15:16:03Z</time></trkpt><trkpt lat="1.2165321780161864" lon="-76.67011064850394"><ele>798.8333333333333</ele><time>2026-04-26T15:16:04Z</time></trkpt><trkpt lat="1.2165995979751094" lon="-76.67014344536764"><ele>801.6666666666666</ele><time>2026-04-26T15:16:05Z</time></trkpt><trkpt lat="1.2166707059848154" lon="-76.67017635407082"><ele>804.5</ele><time>2026-04-26T15:16:06Z</time></trkpt><trkpt lat="1.2167354524573095" lon="-76.67021845825917"><ele>807.3333333333333</ele><time>2026-04-26T15:16:07Z</time></trkpt><trkpt lat="1.2167975714974157" lon="-76.67027205262613"><ele>810.1666666666666</ele><time>2026-04-26T15:16:08Z</time></trkpt><trkpt lat="1.216883654267235" lon="-76.67033554657903"><ele>813.0</ele><time>2026-04-26T15:16:10Z</time></trkpt><trkpt lat="1.216997406596055" lon="-76.67041520975138"><ele>813.0</ele><time>2026-04-26T15:16:12Z</time></trkpt><trkpt lat="1.217071603512487" lon="-76.67045486373873"><ele>813.0</ele><time>2026-04-26T15:16:13Z</time></trkpt><trkpt lat="1.2171368280522543" lon="-76.67050230673327"><ele>813.0</ele><time>2026-04-26T15:16:14Z</time></trkpt><trkpt lat="1.2171910431603314" lon="-76.67054913690217"><ele>813.0</ele><time>2026-04-26T15:16:15Z</time></trkpt><trkpt lat="1.217262408954044" lon="-76.67057771205114"><ele>813.0</ele><time>2026-04-26T15:16:16Z</time></trkpt><trkpt lat="1.217330865579979" lon="-76.6706230408964"><ele>813.0</ele><time>2026-04-26T15:16:17Z</time></trkpt><trkpt lat="1.217396567839365" lon="-76.6706730505605"><ele>815.3333333333334</ele><time>2026-04-26T15:16:18Z</time></trkpt><trkpt lat="1.2174447855841881" lon="-76.67071917900962"><ele>817.6666666666667</ele><time>2026-04-26T15:16:19Z</time></trkpt><trkpt lat="1.2175063854563002" lon="-76.67076246096609"><ele>820.0</ele><time>2026-04-26T15:16:20Z</time></trkpt><trkpt lat="1.2175776060907706" lon="-76.67081171726416"><ele>822.3333333333334</ele><time>2026-04-26T15:16:21Z</time></trkpt><trkpt lat="1.2176518366314035" lon="-76.67087293574228"><ele>824.6666666666667</ele><time>2026-04-26T15:16:22Z</time></trkpt><trkpt lat="1.2177195480268135" lon="-76.67093862565203"><ele>827.0</ele><time>2026-04-26T15:16:23Z</time></trkpt><trkpt lat="1.2177958130516569" lon="-76.67099623246042"><ele>827.0</ele><time>2026-04-26T15:16:24Z</time></trkpt><trkpt lat="1.2178816520682494" lon="-76.67107698134616"><ele>827.0</ele><time>2026-04-26T15:16:25Z</time></trkpt><trkpt lat="1.2179666696413298" lon="-76.67116336299301"><ele>827.0</ele><time>2026-04-26T15:16:26Z</time></trkpt><trkpt lat="1.2180483954909764" lon="-76.67123768198064"><ele>827.0</ele><time>2026-04-26T15:16:27Z</time></trkpt><trkpt lat="1.2181188198689916" lon="-76.67129206404692"><ele>827.0</ele><time>2026-04-26T15:16:28Z</time></trkpt><trkpt lat="1.2181735914729848" lon="-76.67136588937673"><ele>829.3333333333334</ele><time>2026-04-26T15:16:29Z</time></trkpt><trkpt lat="1.218188870120571" lon="-76.6714507485345"><ele>831.6666666666667</ele><time>2026-04-26T15:16:30Z</time></trkpt><trkpt lat="1.2182170877755614" lon="-76.67153264847501"><ele>834.0</ele><time>2026-04-26T15:16:31Z</time></trkpt><trkpt lat="1.218225987306404" lon="-76.67160775425022"><ele>836.3333333333333</ele><time>2026-04-26T15:16:32Z</time></trkpt><trkpt lat="1.2182373026052757" lon="-76.67170162599068"><ele>838.6666666666666</ele><time>2026-04-26T15:16:33Z</time></trkpt><trkpt lat="1.2182490816253067" lon="-76.67179934477166"><ele>841.0</ele><time>2026-04-26T15:16:34Z</time></trkpt><trkpt lat="1.2182608012778413" lon="-76.67189660532549"><ele>842.1666666666666</ele><time>2026-04-26T15:16:35Z</time></trkpt><trkpt lat="1.2182708525025752" lon="-76.6719808740766"><ele>843.3333333333333</ele><time>2026-04-26T15:16:36Z</time></trkpt><trkpt lat="1.2182812658645688" lon="-76.67206817896374"><ele>844.5</ele><time>2026-04-26T15:16:37Z</time></trkpt><trkpt lat="1.2182898797015809" lon="-76.67214039674694"><ele>845.6666666666667</ele><time>2026-04-26T15:16:38Z</time></trkpt><trkpt lat="1.2182978554162007" lon="-76.67220503847959"><ele>846.8333333333334</ele><time>2026-04-26T15:16:39Z</time></trkpt><trkpt lat="1.2182969312928125" lon="-76.67233019305783"><ele>848.0</ele><time>2026-04-26T15:16:41Z</time></trkpt><trkpt lat="1.218303691337364" lon="-76.67244192320024"><ele>848.0000000000001</ele><time>2026-04-26T15:16:43Z</time></trkpt><trkpt lat="1.2182441738176326" lon="-76.67251896882765"><ele>848.0</ele><time>2026-04-26T15:16:45Z</time></trkpt><trkpt lat="1.218197649968245" lon="-76.6725628933032"><ele>848.0</ele><time>2026-04-26T15:16:47Z</time></trkpt><trkpt lat="1.2181584366196605" lon="-76.67262277314565"><ele>848.0</ele><time>2026-04-26T15:16:49Z</time></trkpt><trkpt lat="1.2180846912570298" lon="-76.67260039311311"><ele>848.0000000000001</ele><time>2026-04-26T15:16:50Z</time></trkpt><trkpt lat="1.2179857925923154" lon="-76.67258932036627"><ele>848.0</ele><time>2026-04-26T15:16:52Z</time></trkpt><trkpt lat="1.2178866532826693" lon="-76.67259967954998"><ele>846.2</ele><time>2026-04-26T15:16:54Z</time></trkpt><trkpt lat="1.2178063405417217" lon="-76.67265775156895"><ele>844.4</ele><time>2026-04-26T15:16:56Z</time></trkpt><trkpt lat="1.2178052549015983" lon="-76.67273487238275"><ele>842.6</ele><time>2026-04-26T15:16:58Z</time></trkpt><trkpt lat="1.2177758176435367" lon="-76.67283430527078"><ele>840.8000000000001</ele><time>2026-04-26T15:17:01Z</time></trkpt><trkpt lat="1.217746694075359" lon="-76.67293851644285"><ele>839.0</ele><time>2026-04-26T15:17:03Z</time></trkpt><trkpt lat="1.2177336656852424" lon="-76.67303488735341"><ele>839.0</ele><time>2026-04-26T15:17:05Z</time></trkpt><trkpt lat="1.2177299090827736" lon="-76.67310421417105"><ele>839.0</ele><time>2026-04-26T15:17:07Z</time></trkpt><trkpt lat="1.2176582119186175" lon="-76.67312098316089"><ele>839.0</ele><time>2026-04-26T15:18:59Z</time></trkpt><trkpt lat="1.2176583671570202" lon="-76.67321920828856"><ele>839.0</ele><time>2026-04-26T15:19:01Z</time></trkpt><trkpt lat="1.2176600861310949" lon="-76.67333250436683"><ele>839.0</ele><time>2026-04-26T15:19:02Z</time></trkpt><trkpt lat="1.217665187867894" lon="-76.6734614077439"><ele>839.5</ele><time>2026-04-26T15:19:03Z</time></trkpt><trkpt lat="1.2177268285328622" lon="-76.67360586084938"><ele>840.0</ele><time>2026-04-26T15:19:04Z</time></trkpt><trkpt lat="1.2177259290427085" lon="-76.67374319747671"><ele>840.5</ele><time>2026-04-26T15:19:05Z</time></trkpt><trkpt lat="1.2177255285284077" lon="-76.67384834064758"><ele>841.0</ele><time>2026-04-26T15:19:06Z</time></trkpt><trkpt lat="1.2177255285300488" lon="-76.67393550494715"><ele>841.0</ele><time>2026-04-26T15:19:07Z</time></trkpt><trkpt lat="1.2177496005840758" lon="-76.67404309032628"><ele>841.0</ele><time>2026-04-26T15:19:09Z</time></trkpt><trkpt lat="1.2177556532318596" lon="-76.67411123476322"><ele>841.0</ele><time>2026-04-26T15:19:10Z</time></trkpt><trkpt lat="1.2177703374246343" lon="-76.67423068750848"><ele>841.0</ele><time>2026-04-26T15:19:12Z</time></trkpt><trkpt lat="1.2177590455076397" lon="-76.67431030065448"><ele>841.0</ele><time>2026-04-26T15:19:13Z</time></trkpt><trkpt lat="1.2177704280392687" lon="-76.67439545216384"><ele>842.3333333333333</ele><time>2026-04-26T15:19:14Z</time></trkpt><trkpt lat="1.2177767026382602" lon="-76.67446041368247"><ele>843.6666666666666</ele><time>2026-04-26T15:19:15Z</time></trkpt><trkpt lat="1.2177418183755662" lon="-76.67451536839808"><ele>845.0</ele><time>2026-04-26T15:19:16Z</time></trkpt><trkpt lat="1.2177037471193546" lon="-76.6745711536329"><ele>846.3333333333333</ele><time>2026-04-26T15:19:17Z</time></trkpt><trkpt lat="1.2176493702904347" lon="-76.67461218739828"><ele>847.6666666666666</ele><time>2026-04-26T15:19:18Z</time></trkpt><trkpt lat="1.217581401124909" lon="-76.67472143680465"><ele>849.0</ele><time>2026-04-26T15:19:20Z</time></trkpt><trkpt lat="1.2175221568071175" lon="-76.67480055193288"><ele>849.0</ele><time>2026-04-26T15:19:21Z</time></trkpt><trkpt lat="1.2174821781920562" lon="-76.67488611641569"><ele>849.0</ele><time>2026-04-26T15:19:22Z</time></trkpt><trkpt lat="1.2174264784120021" lon="-76.67498277137463"><ele>849.0</ele><time>2026-04-26T15:19:23Z</time></trkpt><trkpt lat="1.217374945203176" lon="-76.67507219275377"><ele>849.0</ele><time>2026-04-26T15:19:24Z</time></trkpt><trkpt lat="1.2173218172997884" lon="-76.67516461876774"><ele>849.0</ele><time>2026-04-26T15:19:25Z</time></trkpt><trkpt lat="1.2172753853038198" lon="-76.67525082048739"><ele>847.0</ele><time>2026-04-26T15:19:26Z</time></trkpt><trkpt lat="1.217233874780332" lon="-76.67536471103311"><ele>845.0</ele><time>2026-04-26T15:19:27Z</time></trkpt><trkpt lat="1.217200721981497" lon="-76.67547274427886"><ele>843.0</ele><time>2026-04-26T15:19:28Z</time></trkpt><trkpt lat="1.2171703372558742" lon="-76.67558181544501"><ele>841.0</ele><time>2026-04-26T15:19:29Z</time></trkpt><trkpt lat="1.2171422158789542" lon="-76.67568252499485"><ele>841.0</ele><time>2026-04-26T15:19:30Z</time></trkpt><trkpt lat="1.217114727431511" lon="-76.67577883712737"><ele>841.0</ele><time>2026-04-26T15:19:31Z</time></trkpt><trkpt lat="1.2171147379550593" lon="-76.67585435501427"><ele>841.0</ele><time>2026-04-26T15:19:32Z</time></trkpt><trkpt lat="1.2171111747703265" lon="-76.67591967370673"><ele>841.0</ele><time>2026-04-26T15:19:34Z</time></trkpt><trkpt lat="1.2170983867215455" lon="-76.67599216616199"><ele>841.0</ele><time>2026-04-26T15:20:00Z</time></trkpt><trkpt lat="1.2171177138322509" lon="-76.6761447951835"><ele>842.0</ele><time>2026-04-26T15:20:02Z</time></trkpt><trkpt lat="1.2171352860793005" lon="-76.67629495565251"><ele>843.0</ele><time>2026-04-26T15:20:03Z</time></trkpt><trkpt lat="1.2171554130876516" lon="-76.67646208772011"><ele>844.0</ele><time>2026-04-26T15:20:04Z</time></trkpt><trkpt lat="1.2171662411627648" lon="-76.67663875628305"><ele>844.0</ele><time>2026-04-26T15:20:05Z</time></trkpt><trkpt lat="1.217158140010015" lon="-76.6767878518988"><ele>844.0</ele><time>2026-04-26T15:20:06Z</time></trkpt><trkpt lat="1.2171500871286474" lon="-76.6769465271657"><ele>844.0</ele><time>2026-04-26T15:20:07Z</time></trkpt><trkpt lat="1.217148996196437" lon="-76.67709052940806"><ele>844.8000000000001</ele><time>2026-04-26T15:20:08Z</time></trkpt><trkpt lat="1.2171483359029596" lon="-76.67722411682499"><ele>845.6</ele><time>2026-04-26T15:20:09Z</time></trkpt><trkpt lat="1.2171475105704017" lon="-76.67734355259437"><ele>846.4</ele><time>2026-04-26T15:20:10Z</time></trkpt><trkpt lat="1.2171554592816625" lon="-76.67741079223467"><ele>847.2</ele><time>2026-04-26T15:20:11Z</time></trkpt><trkpt lat="1.2171641425986108" lon="-76.67749681389597"><ele>848.0</ele><time>2026-04-26T15:20:12Z</time></trkpt><trkpt lat="1.2171741147142163" lon="-76.67759028398014"><ele>848.0</ele><time>2026-04-26T15:20:13Z</time></trkpt><trkpt lat="1.2171728370380288" lon="-76.67771247902967"><ele>848.0</ele><time>2026-04-26T15:20:14Z</time></trkpt><trkpt lat="1.2171656655738177" lon="-76.67782722238034"><ele>848.0</ele><time>2026-04-26T15:20:15Z</time></trkpt><trkpt lat="1.217159362880326" lon="-76.67792806561623"><ele>848.0</ele><time>2026-04-26T15:20:16Z</time></trkpt><trkpt lat="1.2171289468039586" lon="-76.67799852441705"><ele>848.0</ele><time>2026-04-26T15:20:17Z</time></trkpt><trkpt lat="1.2171292654480355" lon="-76.67806883536805"><ele>848.1666666666667</ele><time>2026-04-26T15:20:21Z</time></trkpt><trkpt lat="1.2170634080357374" lon="-76.67804069743732"><ele>848.3333333333334</ele><time>2026-04-26T15:20:33Z</time></trkpt><trkpt lat="1.2170670513017035" lon="-76.67811797285671"><ele>848.5</ele><time>2026-04-26T15:20:39Z</time></trkpt><trkpt lat="1.2171012524230302" lon="-76.67818250381214"><ele>848.6666666666667</ele><time>2026-04-26T15:20:42Z</time></trkpt><trkpt lat="1.2171405650513276" lon="-76.67823633812677"><ele>848.8333333333334</ele><time>2026-04-26T15:20:44Z</time></trkpt><trkpt lat="1.2172138444757037" lon="-76.67827118721937"><ele>849.0</ele><time>2026-04-26T15:20:47Z</time></trkpt><trkpt lat="1.2172757178700397" lon="-76.67832767466936"><ele>849.0000000000001</ele><time>2026-04-26T15:20:51Z</time></trkpt><trkpt lat="1.2173283354744024" lon="-76.67836662701788"><ele>849.0</ele><time>2026-04-26T15:20:57Z</time></trkpt><trkpt lat="1.2173044148223704" lon="-76.67842746776637"><ele>849.0</ele><time>2026-04-26T15:20:59Z</time></trkpt><trkpt lat="1.2172702262489175" lon="-76.6784805021639"><ele>849.0</ele><time>2026-04-26T15:21:05Z</time></trkpt><trkpt lat="1.217223790178767" lon="-76.67852531935401"><ele>849.0</ele><time>2026-04-26T15:21:35Z</time></trkpt><trkpt lat="1.21715204278048" lon="-76.67852543365912"><ele>849.0000000000001</ele><time>2026-04-26T15:22:08Z</time></trkpt><trkpt lat="1.2170883097017344" lon="-76.67850233029193"><ele>849.0</ele><time>2026-04-26T15:23:08Z</time></trkpt><trkpt lat="1.2170559027416112" lon="-76.67856093555295"><ele>850.1666666666666</ele><time>2026-04-26T15:23:35Z</time></trkpt><trkpt lat="1.2170203618395832" lon="-76.67862349180548"><ele>851.3333333333333</ele><time>2026-04-26T15:23:39Z</time></trkpt><trkpt lat="1.2170397368377643" lon="-76.67870460731314"><ele>852.5</ele><time>2026-04-26T15:23:49Z</time></trkpt><trkpt lat="1.2170117137759842" lon="-76.67877363265349"><ele>853.6666666666666</ele><time>2026-04-26T15:23:52Z</time></trkpt><trkpt lat="1.2169620007955502" lon="-76.67883813526798"><ele>854.8333333333333</ele><time>2026-04-26T15:23:54Z</time></trkpt><trkpt lat="1.2169309823712504" lon="-76.67889390664597"><ele>856.0</ele><time>2026-04-26T15:23:57Z</time></trkpt><trkpt lat="1.2169066252917582" lon="-76.67898505575978"><ele>855.9999999999999</ele><time>2026-04-26T15:24:00Z</time></trkpt><trkpt lat="1.216853177060471" lon="-76.67904503377372"><ele>856.0</ele><time>2026-04-26T15:24:14Z</time></trkpt><trkpt lat="1.2168027675531945" lon="-76.67908719526281"><ele>856.0</ele><time>2026-04-26T15:24:19Z</time></trkpt><trkpt lat="1.2168695147403803" lon="-76.67902166488457"><ele>856.0</ele><time>2026-04-26T15:25:05Z</time></trkpt><trkpt lat="1.2168244740770162" lon="-76.67907087205216"><ele>855.9999999999999</ele><time>2026-04-26T15:25:20Z</time></trkpt><trkpt lat="1.2167868061223934" lon="-76.67917203922076"><ele>856.0</ele><time>2026-04-26T15:25:48Z</time></trkpt><trkpt lat="1.2167934411055332" lon="-76.67927268633213"><ele>855.9999999999999</ele><time>2026-04-26T15:25:50Z</time></trkpt><trkpt lat="1.2167949104918492" lon="-76.67937921257402"><ele>856.0</ele><time>2026-04-26T15:25:52Z</time></trkpt><trkpt lat="1.2168498284696987" lon="-76.67947168589252"><ele>856.0</ele><time>2026-04-26T15:25:54Z</time></trkpt><trkpt lat="1.2168637253377876" lon="-76.67955226728145"><ele>856.0</ele><time>2026-04-26T15:25:56Z</time></trkpt><trkpt lat="1.2168750161528699" lon="-76.67963237608798"><ele>855.9999999999999</ele><time>2026-04-26T15:25:58Z</time></trkpt><trkpt lat="1.216881597623377" lon="-76.67969972898581"><ele>856.0</ele><time>2026-04-26T15:26:00Z</time></trkpt><trkpt lat="1.2169033496997488" lon="-76.6797722809849"><ele>857.8333333333333</ele><time>2026-04-26T15:26:02Z</time></trkpt><trkpt lat="1.2169223372704834" lon="-76.67983788215443"><ele>859.6666666666666</ele><time>2026-04-26T15:26:04Z</time></trkpt><trkpt lat="1.2169458578932866" lon="-76.67990151346552"><ele>861.5</ele><time>2026-04-26T15:26:06Z</time></trkpt><trkpt lat="1.2169647517054276" lon="-76.67999381360747"><ele>863.3333333333333</ele><time>2026-04-26T15:26:09Z</time></trkpt><trkpt lat="1.2170201699573215" lon="-76.68006093105933"><ele>865.1666666666666</ele><time>2026-04-26T15:26:11Z</time></trkpt><trkpt lat="1.2170745610077425" lon="-76.68010363134965"><ele>867.0</ele><time>2026-04-26T15:26:12Z</time></trkpt><trkpt lat="1.2171239891566954" lon="-76.68018127371444"><ele>867.0</ele><time>2026-04-26T15:26:14Z</time></trkpt><trkpt lat="1.2171676068678396" lon="-76.68024302746244"><ele>867.0</ele><time>2026-04-26T15:26:36Z</time></trkpt><trkpt lat="1.2171207098076913" lon="-76.68033552386817"><ele>867.0</ele><time>2026-04-26T15:26:41Z</time></trkpt><trkpt lat="1.2170766561296502" lon="-76.68038428851692"><ele>867.0</ele><time>2026-04-26T15:26:43Z</time></trkpt><trkpt lat="1.2170133092606121" lon="-76.68045042148526"><ele>867.0</ele><time>2026-04-26T15:26:46Z</time></trkpt><trkpt lat="1.217062828481394" lon="-76.68051155860057"><ele>867.0</ele><time>2026-04-26T15:26:50Z</time></trkpt><trkpt lat="1.2171167469709532" lon="-76.6805554844276"><ele>868.1428571428571</ele><time>2026-04-26T15:26:53Z</time></trkpt><trkpt lat="1.2171707732811028" lon="-76.6805937045172"><ele>869.2857142857143</ele><time>2026-04-26T15:26:56Z</time></trkpt><trkpt lat="1.2172096100837877" lon="-76.68066248293461"><ele>870.4285714285714</ele><time>2026-04-26T15:27:32Z</time></trkpt><trkpt lat="1.217257761559118" lon="-76.68071347410948"><ele>871.5714285714286</ele><time>2026-04-26T15:29:38Z</time></trkpt><trkpt lat="1.2172938890798428" lon="-76.6807713785639"><ele>872.7142857142858</ele><time>2026-04-26T15:29:40Z</time></trkpt><trkpt lat="1.217355501603044" lon="-76.68082571737777"><ele>873.8571428571429</ele><time>2026-04-26T15:29:42Z</time></trkpt><trkpt lat="1.217386539562577" lon="-76.68089186972948"><ele>875.0</ele><time>2026-04-26T15:29:44Z</time></trkpt><trkpt lat="1.2174285377240028" lon="-76.68095296242292"><ele>875.5714285714286</ele><time>2026-04-26T15:29:47Z</time></trkpt><trkpt lat="1.21748661598838" lon="-76.68101601809627"><ele>876.1428571428571</ele><time>2026-04-26T15:29:50Z</time></trkpt><trkpt lat="1.2175296263362132" lon="-76.68108396578661"><ele>876.7142857142858</ele><time>2026-04-26T15:29:52Z</time></trkpt><trkpt lat="1.217547387900506" lon="-76.68116180247641"><ele>877.2857142857142</ele><time>2026-04-26T15:29:55Z</time></trkpt><trkpt lat="1.217581383963972" lon="-76.68121986933494"><ele>877.8571428571429</ele><time>2026-04-26T15:29:57Z</time></trkpt><trkpt lat="1.2176261622993405" lon="-76.68126435847131"><ele>878.4285714285714</ele><time>2026-04-26T15:29:59Z</time></trkpt><trkpt lat="1.2176538386171927" lon="-76.68132678851286"><ele>879.0</ele><time>2026-04-26T15:30:01Z</time></trkpt><trkpt lat="1.2176992037743657" lon="-76.68140915370016"><ele>880.6666666666666</ele><time>2026-04-26T15:30:04Z</time></trkpt><trkpt lat="1.2177375682814908" lon="-76.68146559540236"><ele>882.3333333333333</ele><time>2026-04-26T15:30:06Z</time></trkpt><trkpt lat="1.2177668997445077" lon="-76.68154104419247"><ele>884.0</ele><time>2026-04-26T15:30:08Z</time></trkpt><trkpt lat="1.2178075256637122" lon="-76.68161419405696"><ele>885.6666666666666</ele><time>2026-04-26T15:30:12Z</time></trkpt><trkpt lat="1.2178488804899708" lon="-76.68168511219632"><ele>887.3333333333333</ele><time>2026-04-26T15:30:14Z</time></trkpt><trkpt lat="1.2179049514567257" lon="-76.68177657773934"><ele>889.0</ele><time>2026-04-26T15:30:16Z</time></trkpt><trkpt lat="1.2179532385531693" lon="-76.68183301316895"><ele>888.9999999999999</ele><time>2026-04-26T15:30:17Z</time></trkpt><trkpt lat="1.2180119822163649" lon="-76.68190785705335"><ele>889.0</ele><time>2026-04-26T15:30:19Z</time></trkpt><trkpt lat="1.2180782121360783" lon="-76.68196306117694"><ele>889.0</ele><time>2026-04-26T15:30:21Z</time></trkpt><trkpt lat="1.2181546237698344" lon="-76.68199605429399"><ele>889.0</ele><time>2026-04-26T15:30:23Z</time></trkpt><trkpt lat="1.218196500034289" lon="-76.68206709755547"><ele>888.9999999999999</ele><time>2026-04-26T15:30:25Z</time></trkpt><trkpt lat="1.2181853479017573" lon="-76.6821418800281"><ele>889.0</ele><time>2026-04-26T15:30:27Z</time></trkpt><trkpt lat="1.2181667556004885" lon="-76.6822111265684"><ele>893.4285714285714</ele><time>2026-04-26T15:30:29Z</time></trkpt><trkpt lat="1.218179439712984" lon="-76.68227487544029"><ele>897.8571428571429</ele><time>2026-04-26T15:30:32Z</time></trkpt><trkpt lat="1.2182393158862048" lon="-76.68223031109883"><ele>902.2857142857142</ele><time>2026-04-26T15:31:10Z</time></trkpt><trkpt lat="1.2183073862120422" lon="-76.68219515287699"><ele>906.7142857142857</ele><time>2026-04-26T15:31:32Z</time></trkpt><trkpt lat="1.2183868239912405" lon="-76.68222282890841"><ele>911.1428571428571</ele><time>2026-04-26T15:32:34Z</time></trkpt><trkpt lat="1.2184153721096747" lon="-76.68228243526625"><ele>915.5714285714284</ele><time>2026-04-26T15:32:40Z</time></trkpt><trkpt lat="1.2183866144726287" lon="-76.68234990638176"><ele>919.9999999999999</ele><time>2026-04-26T15:32:44Z</time></trkpt><trkpt lat="1.2183861090501293" lon="-76.68243820769888"><ele>919.9999999999999</ele><time>2026-04-26T15:32:55Z</time></trkpt><trkpt lat="1.2184184373423823" lon="-76.68251862307788"><ele>920.0</ele><time>2026-04-26T15:32:59Z</time></trkpt><trkpt lat="1.2184836302914714" lon="-76.68248766684603"><ele>919.9999999999999</ele><time>2026-04-26T15:33:03Z</time></trkpt><trkpt lat="1.2185507396704363" lon="-76.6824662359327"><ele>919.9999999999999</ele><time>2026-04-26T15:33:06Z</time></trkpt><trkpt lat="1.2186240844594907" lon="-76.6824428581235"><ele>920.0</ele><time>2026-04-26T15:33:08Z</time></trkpt><trkpt lat="1.2186782929484725" lon="-76.68240463386621"><ele>919.9999999999999</ele><time>2026-04-26T15:33:12Z</time></trkpt><trkpt lat="1.2187525714574952" lon="-76.68239333105137"><ele>919.9999999999999</ele><time>2026-04-26T15:33:15Z</time></trkpt><trkpt lat="1.2188163533528455" lon="-76.6824520725492"><ele>920.0000000000001</ele><time>2026-04-26T15:33:18Z</time></trkpt><trkpt lat="1.2188740990392448" lon="-76.6824792389491"><ele>920.0</ele><time>2026-04-26T15:33:20Z</time></trkpt><trkpt lat="1.2189107340002796" lon="-76.6825345384693"><ele>920.0</ele><time>2026-04-26T15:33:26Z</time></trkpt><trkpt lat="1.2190081404840996" lon="-76.68257194445798"><ele>920.0</ele><time>2026-04-26T15:33:54Z</time></trkpt><trkpt lat="1.2189347135109658" lon="-76.68259814066843"><ele>920.0000000000001</ele><time>2026-04-26T15:33:58Z</time></trkpt><trkpt lat="1.2188579115740032" lon="-76.68260707916573"><ele>920.0</ele><time>2026-04-26T15:34:39Z</time></trkpt><trkpt lat="1.218840675560298" lon="-76.68267240789596"><ele>919.9999999999999</ele><time>2026-04-26T15:36:34Z</time></trkpt><trkpt lat="1.21888095464568" lon="-76.68262352117992"><ele>920.0</ele><time>2026-04-26T15:38:19Z</time></trkpt><trkpt lat="1.2188267053548614" lon="-76.68265786005992"><ele>919.9999999999999</ele><time>2026-04-26T15:39:06Z</time></trkpt><trkpt lat="1.218836464790429" lon="-76.6827301475304"><ele>919.9999999999999</ele><time>2026-04-26T15:42:18Z</time></trkpt><trkpt lat="1.2188969958810312" lon="-76.68269687072089"><ele>920.0</ele><time>2026-04-26T15:42:21Z</time></trkpt><trkpt lat="1.2189489761308219" lon="-76.68274382290409"><ele>919.9999999999999</ele><time>2026-04-26T15:42:25Z</time></trkpt><trkpt lat="1.2189642780430743" lon="-76.68280943145741"><ele>919.9999999999999</ele><time>2026-04-26T15:42:28Z</time></trkpt><trkpt lat="1.219000349794591" lon="-76.68288310539842"><ele>926.8333333333334</ele><time>2026-04-26T15:42:31Z</time></trkpt><trkpt lat="1.219008412555622" lon="-76.68296952838506"><ele>933.6666666666667</ele><time>2026-04-26T15:42:34Z</time></trkpt><trkpt lat="1.2190659235528114" lon="-76.68303849237488"><ele>940.5</ele><time>2026-04-26T15:42:37Z</time></trkpt><trkpt lat="1.219124971872802" lon="-76.68306693152854"><ele>947.3333333333333</ele><time>2026-04-26T15:42:54.001Z</time></trkpt><trkpt lat="1.2191654544446096" lon="-76.68301408602785"><ele>954.1666666666666</ele><time>2026-04-26T15:42:57.001Z</time></trkpt><trkpt lat="1.2192309644120993" lon="-76.68298167693351"><ele>961.0</ele><time>2026-04-26T15:42:59.001Z</time></trkpt><trkpt lat="1.2192891628582934" lon="-76.68302443397873"><ele>960.9999999999999</ele><time>2026-04-26T15:43:01.001Z</time></trkpt><trkpt lat="1.2193007048346236" lon="-76.68310726454308"><ele>961.0</ele><time>2026-04-26T15:43:03.001Z</time></trkpt><trkpt lat="1.2193212874710193" lon="-76.6831735808829"><ele>961.0</ele><time>2026-04-26T15:43:05Z</time></trkpt><trkpt lat="1.2194121965841571" lon="-76.68321108598606"><ele>961.0</ele><time>2026-04-26T15:43:08Z</time></trkpt><trkpt lat="1.2194795775003897" lon="-76.68321215459741"><ele>960.9999999999999</ele><time>2026-04-26T15:43:10Z</time></trkpt><trkpt lat="1.219514253964193" lon="-76.68326516849567"><ele>961.0</ele><time>2026-04-26T15:43:11Z</time></trkpt><trkpt lat="1.219529044722968" lon="-76.6833409163882"><ele>960.9999999999999</ele><time>2026-04-26T15:43:13Z</time></trkpt><trkpt lat="1.2195562047977755" lon="-76.68342147048982"><ele>961.0</ele><time>2026-04-26T15:43:15Z</time></trkpt><trkpt lat="1.2195658775061622" lon="-76.68333486676805"><ele>961.0</ele><time>2026-04-26T15:43:27Z</time></trkpt><trkpt lat="1.2195461522139013" lon="-76.68326026530205"><ele>961.0</ele><time>2026-04-26T15:43:30Z</time></trkpt><trkpt lat="1.2194953006264682" lon="-76.68319674496902"><ele>960.9999999999999</ele><time>2026-04-26T15:43:32Z</time></trkpt><trkpt lat="1.2194786477241666" lon="-76.68311129247202"><ele>961.0</ele><time>2026-04-26T15:43:34Z</time></trkpt><trkpt lat="1.2194978220100916" lon="-76.68304234937523"><ele>960.9999999999999</ele><time>2026-04-26T15:43:37Z</time></trkpt><trkpt lat="1.2195752178057109" lon="-76.68300745427707"><ele>961.0</ele><time>2026-04-26T15:43:42Z</time></trkpt><trkpt lat="1.219641893413491" lon="-76.68298655583811"><ele>961.0</ele><time>2026-04-26T15:43:48Z</time></trkpt><trkpt lat="1.2197003391399523" lon="-76.68301321742545"><ele>961.0</ele><time>2026-04-26T15:43:55Z</time></trkpt><trkpt lat="1.219765483481407" lon="-76.6830419974918"><ele>960.9999999999999</ele><time>2026-04-26T15:43:59Z</time></trkpt><trkpt lat="1.219872196326151" lon="-76.68304826023139"><ele>961.0</ele><time>2026-04-26T15:44:02Z</time></trkpt><trkpt lat="1.2199561821153415" lon="-76.68306436060556"><ele>969.0</ele><time>2026-04-26T15:44:05Z</time></trkpt><trkpt lat="1.2200167892143652" lon="-76.68309193426194"><ele>976.9999999999999</ele><time>2026-04-26T15:44:08Z</time></trkpt><trkpt lat="1.220078158188785" lon="-76.68312452014818"><ele>985.0</ele><time>2026-04-26T15:44:15Z</time></trkpt><trkpt lat="1.2201123551503836" lon="-76.68320065585849"><ele>993.0</ele><time>2026-04-26T15:44:26Z</time></trkpt><trkpt lat="1.2201705203787903" lon="-76.68323282377743"><ele>1000.9999999999999</ele><time>2026-04-26T15:44:29Z</time></trkpt><trkpt lat="1.2202499389748223" lon="-76.68321169239609"><ele>1009.0</ele><time>2026-04-26T15:44:32Z</time></trkpt><trkpt lat="1.220307319512394" lon="-76.68325211517508"><ele>1017.0</ele><time>2026-04-26T15:44:34Z</time></trkpt><trkpt lat="1.2204182641217458" lon="-76.68322281739447"><ele>1017.0</ele><time>2026-04-26T15:44:38Z</time></trkpt><trkpt lat="1.2204800012365649" lon="-76.68324220562873"><ele>1017.0</ele><time>2026-04-26T15:44:40Z</time></trkpt><trkpt lat="1.2205328976750285" lon="-76.68327933830443"><ele>1017.0</ele><time>2026-04-26T15:44:42Z</time></trkpt><trkpt lat="1.2206198139511886" lon="-76.68327366001004"><ele>1017.0</ele><time>2026-04-26T15:44:47Z</time></trkpt><trkpt lat="1.2207004041577159" lon="-76.6832595163803"><ele>1017.0</ele><time>2026-04-26T15:44:51Z</time></trkpt><trkpt lat="1.2207742537248116" lon="-76.6832585878605"><ele>1017.0</ele><time>2026-04-26T15:44:53Z</time></trkpt><trkpt lat="1.2208576134840572" lon="-76.68322143821432"><ele>1021.6666666666666</ele><time>2026-04-26T15:44:55Z</time></trkpt><trkpt lat="1.220955799533876" lon="-76.68321963784234"><ele>1026.3333333333333</ele><time>2026-04-26T15:44:58Z</time></trkpt><trkpt lat="1.221027931144244" lon="-76.68322521422898"><ele>1031.0</ele><time>2026-04-26T15:45:00.001Z</time></trkpt><trkpt lat="1.2210082123621635" lon="-76.68330590632746"><ele>1035.6666666666665</ele><time>2026-04-26T15:45:03.001Z</time></trkpt><trkpt lat="1.2210338827973262" lon="-76.68338404942055"><ele>1040.3333333333333</ele><time>2026-04-26T15:45:06.001Z</time></trkpt><trkpt lat="1.2209985918715698" lon="-76.68344388899469"><ele>1045.0</ele><time>2026-04-26T15:45:12Z</time></trkpt><trkpt lat="1.2208782697915375" lon="-76.68342943985861"><ele>1045.0</ele><time>2026-04-26T15:50:16Z</time></trkpt><trkpt lat="1.220926445275477" lon="-76.68347271776507"><ele>1045.0</ele><time>2026-04-26T15:51:49Z</time></trkpt><trkpt lat="1.2209889166815455" lon="-76.68350804301421"><ele>1045.0</ele><time>2026-04-26T15:52:22Z</time></trkpt><trkpt lat="1.221055683509611" lon="-76.68350727688544"><ele>1045.0</ele><time>2026-04-26T15:52:27Z</time></trkpt><trkpt lat="1.2211181008458671" lon="-76.68351696814352"><ele>1045.0</ele><time>2026-04-26T15:52:32Z</time></trkpt><trkpt lat="1.2211491598367485" lon="-76.68357630536035"><ele>1045.0</ele><time>2026-04-26T15:52:35Z</time></trkpt><trkpt lat="1.221210342318785" lon="-76.68359382537552"><ele>1045.0</ele><time>2026-04-26T15:52:39Z</time></trkpt><trkpt lat="1.2212704348869157" lon="-76.68357421956348"><ele>1045.0</ele><time>2026-04-26T15:52:42Z</time></trkpt><trkpt lat="1.2213414820860011" lon="-76.68358024363764"><ele>1045.0</ele><time>2026-04-26T15:52:45Z</time></trkpt><trkpt lat="1.2214004812596186" lon="-76.68355720348458"><ele>1045.0</ele><time>2026-04-26T15:52:48Z</time></trkpt><trkpt lat="1.2214925285997247" lon="-76.68352958550662"><ele>1045.0</ele><time>2026-04-26T15:52:51Z</time></trkpt><trkpt lat="1.2215743909444787" lon="-76.68354448410552"><ele>1045.0</ele><time>2026-04-26T15:52:56Z</time></trkpt><trkpt lat="1.2216377976211406" lon="-76.68356413332702"><ele>1045.0</ele><time>2026-04-26T15:52:58Z</time></trkpt><trkpt lat="1.2217038194388294" lon="-76.6835885764632"><ele>1049.6666666666665</ele><time>2026-04-26T15:53:00Z</time></trkpt><trkpt lat="1.2217615750589668" lon="-76.68362145278772"><ele>1054.3333333333333</ele><time>2026-04-26T15:53:02Z</time></trkpt><trkpt lat="1.2218164532516498" lon="-76.68367471795072"><ele>1059.0</ele><time>2026-04-26T15:53:04Z</time></trkpt><trkpt lat="1.2218851552352632" lon="-76.68369155490902"><ele>1063.6666666666667</ele><time>2026-04-26T15:53:07Z</time></trkpt><trkpt lat="1.2219799600662298" lon="-76.68371142001101"><ele>1068.3333333333335</ele><time>2026-04-26T15:53:10Z</time></trkpt><trkpt lat="1.2220482421381584" lon="-76.68371753183565"><ele>1073.0</ele><time>2026-04-26T15:53:14Z</time></trkpt><trkpt lat="1.222119436247631" lon="-76.68370537401493"><ele>1073.0</ele><time>2026-04-26T15:53:41.001Z</time></trkpt><trkpt lat="1.2221691475492293" lon="-76.68376217052084"><ele>1073.0</ele><time>2026-04-26T15:53:44Z</time></trkpt><trkpt lat="1.2222132297515405" lon="-76.68383113027457"><ele>1073.0</ele><time>2026-04-26T15:53:56Z</time></trkpt><trkpt lat="1.2222569341857323" lon="-76.6838822952318"><ele>1073.0</ele><time>2026-04-26T15:55:04.999Z</time></trkpt><trkpt lat="1.222308469020797" lon="-76.68393311534157"><ele>1073.0</ele><time>2026-04-26T15:55:07.999Z</time></trkpt><trkpt lat="1.2223625903240218" lon="-76.68400781078716"><ele>1073.0</ele><time>2026-04-26T15:55:10.999Z</time></trkpt><trkpt lat="1.222398870576252" lon="-76.68406722297924"><ele>1079.0</ele><time>2026-04-26T15:55:13.999Z</time></trkpt><trkpt lat="1.2223837942504787" lon="-76.68414176169156"><ele>1085.0</ele><time>2026-04-26T15:55:17.999Z</time></trkpt><trkpt lat="1.222360224154747" lon="-76.68420064917369"><ele>1091.0</ele><time>2026-04-26T15:55:19.999Z</time></trkpt><trkpt lat="1.2224273919893667" lon="-76.68419521184177"><ele>1097.0</ele><time>2026-04-26T15:55:42.999Z</time></trkpt><trkpt lat="1.2224975388702986" lon="-76.6841816844007"><ele>1103.0</ele><time>2026-04-26T15:55:48.999Z</time></trkpt><trkpt lat="1.222506666856234" lon="-76.68411354118406"><ele>1109.0</ele><time>2026-04-26T15:56:10.999Z</time></trkpt><trkpt lat="1.2225795178714023" lon="-76.68409071980317"><ele>1115.0</ele><time>2026-04-26T16:09:24.999Z</time></trkpt><trkpt lat="1.2226267446585888" lon="-76.68413350695968"><ele>1115.0</ele><time>2026-04-26T16:09:50.999Z</time></trkpt><trkpt lat="1.2225313292346653" lon="-76.6840976590201"><ele>1115.0</ele><time>2026-04-26T16:14:24Z</time></trkpt><trkpt lat="1.2226207564647213" lon="-76.68409237258646"><ele>1115.0</ele><time>2026-04-26T16:14:54Z</time></trkpt><trkpt lat="1.2227035549568204" lon="-76.68409099761116"><ele>1115.0</ele><time>2026-04-26T16:17:17Z</time></trkpt><trkpt lat="1.2227228237600976" lon="-76.6841557906264"><ele>1115.0</ele><time>2026-04-26T16:17:34Z</time></trkpt><trkpt lat="1.222797430198649" lon="-76.68418409450501"><ele>1115.0</ele><time>2026-04-26T16:17:38Z</time></trkpt><trkpt lat="1.2228667326926603" lon="-76.68418630329212"><ele>1115.0</ele><time>2026-04-26T16:17:40.999Z</time></trkpt><trkpt lat="1.2229317244470779" lon="-76.68421646710534"><ele>1115.0</ele><time>2026-04-26T16:17:42.999Z</time></trkpt><trkpt lat="1.2229917087164224" lon="-76.68424699363148"><ele>1115.0</ele><time>2026-04-26T16:17:44.999Z</time></trkpt><trkpt lat="1.2230469396792998" lon="-76.6842908994944"><ele>1115.0</ele><time>2026-04-26T16:17:47.999Z</time></trkpt><trkpt lat="1.2231099282033802" lon="-76.6842892103224"><ele>1115.0</ele><time>2026-04-26T16:17:51.999Z</time></trkpt><trkpt lat="1.2230524465756574" lon="-76.68426106246879"><ele>1115.0</ele><time>2026-04-26T16:32:46Z</time></trkpt><trkpt lat="1.2231221813720339" lon="-76.68428275591833"><ele>1115.0</ele><time>2026-04-26T16:35:07.001Z</time></trkpt><trkpt lat="1.2231689248919322" lon="-76.68435794739342"><ele>1115.0</ele><time>2026-04-26T16:37:00.001Z</time></trkpt><trkpt lat="1.2232358051332388" lon="-76.68434231082854"><ele>1115.0</ele><time>2026-04-26T16:37:07.001Z</time></trkpt><trkpt lat="1.2231859426648386" lon="-76.68439120661297"><ele>1115.0</ele><time>2026-04-26T16:37:13.001Z</time></trkpt><trkpt lat="1.2231482139002108" lon="-76.68433643560908"><ele>1115.0</ele><time>2026-04-26T16:37:43.001Z</time></trkpt><trkpt lat="1.2230947392879126" lon="-76.68429225485959"><ele>1115.0</ele><time>2026-04-26T16:42:29.001Z</time></trkpt><trkpt lat="1.2230321896503873" lon="-76.68427189173013"><ele>1115.0</ele><time>2026-04-26T16:56:39Z</time></trkpt><trkpt lat="1.222962818970384" lon="-76.68425474412342"><ele>1115.0</ele><time>2026-04-26T16:56:42.999Z</time></trkpt><trkpt lat="1.2228869306479833" lon="-76.68424007692461"><ele>1115.0</ele><time>2026-04-26T16:56:46.999Z</time></trkpt><trkpt lat="1.2228355162879019" lon="-76.68418663892116"><ele>1115.0</ele><time>2026-04-26T16:56:51.999Z</time></trkpt><trkpt lat="1.222778321328481" lon="-76.68414871304195"><ele>1115.0</ele><time>2026-04-26T16:56:54.999Z</time></trkpt><trkpt lat="1.2227407999881845" lon="-76.68409686217728"><ele>1115.0</ele><time>2026-04-26T16:56:58.999Z</time></trkpt><trkpt lat="1.2226633279003292" lon="-76.68408564263542"><ele>1115.0</ele><time>2026-04-26T16:57:01.999Z</time></trkpt><trkpt lat="1.2225965952619338" lon="-76.6840773195417"><ele>1115.0</ele><time>2026-04-26T16:57:03.999Z</time></trkpt><trkpt lat="1.2225314159159923" lon="-76.68408681999988"><ele>1115.0</ele><time>2026-04-26T16:57:10.999Z</time></trkpt><trkpt lat="1.2224955083036084" lon="-76.68414406908902"><ele>1115.0</ele><time>2026-04-26T16:57:27.999Z</time></trkpt><trkpt lat="1.2224151522827658" lon="-76.68416800409757"><ele>1115.0</ele><time>2026-04-26T16:57:57.999Z</time></trkpt><trkpt lat="1.2223671783515553" lon="-76.68410036288172"><ele>1115.0</ele><time>2026-04-26T16:58:58Z</time></trkpt><trkpt lat="1.2223571432042954" lon="-76.6840373169016"><ele>1115.0</ele><time>2026-04-26T16:59:02.999Z</time></trkpt><trkpt lat="1.2223165175617297" lon="-76.68398474996495"><ele>1115.0</ele><time>2026-04-26T16:59:07.999Z</time></trkpt><trkpt lat="1.22226702416148" lon="-76.68391555806286"><ele>1115.0</ele><time>2026-04-26T16:59:14.999Z</time></trkpt><trkpt lat="1.222223616457827" lon="-76.68386686302955"><ele>1115.0</ele><time>2026-04-26T16:59:17.999Z</time></trkpt><trkpt lat="1.2221736676568482" lon="-76.68381431657379"><ele>1109.0</ele><time>2026-04-26T16:59:23.999Z</time></trkpt><trkpt lat="1.2221302664785856" lon="-76.68375816368712"><ele>1103.0</ele><time>2026-04-26T16:59:33.999Z</time></trkpt><trkpt lat="1.2220752102305197" lon="-76.68372666300279"><ele>1097.0</ele><time>2026-04-26T16:59:40.999Z</time></trkpt><trkpt lat="1.222000348139849" lon="-76.68371406601518"><ele>1091.0</ele><time>2026-04-26T16:59:46.999Z</time></trkpt><trkpt lat="1.2219410684929672" lon="-76.68364947082917"><ele>1085.0</ele><time>2026-04-26T16:59:52.999Z</time></trkpt><trkpt lat="1.2218654421255954" lon="-76.68362166301105"><ele>1079.0</ele><time>2026-04-26T16:59:57.999Z</time></trkpt><trkpt lat="1.2218007331025422" lon="-76.68359385581356"><ele>1073.0</ele><time>2026-04-26T17:00:18.999Z</time></trkpt><trkpt lat="1.2217155877090602" lon="-76.68360189838256"><ele>1073.0</ele><time>2026-04-26T17:00:22.999Z</time></trkpt><trkpt lat="1.2216293847122248" lon="-76.68360981353814"><ele>1073.0</ele><time>2026-04-26T17:00:25.999Z</time></trkpt><trkpt lat="1.2215481791033136" lon="-76.68359566296539"><ele>1073.0</ele><time>2026-04-26T17:00:27.999Z</time></trkpt><trkpt lat="1.221460797347177" lon="-76.68361138661814"><ele>1073.0</ele><time>2026-04-26T17:00:29.999Z</time></trkpt><trkpt lat="1.2213765858619052" lon="-76.6836103247901"><ele>1073.0</ele><time>2026-04-26T17:00:33Z</time></trkpt><trkpt lat="1.221313275515601" lon="-76.68357162847192"><ele>1073.0</ele><time>2026-04-26T17:00:36Z</time></trkpt><trkpt lat="1.2212419689413536" lon="-76.68359794704726"><ele>1069.0</ele><time>2026-04-26T17:00:38Z</time></trkpt><trkpt lat="1.2211828458150353" lon="-76.68357572368386"><ele>1065.0</ele><time>2026-04-26T17:00:41Z</time></trkpt><trkpt lat="1.2211430817165854" lon="-76.68351641998565"><ele>1061.0</ele><time>2026-04-26T17:00:44Z</time></trkpt><trkpt lat="1.2210795179663696" lon="-76.68352284405977"><ele>1057.0</ele><time>2026-04-26T17:00:50Z</time></trkpt><trkpt lat="1.2209996052800258" lon="-76.68351847258538"><ele>1053.0</ele><time>2026-04-26T17:00:53Z</time></trkpt><trkpt lat="1.2209336207820296" lon="-76.68348910600794"><ele>1049.0</ele><time>2026-04-26T17:00:56Z</time></trkpt><trkpt lat="1.220925481313226" lon="-76.68341627675765"><ele>1045.0</ele><time>2026-04-26T17:01:07Z</time></trkpt><trkpt lat="1.2208740937636164" lon="-76.68335760009428"><ele>1045.0</ele><time>2026-04-26T17:01:11Z</time></trkpt><trkpt lat="1.2208042818137477" lon="-76.68335002090826"><ele>1045.0</ele><time>2026-04-26T17:01:15Z</time></trkpt><trkpt lat="1.2207341077532154" lon="-76.68335751153634"><ele>1045.0</ele><time>2026-04-26T17:01:19.999Z</time></trkpt><trkpt lat="1.2206641902788982" lon="-76.68333852471903"><ele>1045.0</ele><time>2026-04-26T17:01:25.999Z</time></trkpt><trkpt lat="1.2205960084851524" lon="-76.68330646641164"><ele>1045.0</ele><time>2026-04-26T17:01:30.999Z</time></trkpt><trkpt lat="1.2205199073133766" lon="-76.68329068292881"><ele>1045.0</ele><time>2026-04-26T17:01:33.999Z</time></trkpt><trkpt lat="1.220433486738108" lon="-76.68325058221843"><ele>1040.3333333333333</ele><time>2026-04-26T17:01:36.999Z</time></trkpt><trkpt lat="1.2203741502176777" lon="-76.68321543534107"><ele>1035.6666666666665</ele><time>2026-04-26T17:01:39.999Z</time></trkpt><trkpt lat="1.220281828263499" lon="-76.68322709433009"><ele>1031.0</ele><time>2026-04-26T17:01:41.999Z</time></trkpt><trkpt lat="1.2201968516542159" lon="-76.68323165570897"><ele>1026.3333333333333</ele><time>2026-04-26T17:01:43.999Z</time></trkpt><trkpt lat="1.2201491852176145" lon="-76.68318690941999"><ele>1021.6666666666666</ele><time>2026-04-26T17:01:48.999Z</time></trkpt><trkpt lat="1.2200740590525727" lon="-76.68319225202806"><ele>1017.0</ele><time>2026-04-26T17:01:57.999Z</time></trkpt><trkpt lat="1.2200222150412885" lon="-76.68315514446543"><ele>1017.0</ele><time>2026-04-26T17:02:01.999Z</time></trkpt><trkpt lat="1.2199636915593493" lon="-76.68309238297907"><ele>1017.0</ele><time>2026-04-26T17:02:04.999Z</time></trkpt><trkpt lat="1.2198676982114869" lon="-76.68308025886708"><ele>1017.0</ele><time>2026-04-26T17:02:09.999Z</time></trkpt><trkpt lat="1.219803789355845" lon="-76.68309132976684"><ele>1017.0</ele><time>2026-04-26T17:02:14.999Z</time></trkpt><trkpt lat="1.2197547291076862" lon="-76.68316172892196"><ele>1017.0</ele><time>2026-04-26T17:02:21.999Z</time></trkpt><trkpt lat="1.2197078365275285" lon="-76.68321182165874"><ele>1017.0</ele><time>2026-04-26T17:02:22.999Z</time></trkpt><trkpt lat="1.2196209039266113" lon="-76.68318389229862"><ele>1007.6666666666666</ele><time>2026-04-26T17:02:29.999Z</time></trkpt><trkpt lat="1.2195312259337998" lon="-76.68314965991773"><ele>998.3333333333333</ele><time>2026-04-26T17:02:33.999Z</time></trkpt><trkpt lat="1.2194539554542443" lon="-76.68310605502056"><ele>989.0</ele><time>2026-04-26T17:02:35.999Z</time></trkpt><trkpt lat="1.2193737308079329" lon="-76.68306628077526"><ele>979.6666666666666</ele><time>2026-04-26T17:02:38Z</time></trkpt><trkpt lat="1.219318640739774" lon="-76.68302392319794"><ele>970.3333333333333</ele><time>2026-04-26T17:02:41Z</time></trkpt><trkpt lat="1.2192639064344966" lon="-76.68297850854606"><ele>961.0</ele><time>2026-04-26T17:02:44Z</time></trkpt><trkpt lat="1.2191843092932966" lon="-76.68300975481728"><ele>960.9999999999999</ele><time>2026-04-26T17:02:49Z</time></trkpt><trkpt lat="1.2190756284168784" lon="-76.6830279227894"><ele>961.0</ele><time>2026-04-26T17:02:51Z</time></trkpt><trkpt lat="1.2190261005313925" lon="-76.6829762971822"><ele>961.0</ele><time>2026-04-26T17:02:54Z</time></trkpt><trkpt lat="1.2189994887283917" lon="-76.6829145368954"><ele>961.0</ele><time>2026-04-26T17:02:58Z</time></trkpt><trkpt lat="1.2189575617625639" lon="-76.68286021078683"><ele>960.9999999999999</ele><time>2026-04-26T17:03:01Z</time></trkpt><trkpt lat="1.2190171639401457" lon="-76.68282366996935"><ele>961.0</ele><time>2026-04-26T17:03:06Z</time></trkpt><trkpt lat="1.218911016164061" lon="-76.68281338304222"><ele>955.1428571428571</ele><time>2026-04-26T17:03:10Z</time></trkpt><trkpt lat="1.2188406125700817" lon="-76.68278885204703"><ele>949.2857142857142</ele><time>2026-04-26T17:03:12Z</time></trkpt><trkpt lat="1.2187950450580218" lon="-76.68273908874427"><ele>943.4285714285713</ele><time>2026-04-26T17:03:13Z</time></trkpt><trkpt lat="1.218821170615811" lon="-76.68266005319344"><ele>937.5714285714284</ele><time>2026-04-26T17:03:55.999Z</time></trkpt><trkpt lat="1.2188680248606298" lon="-76.682607816083"><ele>931.7142857142857</ele><time>2026-04-26T17:04:01.999Z</time></trkpt><trkpt lat="1.218926341785402" lon="-76.68258108252098"><ele>925.8571428571427</ele><time>2026-04-26T17:04:05.999Z</time></trkpt><trkpt lat="1.2189364215463079" lon="-76.6825173019388"><ele>919.9999999999999</ele><time>2026-04-26T17:04:09.999Z</time></trkpt><trkpt lat="1.2188840772812186" lon="-76.68245576172755"><ele>920.0000000000001</ele><time>2026-04-26T17:04:16.999Z</time></trkpt><trkpt lat="1.218806826732965" lon="-76.68244948770486"><ele>920.0</ele><time>2026-04-26T17:04:25.999Z</time></trkpt><trkpt lat="1.2187367506812632" lon="-76.68242407087129"><ele>920.0</ele><time>2026-04-26T17:04:32.999Z</time></trkpt><trkpt lat="1.2186612465485975" lon="-76.68242372863487"><ele>920.0</ele><time>2026-04-26T17:04:36.999Z</time></trkpt><trkpt lat="1.2185781958509074" lon="-76.6824446943311"><ele>920.0000000000001</ele><time>2026-04-26T17:04:39.999Z</time></trkpt><trkpt lat="1.2185083626451731" lon="-76.6824128075532"><ele>920.0</ele><time>2026-04-26T17:04:45Z</time></trkpt><trkpt lat="1.2184595781500929" lon="-76.68236416775756"><ele>919.9999999999999</ele><time>2026-04-26T17:04:48Z</time></trkpt><trkpt lat="1.2184045199821045" lon="-76.68232433429422"><ele>920.0</ele><time>2026-04-26T17:04:51Z</time></trkpt><trkpt lat="1.2184418586600636" lon="-76.6822735960544"><ele>919.9999999999999</ele><time>2026-04-26T17:04:56Z</time></trkpt><trkpt lat="1.2183828162511214" lon="-76.68224310577051"><ele>919.9999999999999</ele><time>2026-04-26T17:05:03Z</time></trkpt><trkpt lat="1.2183200824567355" lon="-76.68227012870935"><ele>920.0</ele><time>2026-04-26T17:05:05Z</time></trkpt><trkpt lat="1.218259981904879" lon="-76.68224753525085"><ele>919.9999999999999</ele><time>2026-04-26T17:05:11Z</time></trkpt><trkpt lat="1.2181972378310475" lon="-76.68226977204353"><ele>919.9999999999999</ele><time>2026-04-26T17:05:16Z</time></trkpt><trkpt lat="1.2181561409820933" lon="-76.68221623903294"><ele>920.0000000000001</ele><time>2026-04-26T17:05:22Z</time></trkpt><trkpt lat="1.2181772931681265" lon="-76.68214319653075"><ele>920.0</ele><time>2026-04-26T17:05:27Z</time></trkpt><trkpt lat="1.218158577814438" lon="-76.68208008580883"><ele>920.0</ele><time>2026-04-26T17:05:30Z</time></trkpt><trkpt lat="1.2180920461645848" lon="-76.6820439559738"><ele>920.0</ele><time>2026-04-26T17:05:34Z</time></trkpt><trkpt lat="1.2180484879770093" lon="-76.68199385479936"><ele>920.0000000000001</ele><time>2026-04-26T17:05:37Z</time></trkpt><trkpt lat="1.217993363272159" lon="-76.68192413228051"><ele>920.0</ele><time>2026-04-26T17:05:40Z</time></trkpt><trkpt lat="1.2179269313340093" lon="-76.68188329336719"><ele>915.5714285714284</ele><time>2026-04-26T17:05:43Z</time></trkpt><trkpt lat="1.217888136887541" lon="-76.68183007727099"><ele>911.1428571428571</ele><time>2026-04-26T17:05:45Z</time></trkpt><trkpt lat="1.2178442939665621" lon="-76.6817684738804"><ele>906.7142857142857</ele><time>2026-04-26T17:05:47Z</time></trkpt><trkpt lat="1.2178083360771594" lon="-76.68170955983105"><ele>902.2857142857142</ele><time>2026-04-26T17:05:48.999Z</time></trkpt><trkpt lat="1.217763654963074" lon="-76.68163767686535"><ele>897.8571428571429</ele><time>2026-04-26T17:05:51.999Z</time></trkpt><trkpt lat="1.2177164049769262" lon="-76.68157958230981"><ele>893.4285714285714</ele><time>2026-04-26T17:05:58.999Z</time></trkpt><trkpt lat="1.2176981046542392" lon="-76.68151796653797"><ele>889.0</ele><time>2026-04-26T17:06:01.999Z</time></trkpt><trkpt lat="1.2176508914680775" lon="-76.6814597214806"><ele>889.0</ele><time>2026-04-26T17:06:03.999Z</time></trkpt><trkpt lat="1.2176241185128982" lon="-76.68140148228647"><ele>889.0</ele><time>2026-04-26T17:06:05.999Z</time></trkpt><trkpt lat="1.2175983298598385" lon="-76.6813432390155"><ele>889.0</ele><time>2026-04-26T17:06:07.999Z</time></trkpt><trkpt lat="1.2175842440497195" lon="-76.68127392428563"><ele>889.0</ele><time>2026-04-26T17:06:09.999Z</time></trkpt><trkpt lat="1.2175356186896487" lon="-76.68121185892662"><ele>889.0</ele><time>2026-04-26T17:06:11.999Z</time></trkpt><trkpt lat="1.2174827067854628" lon="-76.68114398014787"><ele>889.0</ele><time>2026-04-26T17:06:14.999Z</time></trkpt><trkpt lat="1.2174404023404148" lon="-76.68108003655045"><ele>889.0</ele><time>2026-04-26T17:06:17.999Z</time></trkpt><trkpt lat="1.217414332395331" lon="-76.68099763489391"><ele>887.3333333333333</ele><time>2026-04-26T17:06:20.999Z</time></trkpt><trkpt lat="1.2173549195280684" lon="-76.68094001585129"><ele>885.6666666666666</ele><time>2026-04-26T17:06:23.999Z</time></trkpt><trkpt lat="1.217313687899766" lon="-76.68086761259684"><ele>884.0</ele><time>2026-04-26T17:06:25.999Z</time></trkpt><trkpt lat="1.2172753175937934" lon="-76.68078844911015"><ele>882.3333333333333</ele><time>2026-04-26T17:06:27.999Z</time></trkpt><trkpt lat="1.2172376363404032" lon="-76.68070968548483"><ele>880.6666666666666</ele><time>2026-04-26T17:06:29.999Z</time></trkpt><trkpt lat="1.2172032907609747" lon="-76.68065372908524"><ele>879.0</ele><time>2026-04-26T17:06:31.999Z</time></trkpt><trkpt lat="1.2171338815429984" lon="-76.6805928181573"><ele>878.3333333333334</ele><time>2026-04-26T17:06:34.999Z</time></trkpt><trkpt lat="1.2170767537336467" lon="-76.68054904238198"><ele>877.6666666666667</ele><time>2026-04-26T17:06:36.999Z</time></trkpt><trkpt lat="1.2169792526861714" lon="-76.68054973430452"><ele>877.0</ele><time>2026-04-26T17:06:40.999Z</time></trkpt><trkpt lat="1.2169410704028136" lon="-76.68060139891155"><ele>876.3333333333334</ele><time>2026-04-26T17:06:42.999Z</time></trkpt><trkpt lat="1.2169076870568103" lon="-76.68065870455479"><ele>875.6666666666667</ele><time>2026-04-26T17:06:44.999Z</time></trkpt><trkpt lat="1.216857892279689" lon="-76.68073188385787"><ele>875.0</ele><time>2026-04-26T17:06:47.999Z</time></trkpt><trkpt lat="1.2168048693255322" lon="-76.68078693857129"><ele>875.0</ele><time>2026-04-26T17:06:50Z</time></trkpt><trkpt lat="1.2167417190868364" lon="-76.68085980900933"><ele>875.0</ele><time>2026-04-26T17:06:53Z</time></trkpt><trkpt lat="1.2167010734905228" lon="-76.6809355803995"><ele>875.0</ele><time>2026-04-26T17:06:55Z</time></trkpt><trkpt lat="1.2166528157189531" lon="-76.68100241881622"><ele>875.0</ele><time>2026-04-26T17:06:57Z</time></trkpt><trkpt lat="1.2166001728276348" lon="-76.6810801120104"><ele>875.0</ele><time>2026-04-26T17:07:00Z</time></trkpt><trkpt lat="1.216519469508304" lon="-76.6811572044508"><ele>875.1666666666667</ele><time>2026-04-26T17:07:02Z</time></trkpt><trkpt lat="1.216489865350077" lon="-76.68121785754062"><ele>875.3333333333334</ele><time>2026-04-26T17:07:04Z</time></trkpt><trkpt lat="1.2164118647163762" lon="-76.68124505725717"><ele>875.5</ele><time>2026-04-26T17:07:06Z</time></trkpt><trkpt lat="1.2163410724444303" lon="-76.6812738159848"><ele>875.6666666666667</ele><time>2026-04-26T17:07:08Z</time></trkpt><trkpt lat="1.216289241582063" lon="-76.6813181664793"><ele>875.8333333333334</ele><time>2026-04-26T17:07:12Z</time></trkpt><trkpt lat="1.2162617293290376" lon="-76.68141747793825"><ele>876.0</ele><time>2026-04-26T17:07:23Z</time></trkpt><trkpt lat="1.2162520066551794" lon="-76.681483710364"><ele>872.1666666666666</ele><time>2026-04-26T17:07:27Z</time></trkpt><trkpt lat="1.2161943102443944" lon="-76.68154516767953"><ele>868.3333333333333</ele><time>2026-04-26T17:07:30Z</time></trkpt><trkpt lat="1.2161277239261525" lon="-76.68164214055363"><ele>864.5</ele><time>2026-04-26T17:07:34Z</time></trkpt><trkpt lat="1.2160933929879705" lon="-76.68172369074527"><ele>860.6666666666666</ele><time>2026-04-26T17:07:36Z</time></trkpt><trkpt lat="1.2160621440409018" lon="-76.68179694665359"><ele>856.8333333333333</ele><time>2026-04-26T17:07:38Z</time></trkpt><trkpt lat="1.2160212851588135" lon="-76.6818574439268"><ele>853.0</ele><time>2026-04-26T17:07:39Z</time></trkpt><trkpt lat="1.2159531417289284" lon="-76.68195352645014"><ele>853.0</ele><time>2026-04-26T17:07:41Z</time></trkpt><trkpt lat="1.2159128806562773" lon="-76.68201929526775"><ele>853.0</ele><time>2026-04-26T17:07:42Z</time></trkpt><trkpt lat="1.2158558253455454" lon="-76.68213789816741"><ele>853.0</ele><time>2026-04-26T17:07:43Z</time></trkpt><trkpt lat="1.2158040216289259" lon="-76.682220914064"><ele>853.0</ele><time>2026-04-26T17:07:45Z</time></trkpt><trkpt lat="1.2157795309244952" lon="-76.68231143298034"><ele>853.0</ele><time>2026-04-26T17:07:47Z</time></trkpt><trkpt lat="1.21572893709377" lon="-76.68238430376503"><ele>852.9999999999999</ele><time>2026-04-26T17:07:50Z</time></trkpt><trkpt lat="1.21568993918463" lon="-76.68243747942762"><ele>853.0</ele><time>2026-04-26T17:07:52Z</time></trkpt><trkpt lat="1.2156485196983036" lon="-76.68252031841165"><ele>853.0</ele><time>2026-04-26T17:07:53.999Z</time></trkpt><trkpt lat="1.2156432275828233" lon="-76.68260123982385"><ele>853.0</ele><time>2026-04-26T17:07:55.999Z</time></trkpt><trkpt lat="1.2156568478913183" lon="-76.6826946390767"><ele>852.9999999999999</ele><time>2026-04-26T17:07:59.999Z</time></trkpt><trkpt lat="1.2157136303671767" lon="-76.68275516527704"><ele>853.0</ele><time>2026-04-26T17:08:02.999Z</time></trkpt><trkpt lat="1.215782649341798" lon="-76.68280429742447"><ele>852.8333333333333</ele><time>2026-04-26T17:08:06.999Z</time></trkpt><trkpt lat="1.215840359987289" lon="-76.68284143227119"><ele>852.6666666666666</ele><time>2026-04-26T17:08:11.999Z</time></trkpt><trkpt lat="1.2159379636141345" lon="-76.68281389332549"><ele>852.5</ele><time>2026-04-26T17:08:12.999Z</time></trkpt><trkpt lat="1.2160114115145308" lon="-76.68281733061183"><ele>852.3333333333333</ele><time>2026-04-26T17:08:15.999Z</time></trkpt><trkpt lat="1.21601564673875" lon="-76.68289122463895"><ele>852.1666666666666</ele><time>2026-04-26T17:08:19.999Z</time></trkpt><trkpt lat="1.216005616756028" lon="-76.68296488222327"><ele>852.0</ele><time>2026-04-26T17:08:21.999Z</time></trkpt><trkpt lat="1.215936386803836" lon="-76.68300423616633"><ele>852.0</ele><time>2026-04-26T17:08:23.999Z</time></trkpt><trkpt lat="1.215878978818252" lon="-76.6830511716491"><ele>852.0</ele><time>2026-04-26T17:08:25.999Z</time></trkpt><trkpt lat="1.215819004124749" lon="-76.68311464325936"><ele>852.0</ele><time>2026-04-26T17:08:27.999Z</time></trkpt><trkpt lat="1.215770851363678" lon="-76.68317820421146"><ele>852.0</ele><time>2026-04-26T17:08:29.999Z</time></trkpt><trkpt lat="1.2156913066377542" lon="-76.68321983046961"><ele>852.0</ele><time>2026-04-26T17:08:32.999Z</time></trkpt><trkpt lat="1.2156276387845477" lon="-76.68326030994373"><ele>852.0</ele><time>2026-04-26T17:08:34.999Z</time></trkpt><trkpt lat="1.2155531258013315" lon="-76.68328065053096"><ele>851.1666666666666</ele><time>2026-04-26T17:08:37.999Z</time></trkpt><trkpt lat="1.215468177644934" lon="-76.68327985154433"><ele>850.3333333333333</ele><time>2026-04-26T17:08:41.999Z</time></trkpt><trkpt lat="1.2154084072094786" lon="-76.68322765495104"><ele>849.5</ele><time>2026-04-26T17:08:44.999Z</time></trkpt><trkpt lat="1.2153514712946225" lon="-76.6831753895715"><ele>848.6666666666666</ele><time>2026-04-26T17:08:46.999Z</time></trkpt><trkpt lat="1.2153004897043176" lon="-76.68310546803697"><ele>847.8333333333333</ele><time>2026-04-26T17:08:50.999Z</time></trkpt><trkpt lat="1.2152313823745813" lon="-76.68308141918735"><ele>847.0</ele><time>2026-04-26T17:08:53.999Z</time></trkpt><trkpt lat="1.2151663340373435" lon="-76.68305356485978"><ele>846.9999999999999</ele><time>2026-04-26T17:08:57Z</time></trkpt><trkpt lat="1.2151301710789106" lon="-76.6830014007542"><ele>847.0</ele><time>2026-04-26T17:09:00Z</time></trkpt><trkpt lat="1.2150677188466348" lon="-76.68294858816722"><ele>847.0</ele><time>2026-04-26T17:09:03Z</time></trkpt><trkpt lat="1.2149984351211256" lon="-76.68287263846189"><ele>847.0</ele><time>2026-04-26T17:09:05Z</time></trkpt><trkpt lat="1.2149295243252554" lon="-76.68282846868746"><ele>846.9999999999999</ele><time>2026-04-26T17:09:08Z</time></trkpt><trkpt lat="1.2148536068120304" lon="-76.6827845367497"><ele>847.0</ele><time>2026-04-26T17:09:11Z</time></trkpt><trkpt lat="1.214799304888572" lon="-76.68273236430329"><ele>845.4999999999999</ele><time>2026-04-26T17:09:13Z</time></trkpt><trkpt lat="1.2147511542210785" lon="-76.68267354464848"><ele>844.0</ele><time>2026-04-26T17:09:16Z</time></trkpt><trkpt lat="1.2146953758156442" lon="-76.68263344205596"><ele>842.5</ele><time>2026-04-26T17:09:19Z</time></trkpt><trkpt lat="1.2146857217357692" lon="-76.6825484243043"><ele>841.0</ele><time>2026-04-26T17:09:23Z</time></trkpt><trkpt lat="1.214648314460191" lon="-76.68249252986928"><ele>839.4999999999999</ele><time>2026-04-26T17:09:25Z</time></trkpt><trkpt lat="1.2145849075497903" lon="-76.68248548475127"><ele>838.0</ele><time>2026-04-26T17:09:28Z</time></trkpt><trkpt lat="1.2144904418681859" lon="-76.68248116958691"><ele>837.9999999999999</ele><time>2026-04-26T17:09:32Z</time></trkpt><trkpt lat="1.214419621979744" lon="-76.68247257633938"><ele>838.0</ele><time>2026-04-26T17:09:34Z</time></trkpt><trkpt lat="1.2143559750257862" lon="-76.68247451592808"><ele>838.0</ele><time>2026-04-26T17:09:36Z</time></trkpt><trkpt lat="1.2142873023888014" lon="-76.6824841815606"><ele>838.0</ele><time>2026-04-26T17:09:38Z</time></trkpt><trkpt lat="1.2142087209553325" lon="-76.68247133726976"><ele>838.0</ele><time>2026-04-26T17:09:41Z</time></trkpt><trkpt lat="1.2141710070563092" lon="-76.68240047101685"><ele>837.9999999999999</ele><time>2026-04-26T17:09:45Z</time></trkpt><trkpt lat="1.2141382734166146" lon="-76.68233497165103"><ele>838.0</ele><time>2026-04-26T17:09:47Z</time></trkpt><trkpt lat="1.214075393155845" lon="-76.6822761071875"><ele>837.9999999999999</ele><time>2026-04-26T17:09:50Z</time></trkpt><trkpt lat="1.2140169376500451" lon="-76.68224556264836"><ele>838.0</ele><time>2026-04-26T17:09:53.999Z</time></trkpt><trkpt lat="1.214017865373858" lon="-76.68214070544525"><ele>838.0</ele><time>2026-04-26T17:09:55.999Z</time></trkpt><trkpt lat="1.2140186701574402" lon="-76.68207608893651"><ele>838.0</ele><time>2026-04-26T17:09:57.999Z</time></trkpt><trkpt lat="1.2140439977300321" lon="-76.68198249647087"><ele>837.9999999999999</ele><time>2026-04-26T17:10:00.999Z</time></trkpt><trkpt lat="1.2140369195402152" lon="-76.68191760877082"><ele>838.0</ele><time>2026-04-26T17:10:03.999Z</time></trkpt><trkpt lat="1.2140351000874823" lon="-76.68182800872107"><ele>836.3333333333333</ele><time>2026-04-26T17:10:07.999Z</time></trkpt><trkpt lat="1.2140323520308336" lon="-76.6817529541574"><ele>834.6666666666666</ele><time>2026-04-26T17:10:10.999Z</time></trkpt><trkpt lat="1.2140462189423304" lon="-76.68166347363469"><ele>833.0</ele><time>2026-04-26T17:10:15.999Z</time></trkpt><trkpt lat="1.2140924047813029" lon="-76.68160185086057"><ele>831.3333333333333</ele><time>2026-04-26T17:10:18.999Z</time></trkpt><trkpt lat="1.2141189285152598" lon="-76.68153403893415"><ele>829.6666666666666</ele><time>2026-04-26T17:10:22.999Z</time></trkpt><trkpt lat="1.2141769279092611" lon="-76.68149422807214"><ele>828.0</ele><time>2026-04-26T17:10:27.999Z</time></trkpt><trkpt lat="1.2141930657256317" lon="-76.6814184751461"><ele>828.0000000000001</ele><time>2026-04-26T17:10:35.999Z</time></trkpt><trkpt lat="1.214181316419558" lon="-76.68134827654569"><ele>828.0</ele><time>2026-04-26T17:10:39.999Z</time></trkpt><trkpt lat="1.2141870542635251" lon="-76.68128267882344"><ele>828.0</ele><time>2026-04-26T17:10:42.999Z</time></trkpt><trkpt lat="1.2142141527373795" lon="-76.68121411170041"><ele>828.0</ele><time>2026-04-26T17:10:45.999Z</time></trkpt><trkpt lat="1.2142256200166082" lon="-76.6811370168485"><ele>828.0</ele><time>2026-04-26T17:10:48.999Z</time></trkpt><trkpt lat="1.2142605776808963" lon="-76.68107284206802"><ele>828.0000000000001</ele><time>2026-04-26T17:10:52.999Z</time></trkpt><trkpt lat="1.2142659417740287" lon="-76.6809949856221"><ele>828.0</ele><time>2026-04-26T17:10:56.999Z</time></trkpt><trkpt lat="1.2142287076287797" lon="-76.6809362708735"><ele>827.5</ele><time>2026-04-26T17:11:01Z</time></trkpt><trkpt lat="1.2142095489310916" lon="-76.68086674354393"><ele>827.0</ele><time>2026-04-26T17:13:36Z</time></trkpt><trkpt lat="1.2141590934490878" lon="-76.68082602246494"><ele>826.5</ele><time>2026-04-26T17:13:42Z</time></trkpt><trkpt lat="1.214085715551238" lon="-76.68083957762704"><ele>826.0</ele><time>2026-04-26T17:13:53Z</time></trkpt><trkpt lat="1.214006734570342" lon="-76.6808208913698"><ele>825.5</ele><time>2026-04-26T17:13:56Z</time></trkpt><trkpt lat="1.2139263209338782" lon="-76.6807833700737"><ele>825.0</ele><time>2026-04-26T17:13:59Z</time></trkpt><trkpt lat="1.213847694198349" lon="-76.68076361506394"><ele>826.2857142857142</ele><time>2026-04-26T17:14:03Z</time></trkpt><trkpt lat="1.2137855886669155" lon="-76.68078298099591"><ele>827.5714285714287</ele><time>2026-04-26T17:14:05Z</time></trkpt><trkpt lat="1.2137068564119053" lon="-76.68077880219417"><ele>828.8571428571429</ele><time>2026-04-26T17:14:08Z</time></trkpt><trkpt lat="1.2136271129161964" lon="-76.68077857730788"><ele>830.1428571428571</ele><time>2026-04-26T17:14:09.999Z</time></trkpt><trkpt lat="1.213563329449791" lon="-76.6807714381616"><ele>831.4285714285713</ele><time>2026-04-26T17:14:12.999Z</time></trkpt><trkpt lat="1.2134920145185835" lon="-76.68080955564146"><ele>832.7142857142858</ele><time>2026-04-26T17:14:16.999Z</time></trkpt><trkpt lat="1.2134215763270235" lon="-76.68080757904623"><ele>834.0</ele><time>2026-04-26T17:14:21.999Z</time></trkpt><trkpt lat="1.2133804159682662" lon="-76.680754503914"><ele>834.0</ele><time>2026-04-26T17:14:30.999Z</time></trkpt><trkpt lat="1.2133415173281454" lon="-76.68069847077244"><ele>834.0</ele><time>2026-04-26T17:14:34.999Z</time></trkpt><trkpt lat="1.2132683691278108" lon="-76.68070541740464"><ele>834.0</ele><time>2026-04-26T17:14:38.999Z</time></trkpt><trkpt lat="1.2131766004172526" lon="-76.68071819057378"><ele>834.0</ele><time>2026-04-26T17:14:42.999Z</time></trkpt><trkpt lat="1.213076484231833" lon="-76.68071324531361"><ele>834.0</ele><time>2026-04-26T17:14:46.999Z</time></trkpt><trkpt lat="1.2130143102565443" lon="-76.68069598139863"><ele>834.0</ele><time>2026-04-26T17:14:48.999Z</time></trkpt><trkpt lat="1.2129465852012578" lon="-76.68066835888995"><ele>836.1428571428572</ele><time>2026-04-26T17:14:51.999Z</time></trkpt><trkpt lat="1.2128791699814598" lon="-76.68065349808404"><ele>838.2857142857142</ele><time>2026-04-26T17:14:58.999Z</time></trkpt><trkpt lat="1.2128106855244254" lon="-76.68065392110275"><ele>840.4285714285714</ele><time>2026-04-26T17:15:01.999Z</time></trkpt><trkpt lat="1.2127405475423731" lon="-76.68066619977444"><ele>842.5714285714287</ele><time>2026-04-26T17:15:04.999Z</time></trkpt><trkpt lat="1.2126795818219673" lon="-76.68069480941321"><ele>844.7142857142858</ele><time>2026-04-26T17:15:07.999Z</time></trkpt><trkpt lat="1.212595581245944" lon="-76.68071172300245"><ele>846.8571428571429</ele><time>2026-04-26T17:15:10.999Z</time></trkpt><trkpt lat="1.2125276003048828" lon="-76.6807340542948"><ele>849.0</ele><time>2026-04-26T17:15:13Z</time></trkpt><trkpt lat="1.2124594078550863" lon="-76.68073119542085"><ele>849.0</ele><time>2026-04-26T17:15:15Z</time></trkpt><trkpt lat="1.2123799591380808" lon="-76.68075632042189"><ele>849.0</ele><time>2026-04-26T17:15:18Z</time></trkpt><trkpt lat="1.2122986644399592" lon="-76.68077311224151"><ele>849.0</ele><time>2026-04-26T17:15:20Z</time></trkpt><trkpt lat="1.2122206971470022" lon="-76.68083326068076"><ele>849.0</ele><time>2026-04-26T17:15:23Z</time></trkpt><trkpt lat="1.2121537110543243" lon="-76.68084074615635"><ele>849.0</ele><time>2026-04-26T17:15:25Z</time></trkpt><trkpt lat="1.212082147661516" lon="-76.68086116692214"><ele>849.0</ele><time>2026-04-26T17:15:27Z</time></trkpt><trkpt lat="1.2120187115341559" lon="-76.68087375572136"><ele>850.8333333333334</ele><time>2026-04-26T17:15:29Z</time></trkpt><trkpt lat="1.211940881979444" lon="-76.68087693456869"><ele>852.6666666666667</ele><time>2026-04-26T17:15:31Z</time></trkpt><trkpt lat="1.211864725668077" lon="-76.68089495314159"><ele>854.5</ele><time>2026-04-26T17:15:33Z</time></trkpt><trkpt lat="1.2117953963504682" lon="-76.68094740750179"><ele>856.3333333333334</ele><time>2026-04-26T17:15:35Z</time></trkpt><trkpt lat="1.2117325102757102" lon="-76.68097521957148"><ele>858.1666666666667</ele><time>2026-04-26T17:15:37Z</time></trkpt><trkpt lat="1.2116373486994911" lon="-76.6809857826561"><ele>860.0</ele><time>2026-04-26T17:15:41Z</time></trkpt><trkpt lat="1.211530324788826" lon="-76.68097746198045"><ele>861.6666666666667</ele><time>2026-04-26T17:15:44Z</time></trkpt><trkpt lat="1.2114559664614775" lon="-76.68094702309654"><ele>863.3333333333334</ele><time>2026-04-26T17:15:46Z</time></trkpt><trkpt lat="1.21138928583719" lon="-76.68094643155457"><ele>865.0</ele><time>2026-04-26T17:15:48Z</time></trkpt><trkpt lat="1.2113262452337985" lon="-76.68094507424489"><ele>866.6666666666667</ele><time>2026-04-26T17:15:58Z</time></trkpt><trkpt lat="1.2112564338595693" lon="-76.6809573015181"><ele>868.3333333333334</ele><time>2026-04-26T17:16:00Z</time></trkpt><trkpt lat="1.2111940933884187" lon="-76.68104738945186"><ele>870.0</ele><time>2026-04-26T17:16:03Z</time></trkpt><trkpt lat="1.2111077356001776" lon="-76.68109030241125"><ele>872.1428571428572</ele><time>2026-04-26T17:16:06Z</time></trkpt><trkpt lat="1.2110358769510208" lon="-76.68110947838255"><ele>874.2857142857143</ele><time>2026-04-26T17:16:09Z</time></trkpt><trkpt lat="1.2110061745211627" lon="-76.68116708490057"><ele>876.4285714285714</ele><time>2026-04-26T17:16:13Z</time></trkpt><trkpt lat="1.210942277139156" lon="-76.68118660773489"><ele>878.5714285714287</ele><time>2026-04-26T17:16:15.999Z</time></trkpt><trkpt lat="1.2108558972120573" lon="-76.68120608923975"><ele>880.7142857142857</ele><time>2026-04-26T17:16:18.999Z</time></trkpt><trkpt lat="1.2107805629535187" lon="-76.68123103895219"><ele>882.8571428571429</ele><time>2026-04-26T17:16:20.999Z</time></trkpt><trkpt lat="1.2107184372008966" lon="-76.68126609019482"><ele>885.0</ele><time>2026-04-26T17:16:23.999Z</time></trkpt><trkpt lat="1.2106504681468444" lon="-76.68130736419977"><ele>885.5</ele><time>2026-04-26T17:16:25.999Z</time></trkpt><trkpt lat="1.2105752678309625" lon="-76.68131399402257"><ele>886.0</ele><time>2026-04-26T17:16:27.999Z</time></trkpt><trkpt lat="1.2104938342122444" lon="-76.68132457051168"><ele>886.5</ele><time>2026-04-26T17:16:29.999Z</time></trkpt><trkpt lat="1.2104214804937343" lon="-76.68134911162758"><ele>887.0</ele><time>2026-04-26T17:16:31.999Z</time></trkpt><trkpt lat="1.2103355694073945" lon="-76.68139335519575"><ele>887.5</ele><time>2026-04-26T17:16:34.999Z</time></trkpt><trkpt lat="1.21024540437037" lon="-76.68143649555978"><ele>888.0</ele><time>2026-04-26T17:16:37.999Z</time></trkpt><trkpt lat="1.2101645321701262" lon="-76.68146040595224"><ele>888.0</ele><time>2026-04-26T17:16:40.999Z</time></trkpt><trkpt lat="1.2100583743589066" lon="-76.68152466470121"><ele>888.0</ele><time>2026-04-26T17:16:42.999Z</time></trkpt><trkpt lat="1.2099861861667653" lon="-76.68154087429744"><ele>888.0</ele><time>2026-04-26T17:16:43.999Z</time></trkpt><trkpt lat="1.2099027539132698" lon="-76.68157599655585"><ele>888.0</ele><time>2026-04-26T17:16:46.999Z</time></trkpt><trkpt lat="1.2098318345507495" lon="-76.68160355930323"><ele>888.0</ele><time>2026-04-26T17:16:48.999Z</time></trkpt><trkpt lat="1.2097578503756783" lon="-76.68160592620231"><ele>888.0</ele><time>2026-04-26T17:16:50.999Z</time></trkpt><trkpt lat="1.2096875728864283" lon="-76.68160489498312"><ele>889.4</ele><time>2026-04-26T17:16:52.999Z</time></trkpt><trkpt lat="1.209585743136065" lon="-76.6816344738715"><ele>890.8</ele><time>2026-04-26T17:16:54.999Z</time></trkpt><trkpt lat="1.2094663982417753" lon="-76.68165455378073"><ele>892.2</ele><time>2026-04-26T17:16:56.999Z</time></trkpt><trkpt lat="1.2094065455503498" lon="-76.6817162030857"><ele>893.6</ele><time>2026-04-26T17:16:58.999Z</time></trkpt><trkpt lat="1.2093367709728011" lon="-76.68174207184593"><ele>895.0</ele><time>2026-04-26T17:17:27Z</time></trkpt><trkpt lat="1.2092900885294418" lon="-76.68178749196458"><ele>894.9999999999999</ele><time>2026-04-26T17:17:31Z</time></trkpt><trkpt lat="1.2092183680683768" lon="-76.6817798268783"><ele>895.0</ele><time>2026-04-26T17:17:33Z</time></trkpt><trkpt lat="1.2091625883827468" lon="-76.68182602121948"><ele>895.0</ele><time>2026-04-26T17:17:35Z</time></trkpt><trkpt lat="1.209105735114283" lon="-76.68185393713532"><ele>895.0</ele><time>2026-04-26T17:17:37Z</time></trkpt><trkpt lat="1.2090074142925606" lon="-76.68183094498596"><ele>894.9999999999999</ele><time>2026-04-26T17:17:40Z</time></trkpt><trkpt lat="1.2089412247498186" lon="-76.68187083145831"><ele>895.0</ele><time>2026-04-26T17:17:43Z</time></trkpt><trkpt lat="1.208874000833566" lon="-76.68192321267162"><ele>900.1666666666666</ele><time>2026-04-26T17:17:45Z</time></trkpt><trkpt lat="1.2088315080023393" lon="-76.68199533840331"><ele>905.3333333333333</ele><time>2026-04-26T17:17:47Z</time></trkpt><trkpt lat="1.2087820341646733" lon="-76.68206591295049"><ele>910.5</ele><time>2026-04-26T17:17:50Z</time></trkpt><trkpt lat="1.2087187967481015" lon="-76.6820676390887"><ele>915.6666666666667</ele><time>2026-04-26T17:17:55Z</time></trkpt><trkpt lat="1.2086519289492696" lon="-76.68201709846579"><ele>920.8333333333334</ele><time>2026-04-26T17:17:57Z</time></trkpt><trkpt lat="1.2086327391593663" lon="-76.68193037886635"><ele>926.0</ele><time>2026-04-26T17:17:59Z</time></trkpt><trkpt lat="1.2086363114507364" lon="-76.68186535603427"><ele>926.0000000000001</ele><time>2026-04-26T17:18:00Z</time></trkpt><trkpt lat="1.2086122092340845" lon="-76.68179069215033"><ele>926.0</ele><time>2026-04-26T17:18:04Z</time></trkpt><trkpt lat="1.2086091603349192" lon="-76.68170132528358"><ele>926.0</ele><time>2026-04-26T17:18:05Z</time></trkpt><trkpt lat="1.2085701189156606" lon="-76.68160371615673"><ele>926.0</ele><time>2026-04-26T17:18:09Z</time></trkpt><trkpt lat="1.2085176956763726" lon="-76.68153154276372"><ele>926.0000000000001</ele><time>2026-04-26T17:18:10Z</time></trkpt><trkpt lat="1.2084723424914157" lon="-76.68146861857149"><ele>926.0</ele><time>2026-04-26T17:18:11Z</time></trkpt><trkpt lat="1.208443082581765" lon="-76.68140383966984"><ele>926.0</ele><time>2026-04-26T17:18:12Z</time></trkpt><trkpt lat="1.2083634577761593" lon="-76.68134142251057"><ele>925.9999999999999</ele><time>2026-04-26T17:18:14Z</time></trkpt><trkpt lat="1.2082741827977344" lon="-76.68129111606498"><ele>925.9999999999999</ele><time>2026-04-26T17:18:16Z</time></trkpt><trkpt lat="1.2082100618976142" lon="-76.68126165513787"><ele>926.0</ele><time>2026-04-26T17:18:17Z</time></trkpt><trkpt lat="1.2081005370743965" lon="-76.68124384079395"><ele>926.0</ele><time>2026-04-26T17:18:19Z</time></trkpt><trkpt lat="1.2079938779451018" lon="-76.68125615550343"><ele>930.8333333333334</ele><time>2026-04-26T17:18:21Z</time></trkpt><trkpt lat="1.2078980057032038" lon="-76.68125549087017"><ele>935.6666666666667</ele><time>2026-04-26T17:18:23Z</time></trkpt><trkpt lat="1.2078166043536958" lon="-76.68123273819033"><ele>940.5</ele><time>2026-04-26T17:18:25Z</time></trkpt><trkpt lat="1.207725240287103" lon="-76.68121970769165"><ele>945.3333333333333</ele><time>2026-04-26T17:18:27.999Z</time></trkpt><trkpt lat="1.2076464482313987" lon="-76.68118072634704"><ele>950.1666666666666</ele><time>2026-04-26T17:18:29.999Z</time></trkpt><trkpt lat="1.2075725649522926" lon="-76.6811408364654"><ele>955.0</ele><time>2026-04-26T17:18:31.999Z</time></trkpt><trkpt lat="1.2074816958289336" lon="-76.6811266651837"><ele>955.0</ele><time>2026-04-26T17:18:33.999Z</time></trkpt><trkpt lat="1.207376206809823" lon="-76.68112747781721"><ele>955.0</ele><time>2026-04-26T17:18:35.999Z</time></trkpt><trkpt lat="1.2072970614547631" lon="-76.6811267184056"><ele>955.0</ele><time>2026-04-26T17:18:36.999Z</time></trkpt><trkpt lat="1.2072283642152644" lon="-76.68111179899255"><ele>955.0</ele><time>2026-04-26T17:18:37.999Z</time></trkpt><trkpt lat="1.2071305848353913" lon="-76.68104325001046"><ele>955.0</ele><time>2026-04-26T17:18:39.999Z</time></trkpt><trkpt lat="1.2070594472723994" lon="-76.68107393687058"><ele>953.0</ele><time>2026-04-26T17:18:40.999Z</time></trkpt><trkpt lat="1.2070012796459144" lon="-76.68103516810784"><ele>951.0</ele><time>2026-04-26T17:18:41.999Z</time></trkpt><trkpt lat="1.206889875549709" lon="-76.6810617870753"><ele>949.0</ele><time>2026-04-26T17:18:43.999Z</time></trkpt><trkpt lat="1.206759027833242" lon="-76.68107709405221"><ele>947.0</ele><time>2026-04-26T17:18:45.999Z</time></trkpt><trkpt lat="1.2066886847681615" lon="-76.68110378322727"><ele>945.0</ele><time>2026-04-26T17:18:46.999Z</time></trkpt><trkpt lat="1.2066203447624504" lon="-76.68112964692149"><ele>948.8333333333334</ele><time>2026-04-26T17:18:47.999Z</time></trkpt><trkpt lat="1.2065469880798407" lon="-76.68115717200519"><ele>952.6666666666667</ele><time>2026-04-26T17:18:48.999Z</time></trkpt><trkpt lat="1.2064684509841286" lon="-76.68118584007662"><ele>956.5</ele><time>2026-04-26T17:18:49.999Z</time></trkpt><trkpt lat="1.2063762747191937" lon="-76.68122061792917"><ele>960.3333333333334</ele><time>2026-04-26T17:18:50.999Z</time></trkpt><trkpt lat="1.2063206781438263" lon="-76.68126498574071"><ele>964.1666666666667</ele><time>2026-04-26T17:18:51.999Z</time></trkpt><trkpt lat="1.206256884888935" lon="-76.68130982742065"><ele>968.0</ele><time>2026-04-26T17:18:52.999Z</time></trkpt><trkpt lat="1.2061387140597144" lon="-76.68136435648546"><ele>970.0</ele><time>2026-04-26T17:18:54.999Z</time></trkpt><trkpt lat="1.2060681601982346" lon="-76.68138252769555"><ele>972.0</ele><time>2026-04-26T17:18:56.999Z</time></trkpt><trkpt lat="1.205992614946145" lon="-76.6814007378867"><ele>974.0</ele><time>2026-04-26T17:19:03.999Z</time></trkpt><trkpt lat="1.205933839128267" lon="-76.68142345600297"><ele>976.0</ele><time>2026-04-26T17:19:08.999Z</time></trkpt><trkpt lat="1.2057965729713496" lon="-76.6814111790579"><ele>978.0</ele><time>2026-04-26T17:19:10.999Z</time></trkpt><trkpt lat="1.2058154783925457" lon="-76.68151452375615"><ele>978.0</ele><time>2026-04-26T17:19:11.999Z</time></trkpt><trkpt lat="1.2057610157156178" lon="-76.68157392498962"><ele>978.0</ele><time>2026-04-26T17:19:12.999Z</time></trkpt><trkpt lat="1.20566680152337" lon="-76.6816331995044"><ele>978.0</ele><time>2026-04-26T17:19:13.999Z</time></trkpt><trkpt lat="1.205595982311893" lon="-76.68166819551514"><ele>978.0</ele><time>2026-04-26T17:19:14.999Z</time></trkpt><trkpt lat="1.2055162547818772" lon="-76.68170759365715"><ele>978.0</ele><time>2026-04-26T17:19:15.999Z</time></trkpt><trkpt lat="1.2054068908233433" lon="-76.68173908718197"><ele>980.5999999999999</ele><time>2026-04-26T17:19:16.999Z</time></trkpt><trkpt lat="1.20531012197207" lon="-76.68174663340851"><ele>983.1999999999999</ele><time>2026-04-26T17:19:17.999Z</time></trkpt><trkpt lat="1.205251547993599" lon="-76.68177830287914"><ele>985.8</ele><time>2026-04-26T17:19:18.999Z</time></trkpt><trkpt lat="1.2051812028102955" lon="-76.68175864561886"><ele>988.4</ele><time>2026-04-26T17:19:20.999Z</time></trkpt><trkpt lat="1.205095230641082" lon="-76.68175797886734"><ele>991.0</ele><time>2026-04-26T17:19:22.999Z</time></trkpt><trkpt lat="1.2049557733543605" lon="-76.68175660585916"><ele>991.0</ele><time>2026-04-26T17:19:25Z</time></trkpt><trkpt lat="1.204864602047311" lon="-76.68177197109173"><ele>991.0</ele><time>2026-04-26T17:19:26Z</time></trkpt><trkpt lat="1.2047755013034112" lon="-76.68178385611074"><ele>991.0</ele><time>2026-04-26T17:19:27Z</time></trkpt><trkpt lat="1.2047023580027727" lon="-76.68179361259632"><ele>991.0</ele><time>2026-04-26T17:19:28Z</time></trkpt><trkpt lat="1.2045759396968008" lon="-76.681626842202"><ele>996.0</ele><time>2026-04-26T17:19:30Z</time></trkpt><trkpt lat="1.2045672132249692" lon="-76.68154200440311"><ele>1000.9999999999999</ele><time>2026-04-26T17:19:32Z</time></trkpt><trkpt lat="1.2045414942189023" lon="-76.68146091489385"><ele>1005.9999999999999</ele><time>2026-04-26T17:19:36Z</time></trkpt><trkpt lat="1.2046614103350448" lon="-76.68142353471039"><ele>1011.0</ele><time>2026-04-26T17:19:43Z</time></trkpt><trkpt lat="1.204587417500116" lon="-76.68145647172392"><ele>1016.0</ele><time>2026-04-26T17:25:23.999Z</time></trkpt><trkpt lat="1.2045223599685728" lon="-76.68140520827225"><ele>1016.0</ele><time>2026-04-26T17:25:25.999Z</time></trkpt><trkpt lat="1.204499064925901" lon="-76.68131171903833"><ele>1016.0</ele><time>2026-04-26T17:25:27.999Z</time></trkpt><trkpt lat="1.2044739653513783" lon="-76.68119676770782"><ele>1016.0</ele><time>2026-04-26T17:25:29.999Z</time></trkpt><trkpt lat="1.204440674041202" lon="-76.68107492077472"><ele>1016.0</ele><time>2026-04-26T17:25:31.999Z</time></trkpt><trkpt lat="1.204410870779191" lon="-76.68095495542966"><ele>1014.1666666666667</ele><time>2026-04-26T17:25:33.999Z</time></trkpt><trkpt lat="1.204394812655895" lon="-76.68089281240621"><ele>1012.3333333333334</ele><time>2026-04-26T17:25:34.999Z</time></trkpt><trkpt lat="1.204380235933547" lon="-76.68082520434457"><ele>1010.5</ele><time>2026-04-26T17:25:35.999Z</time></trkpt><trkpt lat="1.2043704371504114" lon="-76.68076095989835"><ele>1008.6666666666667</ele><time>2026-04-26T17:25:36.999Z</time></trkpt><trkpt lat="1.2043536412527394" lon="-76.68069991787081"><ele>1006.8333333333334</ele><time>2026-04-26T17:25:37.999Z</time></trkpt><trkpt lat="1.2043219455219263" lon="-76.68058470974738"><ele>1005.0</ele><time>2026-04-26T17:25:39.999Z</time></trkpt><trkpt lat="1.204280277129369" lon="-76.68046951556511"><ele>1005.0</ele><time>2026-04-26T17:25:42Z</time></trkpt><trkpt lat="1.2042310780012215" lon="-76.6803675828017"><ele>1005.0</ele><time>2026-04-26T17:25:44Z</time></trkpt><trkpt lat="1.2041758565286993" lon="-76.6802658722928"><ele>1005.0</ele><time>2026-04-26T17:25:46Z</time></trkpt><trkpt lat="1.2040924212496236" lon="-76.6801976087724"><ele>1005.0</ele><time>2026-04-26T17:25:48Z</time></trkpt><trkpt lat="1.204007868753572" lon="-76.68011597329657"><ele>1007.75</ele><time>2026-04-26T17:25:50Z</time></trkpt><trkpt lat="1.2039194750472026" lon="-76.68002945576119"><ele>1010.5</ele><time>2026-04-26T17:25:52Z</time></trkpt><trkpt lat="1.2038385393625914" lon="-76.67995253179942"><ele>1013.25</ele><time>2026-04-26T17:25:54Z</time></trkpt><trkpt lat="1.203750165705901" lon="-76.6798758618736"><ele>1016.0</ele><time>2026-04-26T17:25:56Z</time></trkpt><trkpt lat="1.203637627964023" lon="-76.67984192389099"><ele>1016.0000000000001</ele><time>2026-04-26T17:25:58Z</time></trkpt><trkpt lat="1.203585434337904" lon="-76.67980629563172"><ele>1016.0</ele><time>2026-04-26T17:25:59Z</time></trkpt><trkpt lat="1.203462930581264" lon="-76.67980411138234"><ele>1016.0</ele><time>2026-04-26T17:26:01Z</time></trkpt><trkpt lat="1.2033975101728493" lon="-76.67979238017149"><ele>1016.0</ele><time>2026-04-26T17:26:02Z</time></trkpt><trkpt lat="1.2033340814240574" lon="-76.67978054644634"><ele>1016.0000000000001</ele><time>2026-04-26T17:26:03Z</time></trkpt><trkpt lat="1.203269702802013" lon="-76.67975102880824"><ele>1016.0</ele><time>2026-04-26T17:26:04Z</time></trkpt><trkpt lat="1.2031425465925172" lon="-76.67975103801697"><ele>1014.8333333333334</ele><time>2026-04-26T17:26:06Z</time></trkpt><trkpt lat="1.2030759980152326" lon="-76.67975747899594"><ele>1013.6666666666667</ele><time>2026-04-26T17:26:07Z</time></trkpt><trkpt lat="1.2030131330552725" lon="-76.67976935618258"><ele>1012.5</ele><time>2026-04-26T17:26:08Z</time></trkpt><trkpt lat="1.2029516742711004" lon="-76.67978801032851"><ele>1011.3333333333333</ele><time>2026-04-26T17:26:09Z</time></trkpt><trkpt lat="1.202841092927906" lon="-76.67981903221836"><ele>1010.1666666666666</ele><time>2026-04-26T17:26:11Z</time></trkpt><trkpt lat="1.2027475570442563" lon="-76.67985382338958"><ele>1009.0</ele><time>2026-04-26T17:26:13Z</time></trkpt><trkpt lat="1.2026307319262073" lon="-76.679905333706"><ele>1009.0</ele><time>2026-04-26T17:26:15Z</time></trkpt><trkpt lat="1.2025739355655456" lon="-76.67994104849447"><ele>1009.0</ele><time>2026-04-26T17:26:16Z</time></trkpt><trkpt lat="1.2025229082228917" lon="-76.67998712647882"><ele>1009.0</ele><time>2026-04-26T17:26:17Z</time></trkpt><trkpt lat="1.2024740911885201" lon="-76.68002837643265"><ele>1009.0</ele><time>2026-04-26T17:26:18Z</time></trkpt><trkpt lat="1.2024235825887564" lon="-76.68007898949253"><ele>1009.0</ele><time>2026-04-26T17:26:19Z</time></trkpt><trkpt lat="1.2023732822057247" lon="-76.68012912514403"><ele>1009.0</ele><time>2026-04-26T17:26:20Z</time></trkpt><trkpt lat="1.2023264089497472" lon="-76.68017972933482"><ele>1009.0</ele><time>2026-04-26T17:26:21Z</time></trkpt><trkpt lat="1.202281204462565" lon="-76.68023229112768"><ele>1009.5714285714287</ele><time>2026-04-26T17:26:22Z</time></trkpt><trkpt lat="1.202239847528909" lon="-76.68028446794774"><ele>1010.1428571428571</ele><time>2026-04-26T17:26:23Z</time></trkpt><trkpt lat="1.2022035281749086" lon="-76.68034285884943"><ele>1010.7142857142858</ele><time>2026-04-26T17:26:24Z</time></trkpt><trkpt lat="1.2021675341219595" lon="-76.68040564599629"><ele>1011.2857142857143</ele><time>2026-04-26T17:26:25Z</time></trkpt><trkpt lat="1.2021279937832927" lon="-76.680470060837"><ele>1011.8571428571429</ele><time>2026-04-26T17:26:26Z</time></trkpt><trkpt lat="1.2020915740033764" lon="-76.68052148092886"><ele>1012.4285714285714</ele><time>2026-04-26T17:26:27Z</time></trkpt><trkpt lat="1.202056657579252" lon="-76.68058073710151"><ele>1013.0</ele><time>2026-04-26T17:26:28Z</time></trkpt><trkpt lat="1.2020189334082738" lon="-76.6806448973728"><ele>1013.0</ele><time>2026-04-26T17:26:29Z</time></trkpt><trkpt lat="1.201975443367946" lon="-76.68070406648448"><ele>1013.0000000000001</ele><time>2026-04-26T17:26:30Z</time></trkpt><trkpt lat="1.20193883448515" lon="-76.68076599640249"><ele>1013.0</ele><time>2026-04-26T17:26:31Z</time></trkpt><trkpt lat="1.2019015702475" lon="-76.68082826129458"><ele>1013.0</ele><time>2026-04-26T17:26:32Z</time></trkpt><trkpt lat="1.201862740553694" lon="-76.68088876984196"><ele>1013.0000000000001</ele><time>2026-04-26T17:26:33Z</time></trkpt><trkpt lat="1.201840600095682" lon="-76.68095460100847"><ele>1013.0</ele><time>2026-04-26T17:26:34Z</time></trkpt><trkpt lat="1.201786256223264" lon="-76.6810065655126"><ele>1013.0</ele><time>2026-04-26T17:26:35Z</time></trkpt><trkpt lat="1.2017485765542266" lon="-76.68106252930568"><ele>1016.2857142857143</ele><time>2026-04-26T17:26:36Z</time></trkpt><trkpt lat="1.2017132697329957" lon="-76.68112289898656"><ele>1019.5714285714287</ele><time>2026-04-26T17:26:37Z</time></trkpt><trkpt lat="1.2016732016437794" lon="-76.68117834273409"><ele>1022.8571428571429</ele><time>2026-04-26T17:26:38Z</time></trkpt><trkpt lat="1.201623997464097" lon="-76.6812329034017"><ele>1026.142857142857</ele><time>2026-04-26T17:26:39Z</time></trkpt><trkpt lat="1.2015726848737835" lon="-76.68128318372887"><ele>1029.4285714285716</ele><time>2026-04-26T17:26:40Z</time></trkpt><trkpt lat="1.2015182652191745" lon="-76.68133291558739"><ele>1032.7142857142858</ele><time>2026-04-26T17:26:41Z</time></trkpt><trkpt lat="1.2014643999267258" lon="-76.68138357338223"><ele>1036.0</ele><time>2026-04-26T17:26:42Z</time></trkpt><trkpt lat="1.201406012296525" lon="-76.68143103928506"><ele>1036.5</ele><time>2026-04-26T17:26:43Z</time></trkpt><trkpt lat="1.2013487275132726" lon="-76.68146882768667"><ele>1037.0</ele><time>2026-04-26T17:26:44Z</time></trkpt><trkpt lat="1.201280786400074" lon="-76.68150312836231"><ele>1037.5</ele><time>2026-04-26T17:26:45Z</time></trkpt><trkpt lat="1.2012087046904927" lon="-76.6815254542938"><ele>1038.0</ele><time>2026-04-26T17:26:46Z</time></trkpt><trkpt lat="1.20113384743987" lon="-76.68153594716571"><ele>1038.5</ele><time>2026-04-26T17:26:47Z</time></trkpt><trkpt lat="1.2010575154036707" lon="-76.68153714962074"><ele>1039.0</ele><time>2026-04-26T17:26:48Z</time></trkpt><trkpt lat="1.2009783914533065" lon="-76.68153709980388"><ele>1039.0</ele><time>2026-04-26T17:26:49Z</time></trkpt><trkpt lat="1.2008998086332008" lon="-76.68153380967566"><ele>1039.0</ele><time>2026-04-26T17:26:50Z</time></trkpt><trkpt lat="1.2008233126881123" lon="-76.6815343765294"><ele>1039.0</ele><time>2026-04-26T17:26:51Z</time></trkpt><trkpt lat="1.2007555737661486" lon="-76.6815499778788"><ele>1039.0</ele><time>2026-04-26T17:26:52Z</time></trkpt><trkpt lat="1.2006788361277678" lon="-76.68150989638843"><ele>1039.0</ele><time>2026-04-26T17:26:53Z</time></trkpt><trkpt lat="1.2006049696850851" lon="-76.68148022112206"><ele>1039.0</ele><time>2026-04-26T17:26:54Z</time></trkpt><trkpt lat="1.2005285060694995" lon="-76.68145316506349"><ele>1041.2857142857142</ele><time>2026-04-26T17:26:55Z</time></trkpt><trkpt lat="1.2004596143483441" lon="-76.68142027450718"><ele>1043.5714285714284</ele><time>2026-04-26T17:26:56Z</time></trkpt><trkpt lat="1.2003911077084544" lon="-76.68138999134842"><ele>1045.857142857143</ele><time>2026-04-26T17:26:57Z</time></trkpt><trkpt lat="1.200322257153224" lon="-76.68135364965188"><ele>1048.142857142857</ele><time>2026-04-26T17:26:58Z</time></trkpt><trkpt lat="1.2002556416186807" lon="-76.68131185932607"><ele>1050.4285714285716</ele><time>2026-04-26T17:26:59Z</time></trkpt><trkpt lat="1.2001919702724058" lon="-76.68127397594193"><ele>1052.7142857142858</ele><time>2026-04-26T17:26:59.999Z</time></trkpt><trkpt lat="1.2001369924823453" lon="-76.68123480828848"><ele>1055.0</ele><time>2026-04-26T17:27:00.999Z</time></trkpt><trkpt lat="1.200064929816071" lon="-76.68119745213932"><ele>1055.0</ele><time>2026-04-26T17:27:01.999Z</time></trkpt><trkpt lat="1.199994122260216" lon="-76.68115996019087"><ele>1055.0</ele><time>2026-04-26T17:27:02.999Z</time></trkpt><trkpt lat="1.1999142953091486" lon="-76.68114413027601"><ele>1055.0</ele><time>2026-04-26T17:27:03.999Z</time></trkpt><trkpt lat="1.1998396826157576" lon="-76.68111289969542"><ele>1055.0</ele><time>2026-04-26T17:27:04.999Z</time></trkpt><trkpt lat="1.19976469208537" lon="-76.6810814222201"><ele>1055.0</ele><time>2026-04-26T17:27:05.999Z</time></trkpt><trkpt lat="1.1996897504224067" lon="-76.6810495841728"><ele>1055.0</ele><time>2026-04-26T17:27:06.999Z</time></trkpt><trkpt lat="1.199614503073553" lon="-76.68101769383182"><ele>1048.8333333333335</ele><time>2026-04-26T17:27:07.999Z</time></trkpt><trkpt lat="1.1995429356484606" lon="-76.68099940375178"><ele>1042.6666666666667</ele><time>2026-04-26T17:27:08.999Z</time></trkpt><trkpt lat="1.1994555558046254" lon="-76.68098727434801"><ele>1036.5</ele><time>2026-04-26T17:27:09.999Z</time></trkpt><trkpt lat="1.1993790075640602" lon="-76.68097856637779"><ele>1030.3333333333333</ele><time>2026-04-26T17:27:10.999Z</time></trkpt><trkpt lat="1.1993077241722963" lon="-76.68096187230265"><ele>1024.1666666666665</ele><time>2026-04-26T17:27:11.999Z</time></trkpt><trkpt lat="1.1992304845031547" lon="-76.68096280530915"><ele>1018.0</ele><time>2026-04-26T17:27:12.999Z</time></trkpt><trkpt lat="1.1991504872439118" lon="-76.68096381044175"><ele>1017.9999999999999</ele><time>2026-04-26T17:27:13.999Z</time></trkpt><trkpt lat="1.1990721450669601" lon="-76.68096558405674"><ele>1018.0</ele><time>2026-04-26T17:27:14.999Z</time></trkpt><trkpt lat="1.1989922678309912" lon="-76.68097017560139"><ele>1018.0</ele><time>2026-04-26T17:27:15.999Z</time></trkpt><trkpt lat="1.1989125962312759" lon="-76.68097398546442"><ele>1018.0</ele><time>2026-04-26T17:27:16.999Z</time></trkpt><trkpt lat="1.1988318281130368" lon="-76.68097485411668"><ele>1017.9999999999999</ele><time>2026-04-26T17:27:17.999Z</time></trkpt><trkpt lat="1.198751106319136" lon="-76.68097726258146"><ele>1018.0</ele><time>2026-04-26T17:27:18.999Z</time></trkpt><trkpt lat="1.1986699654927744" lon="-76.68098201352362"><ele>1017.4999999999999</ele><time>2026-04-26T17:27:19.999Z</time></trkpt><trkpt lat="1.1985893612398328" lon="-76.68098169119854"><ele>1017.0</ele><time>2026-04-26T17:27:20.999Z</time></trkpt><trkpt lat="1.1985083349458578" lon="-76.68097736746755"><ele>1016.5</ele><time>2026-04-26T17:27:21.999Z</time></trkpt><trkpt lat="1.1984257941920615" lon="-76.68097059594355"><ele>1016.0</ele><time>2026-04-26T17:27:22.999Z</time></trkpt><trkpt lat="1.1983451045613667" lon="-76.68095649083165"><ele>1015.4999999999999</ele><time>2026-04-26T17:27:23.999Z</time></trkpt><trkpt lat="1.1982662888823352" lon="-76.68093982707002"><ele>1015.0</ele><time>2026-04-26T17:27:24.999Z</time></trkpt><trkpt lat="1.198183720518805" lon="-76.68093397631627"><ele>1015.1428571428571</ele><time>2026-04-26T17:27:25.999Z</time></trkpt><trkpt lat="1.198104441864411" lon="-76.68089685891317"><ele>1015.2857142857142</ele><time>2026-04-26T17:27:26.999Z</time></trkpt><trkpt lat="1.1980348352114223" lon="-76.68087099735013"><ele>1015.4285714285714</ele><time>2026-04-26T17:27:27.999Z</time></trkpt><trkpt lat="1.1979599716682028" lon="-76.68084541786956"><ele>1015.5714285714286</ele><time>2026-04-26T17:27:28.999Z</time></trkpt><trkpt lat="1.1978981948139455" lon="-76.68082712453447"><ele>1015.7142857142857</ele><time>2026-04-26T17:27:29.999Z</time></trkpt><trkpt lat="1.1978314585838088" lon="-76.68080319853625"><ele>1015.8571428571429</ele><time>2026-04-26T17:27:30.999Z</time></trkpt><trkpt lat="1.1977679955645872" lon="-76.68077527952212"><ele>1016.0</ele><time>2026-04-26T17:27:31.999Z</time></trkpt><trkpt lat="1.1977003094581224" lon="-76.68076460814218"><ele>1016.0</ele><time>2026-04-26T17:27:32.999Z</time></trkpt><trkpt lat="1.1976372572553025" lon="-76.68074245238323"><ele>1016.0</ele><time>2026-04-26T17:27:33.999Z</time></trkpt><trkpt lat="1.1975759670139858" lon="-76.68070655245441"><ele>1016.0</ele><time>2026-04-26T17:27:34.999Z</time></trkpt><trkpt lat="1.1975108371527827" lon="-76.68069438769245"><ele>1016.0</ele><time>2026-04-26T17:27:35.999Z</time></trkpt><trkpt lat="1.197439513006655" lon="-76.6806835369569"><ele>1016.0</ele><time>2026-04-26T17:27:36.999Z</time></trkpt><trkpt lat="1.1973655974570547" lon="-76.6806812008808"><ele>1016.0</ele><time>2026-04-26T17:27:37.999Z</time></trkpt><trkpt lat="1.1972970688533568" lon="-76.6806792655679"><ele>1016.0</ele><time>2026-04-26T17:27:38.999Z</time></trkpt><trkpt lat="1.197232341363899" lon="-76.68065480718994"><ele>1015.5000000000001</ele><time>2026-04-26T17:27:39.999Z</time></trkpt><trkpt lat="1.1971626261474766" lon="-76.68065419852894"><ele>1015.0</ele><time>2026-04-26T17:27:40.999Z</time></trkpt><trkpt lat="1.1970864254509241" lon="-76.68065353324128"><ele>1014.5</ele><time>2026-04-26T17:27:41.999Z</time></trkpt><trkpt lat="1.1970053849067968" lon="-76.68067831419953"><ele>1014.0</ele><time>2026-04-26T17:27:42.999Z</time></trkpt><trkpt lat="1.1969367342071036" lon="-76.68073114732042"><ele>1013.5000000000001</ele><time>2026-04-26T17:27:43.999Z</time></trkpt><trkpt lat="1.1968559535727947" lon="-76.68075947544808"><ele>1013.0</ele><time>2026-04-26T17:27:44.999Z</time></trkpt><trkpt lat="1.1967815985438988" lon="-76.68079149946365"><ele>1013.0000000000001</ele><time>2026-04-26T17:27:45.999Z</time></trkpt><trkpt lat="1.1967101224444683" lon="-76.68081660699393"><ele>1013.0</ele><time>2026-04-26T17:27:47Z</time></trkpt><trkpt lat="1.1965963904846213" lon="-76.68085255893024"><ele>1013.0</ele><time>2026-04-26T17:27:49Z</time></trkpt><trkpt lat="1.1965270357315418" lon="-76.68086763772713"><ele>1013.0</ele><time>2026-04-26T17:27:50Z</time></trkpt><trkpt lat="1.196459455443826" lon="-76.68087464291074"><ele>1013.0000000000001</ele><time>2026-04-26T17:27:51Z</time></trkpt><trkpt lat="1.1963927767753848" lon="-76.68086577221324"><ele>1013.0</ele><time>2026-04-26T17:27:52Z</time></trkpt><trkpt lat="1.196326629808465" lon="-76.68085039245022"><ele>1013.5714285714287</ele><time>2026-04-26T17:27:53Z</time></trkpt><trkpt lat="1.196260623436336" lon="-76.68082906008031"><ele>1014.1428571428572</ele><time>2026-04-26T17:27:54Z</time></trkpt><trkpt lat="1.196204375373594" lon="-76.68079699960538"><ele>1014.7142857142858</ele><time>2026-04-26T17:27:55Z</time></trkpt><trkpt lat="1.1961475669057293" lon="-76.68075549360026"><ele>1015.2857142857142</ele><time>2026-04-26T17:27:56Z</time></trkpt><trkpt lat="1.1960987183579446" lon="-76.68071220552724"><ele>1015.8571428571428</ele><time>2026-04-26T17:27:57Z</time></trkpt><trkpt lat="1.196047019858651" lon="-76.68066219926749"><ele>1016.4285714285713</ele><time>2026-04-26T17:27:58Z</time></trkpt><trkpt lat="1.1960051466070751" lon="-76.6806093653072"><ele>1017.0</ele><time>2026-04-26T17:27:59Z</time></trkpt><trkpt lat="1.1959740757357342" lon="-76.68055006340556"><ele>1017.0</ele><time>2026-04-26T17:28:00Z</time></trkpt><trkpt lat="1.1959574843515364" lon="-76.68048566036725"><ele>1016.9999999999999</ele><time>2026-04-26T17:28:01Z</time></trkpt><trkpt lat="1.1959428042017122" lon="-76.68041983570986"><ele>1017.0</ele><time>2026-04-26T17:28:02Z</time></trkpt><trkpt lat="1.1959391766684053" lon="-76.68035587821059"><ele>1017.0</ele><time>2026-04-26T17:28:03Z</time></trkpt><trkpt lat="1.1959413617205914" lon="-76.68029156876342"><ele>1016.9999999999999</ele><time>2026-04-26T17:28:04Z</time></trkpt><trkpt lat="1.1959491145405472" lon="-76.68022800843706"><ele>1017.0</ele><time>2026-04-26T17:28:05Z</time></trkpt><trkpt lat="1.1959811468263966" lon="-76.68012442755752"><ele>1017.0</ele><time>2026-04-26T17:28:07Z</time></trkpt><trkpt lat="1.1960148181348287" lon="-76.68005413051371"><ele>1016.3333333333334</ele><time>2026-04-26T17:28:09Z</time></trkpt><trkpt lat="1.1960400838526597" lon="-76.67999510135192"><ele>1015.6666666666667</ele><time>2026-04-26T17:28:13Z</time></trkpt><trkpt lat="1.1960601431836193" lon="-76.67993021271397"><ele>1015.0</ele><time>2026-04-26T17:28:22Z</time></trkpt><trkpt lat="1.196100807827361" lon="-76.67986921577081"><ele>1014.3333333333334</ele><time>2026-04-26T17:29:40.999Z</time></trkpt><trkpt lat="1.1961496728673593" lon="-76.67980457970295"><ele>1013.6666666666667</ele><time>2026-04-26T17:29:44.999Z</time></trkpt><trkpt lat="1.1962091415077676" lon="-76.67968285287029"><ele>1013.0</ele><time>2026-04-26T17:29:46.999Z</time></trkpt><trkpt lat="1.1962676906173464" lon="-76.67957004204281"><ele>1011.0</ele><time>2026-04-26T17:29:47.999Z</time></trkpt><trkpt lat="1.1963375412826123" lon="-76.67943339909232"><ele>1009.0</ele><time>2026-04-26T17:29:48.999Z</time></trkpt><trkpt lat="1.1964004160311965" lon="-76.67931220376948"><ele>1007.0</ele><time>2026-04-26T17:29:49.999Z</time></trkpt><trkpt lat="1.196457793849439" lon="-76.67920982017499"><ele>1005.0</ele><time>2026-04-26T17:29:50.999Z</time></trkpt><trkpt lat="1.1965138621429137" lon="-76.67911133176614"><ele>1005.0</ele><time>2026-04-26T17:29:51.999Z</time></trkpt><trkpt lat="1.1965644650270344" lon="-76.6790241846494"><ele>1005.0</ele><time>2026-04-26T17:29:53Z</time></trkpt><trkpt lat="1.1966170177342996" lon="-76.67894505694615"><ele>1005.0</ele><time>2026-04-26T17:29:54Z</time></trkpt><trkpt lat="1.1966508099811417" lon="-76.6788508392743"><ele>1005.0</ele><time>2026-04-26T17:29:55Z</time></trkpt><trkpt lat="1.196711270767667" lon="-76.67877513661239"><ele>1005.0</ele><time>2026-04-26T17:29:56Z</time></trkpt><trkpt lat="1.1967493701455283" lon="-76.67869585562849"><ele>1005.0</ele><time>2026-04-26T17:29:57Z</time></trkpt><trkpt lat="1.1967911025064932" lon="-76.67861517621577"><ele>1005.0</ele><time>2026-04-26T17:29:58Z</time></trkpt><trkpt lat="1.1968407001788908" lon="-76.67853543067447"><ele>1005.0</ele><time>2026-04-26T17:29:59Z</time></trkpt><trkpt lat="1.1968952026374282" lon="-76.6784563079987"><ele>1005.0</ele><time>2026-04-26T17:30:00Z</time></trkpt><trkpt lat="1.1969506351457124" lon="-76.67837616412417"><ele>1005.0</ele><time>2026-04-26T17:30:01Z</time></trkpt><trkpt lat="1.1970080047491651" lon="-76.67829681163919"><ele>1004.4</ele><time>2026-04-26T17:30:02Z</time></trkpt><trkpt lat="1.1970677975464246" lon="-76.6782184655194"><ele>1003.8</ele><time>2026-04-26T17:30:03Z</time></trkpt><trkpt lat="1.1971342790412403" lon="-76.67814838224348"><ele>1003.2</ele><time>2026-04-26T17:30:04Z</time></trkpt><trkpt lat="1.1972053621753938" lon="-76.67808351615162"><ele>1002.6</ele><time>2026-04-26T17:30:05Z</time></trkpt><trkpt lat="1.1972797817687721" lon="-76.67802509445927"><ele>1002.0</ele><time>2026-04-26T17:30:06Z</time></trkpt><trkpt lat="1.1973558916195504" lon="-76.67796308541297"><ele>1002.0</ele><time>2026-04-26T17:30:07Z</time></trkpt><trkpt lat="1.1974285140174938" lon="-76.67790230826373"><ele>1002.0</ele><time>2026-04-26T17:30:08Z</time></trkpt><trkpt lat="1.1975014897825416" lon="-76.67784804520115"><ele>1002.0</ele><time>2026-04-26T17:30:09Z</time></trkpt><trkpt lat="1.1975713369307175" lon="-76.67779464501902"><ele>1002.0</ele><time>2026-04-26T17:30:10Z</time></trkpt><trkpt lat="1.197635784642128" lon="-76.67774207977685"><ele>1002.0</ele><time>2026-04-26T17:30:11Z</time></trkpt><trkpt lat="1.1976976616596284" lon="-76.67769610627744"><ele>1002.0</ele><time>2026-04-26T17:30:12Z</time></trkpt><trkpt lat="1.197760995355558" lon="-76.67765326808198"><ele>1004.8</ele><time>2026-04-26T17:30:13Z</time></trkpt><trkpt lat="1.1978239880189099" lon="-76.67760468312932"><ele>1007.6</ele><time>2026-04-26T17:30:14Z</time></trkpt><trkpt lat="1.1978840065598495" lon="-76.6775558110472"><ele>1010.3999999999999</ele><time>2026-04-26T17:30:15Z</time></trkpt><trkpt lat="1.1979398601100626" lon="-76.67751033986441"><ele>1013.1999999999999</ele><time>2026-04-26T17:30:16Z</time></trkpt><trkpt lat="1.1980174719292753" lon="-76.67743610774032"><ele>1016.0</ele><time>2026-04-26T17:30:18Z</time></trkpt><trkpt lat="1.1981048322306336" lon="-76.67734821999677"><ele>1016.0</ele><time>2026-04-26T17:30:20Z</time></trkpt><trkpt lat="1.1981526627118877" lon="-76.67729503843258"><ele>1016.0</ele><time>2026-04-26T17:30:21Z</time></trkpt><trkpt lat="1.1981984136089947" lon="-76.67724615307307"><ele>1016.0</ele><time>2026-04-26T17:30:22Z</time></trkpt><trkpt lat="1.1982441167789961" lon="-76.677195977776"><ele>1016.0</ele><time>2026-04-26T17:30:23Z</time></trkpt><trkpt lat="1.1982848313680208" lon="-76.67714368702156"><ele>1016.0</ele><time>2026-04-26T17:30:24Z</time></trkpt><trkpt lat="1.1983284382375108" lon="-76.67708461621838"><ele>1016.0</ele><time>2026-04-26T17:30:25Z</time></trkpt><trkpt lat="1.1983746142468588" lon="-76.67702326417006"><ele>1016.0</ele><time>2026-04-26T17:30:26Z</time></trkpt><trkpt lat="1.1984202232213341" lon="-76.67696061909105"><ele>1014.6666666666667</ele><time>2026-04-26T17:30:27Z</time></trkpt><trkpt lat="1.1984689697878474" lon="-76.67689579863412"><ele>1013.3333333333334</ele><time>2026-04-26T17:30:28Z</time></trkpt><trkpt lat="1.1985173602548167" lon="-76.67683052683685"><ele>1012.0</ele><time>2026-04-26T17:30:29Z</time></trkpt><trkpt lat="1.1985656241270348" lon="-76.67676951267141"><ele>1010.6666666666667</ele><time>2026-04-26T17:30:30Z</time></trkpt><trkpt lat="1.1986179643419674" lon="-76.6767072401181"><ele>1009.3333333333334</ele><time>2026-04-26T17:30:31Z</time></trkpt><trkpt lat="1.1986685894866782" lon="-76.67664461715589"><ele>1008.0</ele><time>2026-04-26T17:30:32Z</time></trkpt><trkpt lat="1.1987177973921415" lon="-76.67658439113475"><ele>1008.0</ele><time>2026-04-26T17:30:33Z</time></trkpt><trkpt lat="1.198766401312336" lon="-76.67652460300701"><ele>1008.0</ele><time>2026-04-26T17:30:34Z</time></trkpt><trkpt lat="1.1988145676013495" lon="-76.67646492168622"><ele>1008.0</ele><time>2026-04-26T17:30:35Z</time></trkpt><trkpt lat="1.1988636671960173" lon="-76.67639665331917"><ele>1008.0</ele><time>2026-04-26T17:30:36Z</time></trkpt><trkpt lat="1.1989075784350314" lon="-76.67633299388326"><ele>1008.0</ele><time>2026-04-26T17:30:37Z</time></trkpt><trkpt lat="1.198957608881093" lon="-76.67627363552101"><ele>1008.0</ele><time>2026-04-26T17:30:38Z</time></trkpt><trkpt lat="1.1990083127871436" lon="-76.67622512173065"><ele>1009.3333333333334</ele><time>2026-04-26T17:30:39Z</time></trkpt><trkpt lat="1.199057287192653" lon="-76.67617699888645"><ele>1010.6666666666667</ele><time>2026-04-26T17:30:40Z</time></trkpt><trkpt lat="1.199104495888711" lon="-76.67613455862337"><ele>1012.0</ele><time>2026-04-26T17:30:41Z</time></trkpt><trkpt lat="1.199159690509207" lon="-76.67610191499712"><ele>1013.3333333333334</ele><time>2026-04-26T17:30:42Z</time></trkpt><trkpt lat="1.1992632938743641" lon="-76.67602839723274"><ele>1014.6666666666667</ele><time>2026-04-26T17:30:44Z</time></trkpt><trkpt lat="1.1993792229928915" lon="-76.67599635717838"><ele>1016.0</ele><time>2026-04-26T17:30:46Z</time></trkpt><trkpt lat="1.199443999432351" lon="-76.67600098576519"><ele>1016.0000000000001</ele><time>2026-04-26T17:30:47Z</time></trkpt><trkpt lat="1.1995077486882542" lon="-76.67598895734038"><ele>1016.0</ele><time>2026-04-26T17:30:48Z</time></trkpt><trkpt lat="1.199570044203547" lon="-76.67597425132863"><ele>1016.0</ele><time>2026-04-26T17:30:49Z</time></trkpt><trkpt lat="1.199670962255446" lon="-76.67597241699973"><ele>1016.0</ele><time>2026-04-26T17:30:51Z</time></trkpt><trkpt lat="1.1997429684997067" lon="-76.67596130657678"><ele>1016.0000000000001</ele><time>2026-04-26T17:30:53Z</time></trkpt><trkpt lat="1.199805149013418" lon="-76.67594809048204"><ele>1016.0</ele><time>2026-04-26T17:30:55Z</time></trkpt><trkpt lat="1.1998898240951728" lon="-76.67592118937964"><ele>1014.1428571428571</ele><time>2026-04-26T17:30:58Z</time></trkpt><trkpt lat="1.199962783620933" lon="-76.67591563403491"><ele>1012.2857142857142</ele><time>2026-04-26T17:31:01Z</time></trkpt><trkpt lat="1.2000344716951294" lon="-76.67588653627807"><ele>1010.4285714285713</ele><time>2026-04-26T17:31:05Z</time></trkpt><trkpt lat="1.2000940710794012" lon="-76.67585701304415"><ele>1008.5714285714286</ele><time>2026-04-26T17:31:08Z</time></trkpt><trkpt lat="1.2001494043118734" lon="-76.67581584450843"><ele>1006.7142857142856</ele><time>2026-04-26T17:31:12Z</time></trkpt><trkpt lat="1.200202117287692" lon="-76.67576899570427"><ele>1004.8571428571428</ele><time>2026-04-26T17:31:16Z</time></trkpt><trkpt lat="1.2002547897313962" lon="-76.67571303261636"><ele>1003.0</ele><time>2026-04-26T17:31:19.999Z</time></trkpt><trkpt lat="1.2003031338734582" lon="-76.6756530203796"><ele>1003.0</ele><time>2026-04-26T17:31:23.999Z</time></trkpt><trkpt lat="1.200357782350633" lon="-76.67559478933464"><ele>1003.0</ele><time>2026-04-26T17:31:27.999Z</time></trkpt><trkpt lat="1.2004197019220206" lon="-76.67550305153222"><ele>1003.0</ele><time>2026-04-26T17:31:30.999Z</time></trkpt><trkpt lat="1.200467788078816" lon="-76.67543214129874"><ele>1003.0</ele><time>2026-04-26T17:31:31.999Z</time></trkpt><trkpt lat="1.2005148632781246" lon="-76.675361217857"><ele>1003.0</ele><time>2026-04-26T17:31:32.999Z</time></trkpt><trkpt lat="1.2005715286624143" lon="-76.6752879411099"><ele>1006.3333333333333</ele><time>2026-04-26T17:31:33.999Z</time></trkpt><trkpt lat="1.2006140557141858" lon="-76.67522445808669"><ele>1009.6666666666666</ele><time>2026-04-26T17:31:34.999Z</time></trkpt><trkpt lat="1.2006754645220972" lon="-76.67517029299191"><ele>1013.0</ele><time>2026-04-26T17:31:35.999Z</time></trkpt><trkpt lat="1.200707918164315" lon="-76.67508394657554"><ele>1016.3333333333333</ele><time>2026-04-26T17:31:36.999Z</time></trkpt><trkpt lat="1.2007713714900772" lon="-76.6750199340017"><ele>1019.6666666666666</ele><time>2026-04-26T17:31:37.999Z</time></trkpt><trkpt lat="1.2008250147122037" lon="-76.67494336529433"><ele>1023.0</ele><time>2026-04-26T17:31:38.999Z</time></trkpt><trkpt lat="1.2008742359974853" lon="-76.67487320858642"><ele>1014.5999999999999</ele><time>2026-04-26T17:31:39.999Z</time></trkpt><trkpt lat="1.2009283933337878" lon="-76.67479620857921"><ele>1006.1999999999999</ele><time>2026-04-26T17:31:40.999Z</time></trkpt><trkpt lat="1.2009799125073297" lon="-76.67472295945917"><ele>997.8</ele><time>2026-04-26T17:31:41.999Z</time></trkpt><trkpt lat="1.2010345646458502" lon="-76.67464521288927"><ele>989.4</ele><time>2026-04-26T17:31:42.999Z</time></trkpt><trkpt lat="1.201086881287657" lon="-76.67457078451905"><ele>981.0</ele><time>2026-04-26T17:31:43.999Z</time></trkpt><trkpt lat="1.2011399285905207" lon="-76.67449531667161"><ele>985.0</ele><time>2026-04-26T17:31:44.999Z</time></trkpt><trkpt lat="1.201188232494913" lon="-76.6744129209834"><ele>988.9999999999999</ele><time>2026-04-26T17:31:45.999Z</time></trkpt><trkpt lat="1.201215549376645" lon="-76.67432794420755"><ele>992.9999999999999</ele><time>2026-04-26T17:31:46.999Z</time></trkpt><trkpt lat="1.2012607428545898" lon="-76.67424724133046"><ele>997.0</ele><time>2026-04-26T17:31:47.999Z</time></trkpt><trkpt lat="1.2013106558616822" lon="-76.67416965659517"><ele>1001.0</ele><time>2026-04-26T17:31:48.999Z</time></trkpt><trkpt lat="1.201325620736317" lon="-76.67407510163399"><ele>1001.0</ele><time>2026-04-26T17:31:49.999Z</time></trkpt><trkpt lat="1.2013550794010597" lon="-76.67398210598792"><ele>1000.9999999999999</ele><time>2026-04-26T17:31:50.999Z</time></trkpt><trkpt lat="1.2013699238133597" lon="-76.6738855520358"><ele>1000.9999999999999</ele><time>2026-04-26T17:31:51.999Z</time></trkpt><trkpt lat="1.2013809776973248" lon="-76.6737938416713"><ele>1001.0</ele><time>2026-04-26T17:31:52.999Z</time></trkpt><trkpt lat="1.2013947740852668" lon="-76.6737010033971"><ele>1001.0</ele><time>2026-04-26T17:31:53.999Z</time></trkpt><trkpt lat="1.2014076122386974" lon="-76.67360363381391"><ele>1002.4</ele><time>2026-04-26T17:31:54.999Z</time></trkpt><trkpt lat="1.2014190641101814" lon="-76.67351045005087"><ele>1003.8</ele><time>2026-04-26T17:31:55.999Z</time></trkpt><trkpt lat="1.2014243978515469" lon="-76.67341488292487"><ele>1005.1999999999999</ele><time>2026-04-26T17:31:56.999Z</time></trkpt><trkpt lat="1.2014290200740083" lon="-76.67331532612482"><ele>1006.5999999999999</ele><time>2026-04-26T17:31:58Z</time></trkpt><trkpt lat="1.2014419385891104" lon="-76.67321437468281"><ele>1008.0</ele><time>2026-04-26T17:31:59Z</time></trkpt><trkpt lat="1.201455718074653" lon="-76.67311160524899"><ele>1008.0</ele><time>2026-04-26T17:32:00Z</time></trkpt><trkpt lat="1.2014750824918883" lon="-76.67301092407865"><ele>1008.0</ele><time>2026-04-26T17:32:01Z</time></trkpt><trkpt lat="1.2015029745468393" lon="-76.67291290140795"><ele>1008.0</ele><time>2026-04-26T17:32:02Z</time></trkpt><trkpt lat="1.201537912706859" lon="-76.67281791338362"><ele>1008.0</ele><time>2026-04-26T17:32:03Z</time></trkpt><trkpt lat="1.2015831672368833" lon="-76.6727316888012"><ele>1008.0</ele><time>2026-04-26T17:32:04Z</time></trkpt><trkpt lat="1.201636512781904" lon="-76.67265911360867"><ele>1005.0</ele><time>2026-04-26T17:32:05Z</time></trkpt><trkpt lat="1.201699073685485" lon="-76.67258817398775"><ele>1002.0</ele><time>2026-04-26T17:32:06Z</time></trkpt><trkpt lat="1.2017666023180766" lon="-76.67251991846612"><ele>999.0</ele><time>2026-04-26T17:32:07Z</time></trkpt><trkpt lat="1.2018398188506516" lon="-76.67245448795792"><ele>996.0</ele><time>2026-04-26T17:32:08Z</time></trkpt><trkpt lat="1.2019190773403616" lon="-76.6723932940408"><ele>993.0</ele><time>2026-04-26T17:32:09Z</time></trkpt><trkpt lat="1.2019995356737792" lon="-76.67233783233304"><ele>993.0</ele><time>2026-04-26T17:32:10Z</time></trkpt><trkpt lat="1.2020758964446996" lon="-76.6722777605797"><ele>993.0</ele><time>2026-04-26T17:32:11Z</time></trkpt><trkpt lat="1.202151977265175" lon="-76.67221664184355"><ele>993.0</ele><time>2026-04-26T17:32:12Z</time></trkpt><trkpt lat="1.2022299599512585" lon="-76.67215699896174"><ele>993.0</ele><time>2026-04-26T17:32:13Z</time></trkpt><trkpt lat="1.2023067597052672" lon="-76.67209271535465"><ele>993.0</ele><time>2026-04-26T17:32:14Z</time></trkpt><trkpt lat="1.2023908941770505" lon="-76.67204417465601"><ele>992.2</ele><time>2026-04-26T17:32:15Z</time></trkpt><trkpt lat="1.202467565285893" lon="-76.67199121097549"><ele>991.4</ele><time>2026-04-26T17:32:16Z</time></trkpt><trkpt lat="1.2025462577058295" lon="-76.67193598732239"><ele>990.6000000000001</ele><time>2026-04-26T17:32:17Z</time></trkpt><trkpt lat="1.2026256838984215" lon="-76.67188110676966"><ele>989.8000000000001</ele><time>2026-04-26T17:32:18Z</time></trkpt><trkpt lat="1.2026998593117" lon="-76.67182922560929"><ele>989.0</ele><time>2026-04-26T17:32:19Z</time></trkpt><trkpt lat="1.2027764425285274" lon="-76.67177645707095"><ele>989.0</ele><time>2026-04-26T17:32:20Z</time></trkpt><trkpt lat="1.2028523363922194" lon="-76.6717232398365"><ele>989.0000000000001</ele><time>2026-04-26T17:32:21Z</time></trkpt><trkpt lat="1.2029267481621722" lon="-76.67167106185758"><ele>989.0000000000001</ele><time>2026-04-26T17:32:22Z</time></trkpt><trkpt lat="1.2030034465766708" lon="-76.67161754741205"><ele>989.0</ele><time>2026-04-26T17:32:23Z</time></trkpt><trkpt lat="1.2030656289876713" lon="-76.67154078317807"><ele>989.0</ele><time>2026-04-26T17:32:24Z</time></trkpt><trkpt lat="1.2031201364524478" lon="-76.67147082051108"><ele>988.2</ele><time>2026-04-26T17:32:25Z</time></trkpt><trkpt lat="1.2031747748895807" lon="-76.67140054726651"><ele>987.4000000000001</ele><time>2026-04-26T17:32:26Z</time></trkpt><trkpt lat="1.2032027371383478" lon="-76.67131317292692"><ele>986.6</ele><time>2026-04-26T17:32:27Z</time></trkpt><trkpt lat="1.2032512399345194" lon="-76.67124091259579"><ele>985.8</ele><time>2026-04-26T17:32:28Z</time></trkpt><trkpt lat="1.2032550673211564" lon="-76.67114416740385"><ele>985.0</ele><time>2026-04-26T17:32:29Z</time></trkpt><trkpt lat="1.2032662791348037" lon="-76.67105252094537"><ele>985.0</ele><time>2026-04-26T17:32:30Z</time></trkpt><trkpt lat="1.2032662128656721" lon="-76.67095628697919"><ele>985.0</ele><time>2026-04-26T17:32:31Z</time></trkpt><trkpt lat="1.203256499446354" lon="-76.67086067319764"><ele>985.0</ele><time>2026-04-26T17:32:32Z</time></trkpt><trkpt lat="1.2032524772450586" lon="-76.67076325938184"><ele>985.0</ele><time>2026-04-26T17:32:33Z</time></trkpt><trkpt lat="1.2032458221332942" lon="-76.67065931469588"><ele>985.0</ele><time>2026-04-26T17:32:34Z</time></trkpt><trkpt lat="1.2032361696871259" lon="-76.67055530321241"><ele>985.0</ele><time>2026-04-26T17:32:35Z</time></trkpt><trkpt lat="1.203223997651481" lon="-76.67045366361607"><ele>985.0</ele><time>2026-04-26T17:32:36Z</time></trkpt><trkpt lat="1.203229836466079" lon="-76.67035143438187"><ele>985.0</ele><time>2026-04-26T17:32:37Z</time></trkpt><trkpt lat="1.2032278504755904" lon="-76.6702511154842"><ele>985.0</ele><time>2026-04-26T17:32:38Z</time></trkpt><trkpt lat="1.203218194197309" lon="-76.67015345126276"><ele>985.0</ele><time>2026-04-26T17:32:39Z</time></trkpt><trkpt lat="1.2032369871022128" lon="-76.67005790367841"><ele>986.2</ele><time>2026-04-26T17:32:40Z</time></trkpt><trkpt lat="1.2032611195416254" lon="-76.66995993345408"><ele>987.4</ele><time>2026-04-26T17:32:41Z</time></trkpt><trkpt lat="1.2032942909806945" lon="-76.66986214235982"><ele>988.5999999999999</ele><time>2026-04-26T17:32:42Z</time></trkpt><trkpt lat="1.2033410595236385" lon="-76.66976731910918"><ele>989.8</ele><time>2026-04-26T17:32:43Z</time></trkpt><trkpt lat="1.2033992099314965" lon="-76.66967365295373"><ele>991.0</ele><time>2026-04-26T17:32:44Z</time></trkpt><trkpt lat="1.2034636974061383" lon="-76.66959155617475"><ele>991.0</ele><time>2026-04-26T17:32:45Z</time></trkpt><trkpt lat="1.2035341071412784" lon="-76.66951043603152"><ele>991.0</ele><time>2026-04-26T17:32:46Z</time></trkpt><trkpt lat="1.2036086575633238" lon="-76.6694306708596"><ele>991.0</ele><time>2026-04-26T17:32:47Z</time></trkpt><trkpt lat="1.2036900246977549" lon="-76.66934795675671"><ele>991.0</ele><time>2026-04-26T17:32:48Z</time></trkpt><trkpt lat="1.2037746311186" lon="-76.6692637923713"><ele>991.5</ele><time>2026-04-26T17:32:49Z</time></trkpt><trkpt lat="1.20386044082603" lon="-76.66917849003724"><ele>992.0</ele><time>2026-04-26T17:32:50Z</time></trkpt><trkpt lat="1.2039321961136689" lon="-76.66907882748718"><ele>992.5</ele><time>2026-04-26T17:32:51Z</time></trkpt><trkpt lat="1.2040137207332524" lon="-76.66898940054564"><ele>993.0</ele><time>2026-04-26T17:32:52Z</time></trkpt><trkpt lat="1.2041038193839335" lon="-76.66890885195444"><ele>993.0</ele><time>2026-04-26T17:32:53Z</time></trkpt><trkpt lat="1.20417669375486" lon="-76.66881844159768"><ele>993.0</ele><time>2026-04-26T17:32:54Z</time></trkpt><trkpt lat="1.2042408793326322" lon="-76.66872453309193"><ele>993.0</ele><time>2026-04-26T17:32:55Z</time></trkpt><trkpt lat="1.20430524218759" lon="-76.66864026990673"><ele>993.0</ele><time>2026-04-26T17:32:56Z</time></trkpt><trkpt lat="1.2043369234339756" lon="-76.6685277403455"><ele>996.0</ele><time>2026-04-26T17:32:57Z</time></trkpt><trkpt lat="1.204362416960547" lon="-76.66842240161665"><ele>999.0</ele><time>2026-04-26T17:32:58Z</time></trkpt><trkpt lat="1.2043705795626904" lon="-76.66831438896116"><ele>1002.0</ele><time>2026-04-26T17:32:59Z</time></trkpt><trkpt lat="1.2043692627634877" lon="-76.66820216349653"><ele>1005.0</ele><time>2026-04-26T17:33:00Z</time></trkpt><trkpt lat="1.204337378685411" lon="-76.6680931801562"><ele>1008.0</ele><time>2026-04-26T17:33:01Z</time></trkpt><trkpt lat="1.2043138394595598" lon="-76.66798264037313"><ele>1008.0</ele><time>2026-04-26T17:33:02Z</time></trkpt><trkpt lat="1.2042997803380198" lon="-76.66787482148268"><ele>1008.0</ele><time>2026-04-26T17:33:03Z</time></trkpt><trkpt lat="1.204266675996465" lon="-76.66776299533758"><ele>1008.0</ele><time>2026-04-26T17:33:04Z</time></trkpt><trkpt lat="1.2042424596768653" lon="-76.66765856310015"><ele>1008.0</ele><time>2026-04-26T17:33:05Z</time></trkpt><trkpt lat="1.204223172919042" lon="-76.66756199326113"><ele>1008.0</ele><time>2026-04-26T17:33:06Z</time></trkpt><trkpt lat="1.2042077233411028" lon="-76.66747834821925"><ele>1009.0</ele><time>2026-04-26T17:33:07Z</time></trkpt><trkpt lat="1.20419056056808" lon="-76.6674016785461"><ele>1010.0</ele><time>2026-04-26T17:33:08Z</time></trkpt><trkpt lat="1.2041815386156938" lon="-76.66733342500771"><ele>1011.0</ele><time>2026-04-26T17:33:09Z</time></trkpt><trkpt lat="1.204158120015393" lon="-76.66723069380002"><ele>1012.0</ele><time>2026-04-26T17:33:11Z</time></trkpt><trkpt lat="1.2041763763247635" lon="-76.66713004660812"><ele>1013.0</ele><time>2026-04-26T17:33:13Z</time></trkpt><trkpt lat="1.2041905703022804" lon="-76.6670003441387"><ele>1013.0</ele><time>2026-04-26T17:33:15Z</time></trkpt><trkpt lat="1.2042467032046884" lon="-76.66703246754379"><ele>1013.0</ele><time>2026-04-26T17:33:44.999Z</time></trkpt><trkpt lat="1.2042845361380805" lon="-76.66694651706887"><ele>1013.0</ele><time>2026-04-26T17:37:22Z</time></trkpt><trkpt lat="1.2043099473863832" lon="-76.6668516051059"><ele>1013.0</ele><time>2026-04-26T17:37:24Z</time></trkpt><trkpt lat="1.2043433983173708" lon="-76.66672699556278"><ele>1013.0</ele><time>2026-04-26T17:37:26Z</time></trkpt><trkpt lat="1.2043605360745595" lon="-76.66666299129142"><ele>1015.4</ele><time>2026-04-26T17:37:27Z</time></trkpt><trkpt lat="1.2043788604740018" lon="-76.66660257058261"><ele>1017.8</ele><time>2026-04-26T17:37:28Z</time></trkpt><trkpt lat="1.2044109500238849" lon="-76.66647938577246"><ele>1020.2</ele><time>2026-04-26T17:37:30Z</time></trkpt><trkpt lat="1.204442190866091" lon="-76.66637807281876"><ele>1022.6</ele><time>2026-04-26T17:37:32Z</time></trkpt><trkpt lat="1.204478397440394" lon="-76.66627846612747"><ele>1025.0</ele><time>2026-04-26T17:37:34Z</time></trkpt><trkpt lat="1.2045087847966673" lon="-76.66617544723555"><ele>1027.0</ele><time>2026-04-26T17:37:36Z</time></trkpt><trkpt lat="1.2045383387035669" lon="-76.66605985351642"><ele>1029.0</ele><time>2026-04-26T17:37:38Z</time></trkpt><trkpt lat="1.2045411247720055" lon="-76.6659399575524"><ele>1031.0</ele><time>2026-04-26T17:37:40Z</time></trkpt><trkpt lat="1.2045222724346958" lon="-76.66582978170564"><ele>1033.0</ele><time>2026-04-26T17:37:42Z</time></trkpt><trkpt lat="1.2044842561159304" lon="-76.66572255891147"><ele>1033.0</ele><time>2026-04-26T17:37:44Z</time></trkpt><trkpt lat="1.204425767886267" lon="-76.66562309769378"><ele>1033.0</ele><time>2026-04-26T17:37:46Z</time></trkpt><trkpt lat="1.2043488962119246" lon="-76.66553144008158"><ele>1033.0</ele><time>2026-04-26T17:37:48Z</time></trkpt><trkpt lat="1.2042595086929035" lon="-76.66545636692699"><ele>1033.0</ele><time>2026-04-26T17:37:50Z</time></trkpt><trkpt lat="1.2041569084655177" lon="-76.66539261594217"><ele>1033.0</ele><time>2026-04-26T17:37:52Z</time></trkpt><trkpt lat="1.204042658000925" lon="-76.66534914923163"><ele>1033.0</ele><time>2026-04-26T17:37:54Z</time></trkpt><trkpt lat="1.2039316948595964" lon="-76.66532861734771"><ele>1033.0</ele><time>2026-04-26T17:37:55.999Z</time></trkpt><trkpt lat="1.2038083806863287" lon="-76.6653456307736"><ele>1033.0</ele><time>2026-04-26T17:37:57.999Z</time></trkpt><trkpt lat="1.2037446995505678" lon="-76.66535344890919"><ele>1033.0</ele><time>2026-04-26T17:37:58.999Z</time></trkpt><trkpt lat="1.2036799467632113" lon="-76.66534682112429"><ele>1034.0000000000002</ele><time>2026-04-26T17:37:59.999Z</time></trkpt><trkpt lat="1.203612618476991" lon="-76.66536052115734"><ele>1035.0</ele><time>2026-04-26T17:38:00.999Z</time></trkpt><trkpt lat="1.2035445527303503" lon="-76.6653786847984"><ele>1036.0</ele><time>2026-04-26T17:38:01.999Z</time></trkpt><trkpt lat="1.2034751473151417" lon="-76.66539570471816"><ele>1037.0</ele><time>2026-04-26T17:38:02.999Z</time></trkpt><trkpt lat="1.2034075632510273" lon="-76.66540968531494"><ele>1038.0</ele><time>2026-04-26T17:38:03.999Z</time></trkpt><trkpt lat="1.2033408469771862" lon="-76.6654270154322"><ele>1039.0000000000002</ele><time>2026-04-26T17:38:04.999Z</time></trkpt><trkpt lat="1.2032761321923966" lon="-76.66544383847375"><ele>1040.0</ele><time>2026-04-26T17:38:05.999Z</time></trkpt><trkpt lat="1.2032128076270405" lon="-76.66546323096915"><ele>1038.1428571428573</ele><time>2026-04-26T17:38:06.999Z</time></trkpt><trkpt lat="1.2031480962857626" lon="-76.66548112832396"><ele>1036.2857142857142</ele><time>2026-04-26T17:38:07.999Z</time></trkpt><trkpt lat="1.2030854638764228" lon="-76.66550127501212"><ele>1034.4285714285716</ele><time>2026-04-26T17:38:08.999Z</time></trkpt><trkpt lat="1.2030236254706639" lon="-76.66552352242094"><ele>1032.5714285714287</ele><time>2026-04-26T17:38:09.999Z</time></trkpt><trkpt lat="1.202959567805629" lon="-76.66553983037636"><ele>1030.7142857142858</ele><time>2026-04-26T17:38:10.999Z</time></trkpt><trkpt lat="1.2028956687156154" lon="-76.66555820349649"><ele>1028.857142857143</ele><time>2026-04-26T17:38:11.999Z</time></trkpt><trkpt lat="1.2028328371316186" lon="-76.66557624334241"><ele>1027.0</ele><time>2026-04-26T17:38:12.999Z</time></trkpt><trkpt lat="1.2027674686930252" lon="-76.66559773382808"><ele>1027.0</ele><time>2026-04-26T17:38:13.999Z</time></trkpt><trkpt lat="1.202702088040972" lon="-76.66561657627416"><ele>1027.0</ele><time>2026-04-26T17:38:14.999Z</time></trkpt><trkpt lat="1.2026357924049682" lon="-76.66563645662602"><ele>1027.0</ele><time>2026-04-26T17:38:16Z</time></trkpt><trkpt lat="1.2025684089525672" lon="-76.66565333664568"><ele>1027.0</ele><time>2026-04-26T17:38:17Z</time></trkpt><trkpt lat="1.2025018447489069" lon="-76.66566773035038"><ele>1027.0</ele><time>2026-04-26T17:38:18Z</time></trkpt><trkpt lat="1.20243341595669" lon="-76.66568427489698"><ele>1027.0</ele><time>2026-04-26T17:38:19Z</time></trkpt><trkpt lat="1.202366586624748" lon="-76.66569891345858"><ele>1027.0</ele><time>2026-04-26T17:38:20Z</time></trkpt><trkpt lat="1.202302622899798" lon="-76.66571380417487"><ele>1025.857142857143</ele><time>2026-04-26T17:38:21Z</time></trkpt><trkpt lat="1.2022389381519076" lon="-76.665729924298"><ele>1024.7142857142858</ele><time>2026-04-26T17:38:22Z</time></trkpt><trkpt lat="1.2021694506266727" lon="-76.66573940382574"><ele>1023.5714285714287</ele><time>2026-04-26T17:38:23Z</time></trkpt><trkpt lat="1.2020989750879811" lon="-76.66574939369539"><ele>1022.4285714285716</ele><time>2026-04-26T17:38:24Z</time></trkpt><trkpt lat="1.20201913426539" lon="-76.66575303252667"><ele>1021.2857142857143</ele><time>2026-04-26T17:38:25Z</time></trkpt><trkpt lat="1.2019413170838278" lon="-76.66575830123443"><ele>1020.1428571428573</ele><time>2026-04-26T17:38:26Z</time></trkpt><trkpt lat="1.201863026531867" lon="-76.66575882678606"><ele>1019.0000000000001</ele><time>2026-04-26T17:38:27Z</time></trkpt><trkpt lat="1.2017867295802984" lon="-76.66576629555557"><ele>1019.0000000000001</ele><time>2026-04-26T17:38:28Z</time></trkpt><trkpt lat="1.2017147386822085" lon="-76.66577039224977"><ele>1019.0</ele><time>2026-04-26T17:38:29Z</time></trkpt><trkpt lat="1.2016435954460645" lon="-76.66577324154179"><ele>1019.0</ele><time>2026-04-26T17:38:30Z</time></trkpt><trkpt lat="1.2015669394161488" lon="-76.66577524579294"><ele>1019.0</ele><time>2026-04-26T17:38:31Z</time></trkpt><trkpt lat="1.2014876114699022" lon="-76.66577741758886"><ele>1019.0000000000001</ele><time>2026-04-26T17:38:32Z</time></trkpt><trkpt lat="1.2014031577069244" lon="-76.66578289652671"><ele>1019.0</ele><time>2026-04-26T17:38:33Z</time></trkpt><trkpt lat="1.2013274767327793" lon="-76.66579764329292"><ele>1015.0000000000001</ele><time>2026-04-26T17:38:34Z</time></trkpt><trkpt lat="1.2012510401958527" lon="-76.66581982473448"><ele>1011.0</ele><time>2026-04-26T17:38:35Z</time></trkpt><trkpt lat="1.2011777508919588" lon="-76.66584586438294"><ele>1007.0</ele><time>2026-04-26T17:38:36Z</time></trkpt><trkpt lat="1.2010989657746456" lon="-76.66584968039308"><ele>1003.0</ele><time>2026-04-26T17:38:37Z</time></trkpt><trkpt lat="1.2010216862933112" lon="-76.66589705690454"><ele>999.0000000000001</ele><time>2026-04-26T17:38:38Z</time></trkpt><trkpt lat="1.2009651111573685" lon="-76.66595474173751"><ele>995.0</ele><time>2026-04-26T17:38:39Z</time></trkpt><trkpt lat="1.200898647656033" lon="-76.6660044536847"><ele>995.0000000000001</ele><time>2026-04-26T17:38:40Z</time></trkpt><trkpt lat="1.2008293221190331" lon="-76.66605529591153"><ele>995.0</ele><time>2026-04-26T17:38:41Z</time></trkpt><trkpt lat="1.200763721436977" lon="-76.66610587236586"><ele>995.0</ele><time>2026-04-26T17:38:42Z</time></trkpt><trkpt lat="1.2007003484154983" lon="-76.66615701068093"><ele>995.0</ele><time>2026-04-26T17:38:43Z</time></trkpt><trkpt lat="1.200635525848365" lon="-76.66621097331559"><ele>995.0000000000001</ele><time>2026-04-26T17:38:44Z</time></trkpt><trkpt lat="1.2005683759742918" lon="-76.66626607296752"><ele>995.0</ele><time>2026-04-26T17:38:45Z</time></trkpt><trkpt lat="1.2005019351543278" lon="-76.6663210091006"><ele>995.6</ele><time>2026-04-26T17:38:46Z</time></trkpt><trkpt lat="1.2004185383803212" lon="-76.66635117810782"><ele>996.2</ele><time>2026-04-26T17:38:47Z</time></trkpt><trkpt lat="1.2003386224094246" lon="-76.66639473477483"><ele>996.8</ele><time>2026-04-26T17:38:48Z</time></trkpt><trkpt lat="1.2002616692746633" lon="-76.66643615487759"><ele>997.4</ele><time>2026-04-26T17:38:49Z</time></trkpt><trkpt lat="1.2001767959945786" lon="-76.66648150968581"><ele>998.0</ele><time>2026-04-26T17:38:50Z</time></trkpt><trkpt lat="1.2000916587393948" lon="-76.66652732957618"><ele>998.0</ele><time>2026-04-26T17:38:51Z</time></trkpt><trkpt lat="1.200003540572275" lon="-76.66657413220865"><ele>998.0</ele><time>2026-04-26T17:38:52Z</time></trkpt><trkpt lat="1.19992527745699" lon="-76.66661677159738"><ele>998.0</ele><time>2026-04-26T17:38:53Z</time></trkpt><trkpt lat="1.1998563911128761" lon="-76.66667193510146"><ele>998.0</ele><time>2026-04-26T17:38:54Z</time></trkpt><trkpt lat="1.199778096620929" lon="-76.66671348999662"><ele>998.0</ele><time>2026-04-26T17:38:55Z</time></trkpt><trkpt lat="1.199691428898427" lon="-76.66675029084924"><ele>1000.2</ele><time>2026-04-26T17:38:56Z</time></trkpt><trkpt lat="1.1996101111789519" lon="-76.66679090187601"><ele>1002.4</ele><time>2026-04-26T17:38:57Z</time></trkpt><trkpt lat="1.199526665251952" lon="-76.66682971006834"><ele>1004.6000000000001</ele><time>2026-04-26T17:38:58Z</time></trkpt><trkpt lat="1.1994386770092893" lon="-76.66686827621211"><ele>1006.8000000000001</ele><time>2026-04-26T17:38:59Z</time></trkpt><trkpt lat="1.1993545800452832" lon="-76.66691640964656"><ele>1009.0</ele><time>2026-04-26T17:39:00Z</time></trkpt><trkpt lat="1.199273369071172" lon="-76.66695826777247"><ele>1008.9999999999999</ele><time>2026-04-26T17:39:01Z</time></trkpt><trkpt lat="1.1991988023313316" lon="-76.66700245347208"><ele>1009.0</ele><time>2026-04-26T17:39:02Z</time></trkpt><trkpt lat="1.1991179335849549" lon="-76.66704523270552"><ele>1009.0</ele><time>2026-04-26T17:39:03Z</time></trkpt><trkpt lat="1.1990403655445858" lon="-76.66708869095865"><ele>1009.0</ele><time>2026-04-26T17:39:04Z</time></trkpt><trkpt lat="1.1989666820545692" lon="-76.66712945749767"><ele>1008.9999999999999</ele><time>2026-04-26T17:39:05Z</time></trkpt><trkpt lat="1.1988965757618013" lon="-76.66716954115863"><ele>1009.0</ele><time>2026-04-26T17:39:06Z</time></trkpt><trkpt lat="1.1988252022556716" lon="-76.66720625369214"><ele>1005.9999999999999</ele><time>2026-04-26T17:39:07Z</time></trkpt><trkpt lat="1.198748921377643" lon="-76.66723744572465"><ele>1003.0</ele><time>2026-04-26T17:39:08Z</time></trkpt><trkpt lat="1.1986685589386217" lon="-76.66726472015083"><ele>1000.0</ele><time>2026-04-26T17:39:09Z</time></trkpt><trkpt lat="1.1985868569610652" lon="-76.66730281741368"><ele>997.0</ele><time>2026-04-26T17:39:10Z</time></trkpt><trkpt lat="1.198500144569314" lon="-76.66731358914707"><ele>993.9999999999999</ele><time>2026-04-26T17:39:11Z</time></trkpt><trkpt lat="1.1984048546467243" lon="-76.66730652716022"><ele>991.0</ele><time>2026-04-26T17:39:12Z</time></trkpt><trkpt lat="1.1983186131530448" lon="-76.66726736119234"><ele>991.0</ele><time>2026-04-26T17:39:13Z</time></trkpt><trkpt lat="1.1982254430726742" lon="-76.6672420635833"><ele>990.9999999999999</ele><time>2026-04-26T17:39:14Z</time></trkpt><trkpt lat="1.198137732858702" lon="-76.6672075971872"><ele>990.9999999999999</ele><time>2026-04-26T17:39:15Z</time></trkpt><trkpt lat="1.1980514982095323" lon="-76.6671624301205"><ele>991.0</ele><time>2026-04-26T17:39:16Z</time></trkpt><trkpt lat="1.1979699247044833" lon="-76.66712158494624"><ele>991.0</ele><time>2026-04-26T17:39:17Z</time></trkpt><trkpt lat="1.1978851659829548" lon="-76.6670920857027"><ele>989.8</ele><time>2026-04-26T17:39:18Z</time></trkpt><trkpt lat="1.1978036442625113" lon="-76.66706785391571"><ele>988.5999999999999</ele><time>2026-04-26T17:39:19Z</time></trkpt><trkpt lat="1.197717618727326" lon="-76.667047681022"><ele>987.4</ele><time>2026-04-26T17:39:20Z</time></trkpt><trkpt lat="1.1976257091511555" lon="-76.66704040780635"><ele>986.2</ele><time>2026-04-26T17:39:21Z</time></trkpt><trkpt lat="1.197533826997555" lon="-76.66704953298856"><ele>985.0</ele><time>2026-04-26T17:39:22Z</time></trkpt><trkpt lat="1.1974445721320455" lon="-76.66707381856826"><ele>985.0</ele><time>2026-04-26T17:39:23Z</time></trkpt><trkpt lat="1.1973489173134089" lon="-76.66709970259502"><ele>985.0</ele><time>2026-04-26T17:39:24Z</time></trkpt><trkpt lat="1.1972544934125746" lon="-76.66713763033812"><ele>985.0</ele><time>2026-04-26T17:39:25Z</time></trkpt><trkpt lat="1.1971749234604145" lon="-76.66718057464725"><ele>985.0</ele><time>2026-04-26T17:39:26Z</time></trkpt><trkpt lat="1.1970907861518738" lon="-76.66722656858246"><ele>985.0</ele><time>2026-04-26T17:39:27Z</time></trkpt><trkpt lat="1.1969997242482693" lon="-76.667258531095"><ele>982.2</ele><time>2026-04-26T17:39:28Z</time></trkpt><trkpt lat="1.1969120427203148" lon="-76.66730451892815"><ele>979.4</ele><time>2026-04-26T17:39:29Z</time></trkpt><trkpt lat="1.1968249254527346" lon="-76.66735094384987"><ele>976.5999999999999</ele><time>2026-04-26T17:39:30Z</time></trkpt><trkpt lat="1.1967494742040528" lon="-76.66740850284938"><ele>973.8</ele><time>2026-04-26T17:39:31Z</time></trkpt><trkpt lat="1.1966671226387007" lon="-76.66744915681707"><ele>971.0</ele><time>2026-04-26T17:39:32Z</time></trkpt><trkpt lat="1.1965833940386574" lon="-76.667488954155"><ele>966.5999999999999</ele><time>2026-04-26T17:39:33Z</time></trkpt><trkpt lat="1.196501595541923" lon="-76.6675308684667"><ele>962.1999999999999</ele><time>2026-04-26T17:39:34Z</time></trkpt><trkpt lat="1.1964191495502472" lon="-76.66757398062767"><ele>957.8000000000001</ele><time>2026-04-26T17:39:35Z</time></trkpt><trkpt lat="1.196338103003713" lon="-76.66761663188032"><ele>953.4000000000001</ele><time>2026-04-26T17:39:36Z</time></trkpt><trkpt lat="1.1962600004403285" lon="-76.66766440932079"><ele>949.0</ele><time>2026-04-26T17:39:37Z</time></trkpt><trkpt lat="1.1961751764495439" lon="-76.66769257617298"><ele>949.0</ele><time>2026-04-26T17:39:38Z</time></trkpt><trkpt lat="1.1960934686425848" lon="-76.6677362740823"><ele>949.0000000000001</ele><time>2026-04-26T17:39:39Z</time></trkpt><trkpt lat="1.1960161440742052" lon="-76.66779210445456"><ele>949.0000000000001</ele><time>2026-04-26T17:39:40Z</time></trkpt><trkpt lat="1.1959382092050184" lon="-76.66783087543605"><ele>949.0</ele><time>2026-04-26T17:39:41Z</time></trkpt><trkpt lat="1.1958591767258266" lon="-76.66787161926003"><ele>949.0</ele><time>2026-04-26T17:39:42Z</time></trkpt><trkpt lat="1.1957762174772304" lon="-76.66790552331345"><ele>952.9999999999999</ele><time>2026-04-26T17:39:43Z</time></trkpt><trkpt lat="1.1956971683529356" lon="-76.66793674478888"><ele>957.0</ele><time>2026-04-26T17:39:44Z</time></trkpt><trkpt lat="1.19562262097249" lon="-76.66796993555636"><ele>961.0</ele><time>2026-04-26T17:39:45Z</time></trkpt><trkpt lat="1.1955414476105592" lon="-76.66800355738916"><ele>965.0</ele><time>2026-04-26T17:39:46Z</time></trkpt><trkpt lat="1.1954678312687206" lon="-76.66805677737413"><ele>968.9999999999999</ele><time>2026-04-26T17:39:47Z</time></trkpt><trkpt lat="1.1953846937310897" lon="-76.66807352897855"><ele>973.0</ele><time>2026-04-26T17:39:48Z</time></trkpt><trkpt lat="1.1953009181765537" lon="-76.66808625566124"><ele>972.9999999999999</ele><time>2026-04-26T17:39:49Z</time></trkpt><trkpt lat="1.1952292916332956" lon="-76.668120967758"><ele>973.0</ele><time>2026-04-26T17:39:50Z</time></trkpt><trkpt lat="1.1951487724656804" lon="-76.66813922185436"><ele>973.0</ele><time>2026-04-26T17:39:51Z</time></trkpt><trkpt lat="1.1950681951958004" lon="-76.66816601518312"><ele>973.0</ele><time>2026-04-26T17:39:52Z</time></trkpt><trkpt lat="1.194979556396243" lon="-76.66816607788724"><ele>972.9999999999999</ele><time>2026-04-26T17:39:53Z</time></trkpt><trkpt lat="1.194897673030283" lon="-76.66818150489455"><ele>973.0</ele><time>2026-04-26T17:39:54Z</time></trkpt><trkpt lat="1.194808312656074" lon="-76.66819790084693"><ele>970.4</ele><time>2026-04-26T17:39:55Z</time></trkpt><trkpt lat="1.194717043224034" lon="-76.66821488857002"><ele>967.8</ele><time>2026-04-26T17:39:56Z</time></trkpt><trkpt lat="1.1946242860756096" lon="-76.66823210492824"><ele>965.2</ele><time>2026-04-26T17:39:57Z</time></trkpt><trkpt lat="1.1945392784600255" lon="-76.66825893190536"><ele>962.6</ele><time>2026-04-26T17:39:58Z</time></trkpt><trkpt lat="1.1944558094888225" lon="-76.6682486759074"><ele>960.0</ele><time>2026-04-26T17:39:58.999Z</time></trkpt><trkpt lat="1.1943686302979892" lon="-76.66822335384634"><ele>960.0</ele><time>2026-04-26T17:39:59.999Z</time></trkpt><trkpt lat="1.1942875375948367" lon="-76.66818797254234"><ele>960.0</ele><time>2026-04-26T17:40:00.999Z</time></trkpt><trkpt lat="1.194210922502836" lon="-76.6681430188541"><ele>960.0</ele><time>2026-04-26T17:40:01.999Z</time></trkpt><trkpt lat="1.1941372848452856" lon="-76.668100357847"><ele>960.0</ele><time>2026-04-26T17:40:02.999Z</time></trkpt><trkpt lat="1.1940672456631354" lon="-76.66805259311718"><ele>960.0</ele><time>2026-04-26T17:40:03.999Z</time></trkpt><trkpt lat="1.1939946090519085" lon="-76.66801095975038"><ele>960.0</ele><time>2026-04-26T17:40:04.999Z</time></trkpt><trkpt lat="1.1939577851230534" lon="-76.66793289842215"><ele>960.6666666666666</ele><time>2026-04-26T17:40:05.999Z</time></trkpt><trkpt lat="1.1939098766258882" lon="-76.66786646590003"><ele>961.3333333333333</ele><time>2026-04-26T17:40:06.999Z</time></trkpt><trkpt lat="1.1938671418499425" lon="-76.66779156007709"><ele>962.0</ele><time>2026-04-26T17:40:07.999Z</time></trkpt><trkpt lat="1.1938400816802892" lon="-76.66771485075127"><ele>962.6666666666666</ele><time>2026-04-26T17:40:08.999Z</time></trkpt><trkpt lat="1.193801871679042" lon="-76.66765004444109"><ele>963.3333333333333</ele><time>2026-04-26T17:40:09.999Z</time></trkpt><trkpt lat="1.1938268394600458" lon="-76.66756164620938"><ele>964.0</ele><time>2026-04-26T17:40:10.999Z</time></trkpt><trkpt lat="1.1938114801198851" lon="-76.66748132401027"><ele>962.1666666666666</ele><time>2026-04-26T17:40:11.999Z</time></trkpt><trkpt lat="1.1938096221684011" lon="-76.66739826678663"><ele>960.3333333333333</ele><time>2026-04-26T17:40:12.999Z</time></trkpt><trkpt lat="1.1938639197522112" lon="-76.6673144395302"><ele>958.5</ele><time>2026-04-26T17:40:13.999Z</time></trkpt><trkpt lat="1.1938927672429032" lon="-76.66723778304802"><ele>956.6666666666667</ele><time>2026-04-26T17:40:14.999Z</time></trkpt><trkpt lat="1.193925981190097" lon="-76.66716736903172"><ele>954.8333333333334</ele><time>2026-04-26T17:40:15.999Z</time></trkpt><trkpt lat="1.1939633045024807" lon="-76.66709442383282"><ele>953.0</ele><time>2026-04-26T17:40:16.999Z</time></trkpt><trkpt lat="1.1939970997922031" lon="-76.66702100938697"><ele>949.3333333333334</ele><time>2026-04-26T17:40:17.999Z</time></trkpt><trkpt lat="1.1940285789483538" lon="-76.66694651368917"><ele>945.6666666666667</ele><time>2026-04-26T17:40:18.999Z</time></trkpt><trkpt lat="1.1940633657815107" lon="-76.66687448882283"><ele>942.0</ele><time>2026-04-26T17:40:19.999Z</time></trkpt><trkpt lat="1.1941058695899591" lon="-76.6668051377729"><ele>938.3333333333333</ele><time>2026-04-26T17:40:20.999Z</time></trkpt><trkpt lat="1.1941455478351184" lon="-76.6667463476715"><ele>934.6666666666666</ele><time>2026-04-26T17:40:22Z</time></trkpt><trkpt lat="1.1941811984891288" lon="-76.66667226984907"><ele>931.0</ele><time>2026-04-26T17:40:23Z</time></trkpt><trkpt lat="1.1942153001718239" lon="-76.66659570535009"><ele>929.9999999999999</ele><time>2026-04-26T17:40:24Z</time></trkpt><trkpt lat="1.1942504499461202" lon="-76.666514547072"><ele>929.0</ele><time>2026-04-26T17:40:25Z</time></trkpt><trkpt lat="1.1942859561589694" lon="-76.66642418589976"><ele>928.0</ele><time>2026-04-26T17:40:26Z</time></trkpt><trkpt lat="1.194309007223295" lon="-76.66633726055431"><ele>927.0</ele><time>2026-04-26T17:40:27Z</time></trkpt><trkpt lat="1.1943212805555248" lon="-76.66625013741594"><ele>925.9999999999999</ele><time>2026-04-26T17:40:28Z</time></trkpt><trkpt lat="1.1943252684204009" lon="-76.66616408491926"><ele>925.0</ele><time>2026-04-26T17:40:29Z</time></trkpt><trkpt lat="1.1943192125591737" lon="-76.66607946346294"><ele>924.9999999999999</ele><time>2026-04-26T17:40:30Z</time></trkpt><trkpt lat="1.1943008948764045" lon="-76.66599504784406"><ele>925.0</ele><time>2026-04-26T17:40:31Z</time></trkpt><trkpt lat="1.1942683608207774" lon="-76.66591421077304"><ele>925.0</ele><time>2026-04-26T17:40:32Z</time></trkpt><trkpt lat="1.194226508885095" lon="-76.66583623563618"><ele>925.0</ele><time>2026-04-26T17:40:33Z</time></trkpt><trkpt lat="1.1941756561801309" lon="-76.66576399974379"><ele>924.9999999999999</ele><time>2026-04-26T17:40:34Z</time></trkpt><trkpt lat="1.1941191792219283" lon="-76.66569862736452"><ele>925.0</ele><time>2026-04-26T17:40:35Z</time></trkpt><trkpt lat="1.1940555543211695" lon="-76.66564394988967"><ele>925.9999999999999</ele><time>2026-04-26T17:40:36Z</time></trkpt><trkpt lat="1.1939863828366437" lon="-76.66559594251177"><ele>927.0</ele><time>2026-04-26T17:40:37Z</time></trkpt><trkpt lat="1.1939097276629225" lon="-76.665552712106"><ele>928.0</ele><time>2026-04-26T17:40:38Z</time></trkpt><trkpt lat="1.193818410908199" lon="-76.66554042470875"><ele>929.0</ele><time>2026-04-26T17:40:39Z</time></trkpt><trkpt lat="1.1937380341121344" lon="-76.66550216937945"><ele>929.9999999999999</ele><time>2026-04-26T17:40:40Z</time></trkpt><trkpt lat="1.1936484988540497" lon="-76.66552448656279"><ele>931.0</ele><time>2026-04-26T17:40:41Z</time></trkpt><trkpt lat="1.1935596090886" lon="-76.66552181291887"><ele>930.9999999999999</ele><time>2026-04-26T17:40:42Z</time></trkpt><trkpt lat="1.1934697278415758" lon="-76.66550620200924"><ele>931.0</ele><time>2026-04-26T17:40:43Z</time></trkpt><trkpt lat="1.1933742118305086" lon="-76.66550914967151"><ele>931.0</ele><time>2026-04-26T17:40:44Z</time></trkpt><trkpt lat="1.1932900381802207" lon="-76.66550868288668"><ele>931.0</ele><time>2026-04-26T17:40:45Z</time></trkpt><trkpt lat="1.1932068912832863" lon="-76.66550753314591"><ele>930.9999999999999</ele><time>2026-04-26T17:40:46Z</time></trkpt><trkpt lat="1.1931217292229992" lon="-76.66550798992301"><ele>931.0</ele><time>2026-04-26T17:40:47Z</time></trkpt><trkpt lat="1.193034210166841" lon="-76.66550516004177"><ele>931.4999999999999</ele><time>2026-04-26T17:40:48Z</time></trkpt><trkpt lat="1.1929479949056558" lon="-76.66550420570074"><ele>932.0</ele><time>2026-04-26T17:40:49Z</time></trkpt><trkpt lat="1.192861483871707" lon="-76.66550341840701"><ele>932.5</ele><time>2026-04-26T17:40:50Z</time></trkpt><trkpt lat="1.1927795163635608" lon="-76.66549889194832"><ele>933.0</ele><time>2026-04-26T17:40:51Z</time></trkpt><trkpt lat="1.1926994123066839" lon="-76.6654923618797"><ele>933.4999999999999</ele><time>2026-04-26T17:40:52Z</time></trkpt><trkpt lat="1.1926202714966474" lon="-76.66548321525565"><ele>934.0</ele><time>2026-04-26T17:40:53Z</time></trkpt><trkpt lat="1.1925404222680136" lon="-76.66546439859133"><ele>933.9999999999999</ele><time>2026-04-26T17:40:54Z</time></trkpt><trkpt lat="1.1924631434666348" lon="-76.66544036021365"><ele>934.0</ele><time>2026-04-26T17:40:55Z</time></trkpt><trkpt lat="1.192390543504643" lon="-76.66540997265237"><ele>934.0</ele><time>2026-04-26T17:40:56Z</time></trkpt><trkpt lat="1.1923169505909192" lon="-76.66537554010033"><ele>934.0</ele><time>2026-04-26T17:40:57Z</time></trkpt><trkpt lat="1.192249905068504" lon="-76.66533266961771"><ele>933.9999999999999</ele><time>2026-04-26T17:40:58Z</time></trkpt><trkpt lat="1.1921890226301055" lon="-76.66527904545546"><ele>934.0</ele><time>2026-04-26T17:40:59Z</time></trkpt><trkpt lat="1.1921344751359273" lon="-76.66522442531623"><ele>929.9999999999999</ele><time>2026-04-26T17:41:00Z</time></trkpt><trkpt lat="1.1920808210223008" lon="-76.66516311779853"><ele>926.0</ele><time>2026-04-26T17:41:01Z</time></trkpt><trkpt lat="1.192037830258024" lon="-76.66509376466402"><ele>922.0</ele><time>2026-04-26T17:41:02Z</time></trkpt><trkpt lat="1.1919977928772245" lon="-76.66502214340237"><ele>918.0</ele><time>2026-04-26T17:41:03Z</time></trkpt><trkpt lat="1.1919647398552995" lon="-76.66494346230932"><ele>913.9999999999999</ele><time>2026-04-26T17:41:04Z</time></trkpt><trkpt lat="1.1919203417508573" lon="-76.66486461297903"><ele>910.0</ele><time>2026-04-26T17:41:05Z</time></trkpt><trkpt lat="1.1918977962928072" lon="-76.66477771533052"><ele>909.9999999999999</ele><time>2026-04-26T17:41:06Z</time></trkpt><trkpt lat="1.191917338517595" lon="-76.66468878191587"><ele>910.0</ele><time>2026-04-26T17:41:07Z</time></trkpt><trkpt lat="1.1919187979334331" lon="-76.66460504931229"><ele>910.0</ele><time>2026-04-26T17:41:08Z</time></trkpt><trkpt lat="1.1919222956039517" lon="-76.66451713656798"><ele>910.0</ele><time>2026-04-26T17:41:09Z</time></trkpt><trkpt lat="1.1919343104663949" lon="-76.66443233319919"><ele>909.9999999999999</ele><time>2026-04-26T17:41:10Z</time></trkpt><trkpt lat="1.1919530698736753" lon="-76.66435730314073"><ele>910.0</ele><time>2026-04-26T17:41:11Z</time></trkpt><trkpt lat="1.1919663995971936" lon="-76.6642746671336"><ele>908.6666666666666</ele><time>2026-04-26T17:41:12Z</time></trkpt><trkpt lat="1.1919780112548093" lon="-76.66418541742989"><ele>907.3333333333333</ele><time>2026-04-26T17:41:13Z</time></trkpt><trkpt lat="1.1919936234677426" lon="-76.664096941085"><ele>906.0</ele><time>2026-04-26T17:41:14Z</time></trkpt><trkpt lat="1.1920071838602324" lon="-76.66400598547472"><ele>904.6666666666667</ele><time>2026-04-26T17:41:15Z</time></trkpt><trkpt lat="1.1920200852484155" lon="-76.66392101031299"><ele>903.3333333333334</ele><time>2026-04-26T17:41:16Z</time></trkpt><trkpt lat="1.192035017747399" lon="-76.6638423909734"><ele>902.0</ele><time>2026-04-26T17:41:17Z</time></trkpt><trkpt lat="1.1920601982849794" lon="-76.66376764076384"><ele>902.0000000000001</ele><time>2026-04-26T17:41:18Z</time></trkpt><trkpt lat="1.192083848827239" lon="-76.66368890497708"><ele>902.0</ele><time>2026-04-26T17:41:19Z</time></trkpt><trkpt lat="1.192114227191861" lon="-76.66361068587034"><ele>902.0</ele><time>2026-04-26T17:41:20Z</time></trkpt><trkpt lat="1.192146909205294" lon="-76.66352814628935"><ele>902.0</ele><time>2026-04-26T17:41:21Z</time></trkpt><trkpt lat="1.1921770090054318" lon="-76.663451533696"><ele>902.0000000000001</ele><time>2026-04-26T17:41:22Z</time></trkpt><trkpt lat="1.1922107406814795" lon="-76.66338529996558"><ele>902.0</ele><time>2026-04-26T17:41:23Z</time></trkpt><trkpt lat="1.1922469375865128" lon="-76.66331988180048"><ele>902.8</ele><time>2026-04-26T17:41:24Z</time></trkpt><trkpt lat="1.192287590618014" lon="-76.66324899449175"><ele>903.6</ele><time>2026-04-26T17:41:25Z</time></trkpt><trkpt lat="1.192337761434849" lon="-76.6631749359625"><ele>904.3999999999999</ele><time>2026-04-26T17:41:26Z</time></trkpt><trkpt lat="1.192398319002284" lon="-76.66309839567958"><ele>905.1999999999999</ele><time>2026-04-26T17:41:27Z</time></trkpt><trkpt lat="1.1924471487661492" lon="-76.66301982740002"><ele>906.0</ele><time>2026-04-26T17:41:28Z</time></trkpt><trkpt lat="1.1924946046229266" lon="-76.6629292943892"><ele>903.1666666666666</ele><time>2026-04-26T17:41:29Z</time></trkpt><trkpt lat="1.1925433972598298" lon="-76.66285052439325"><ele>900.3333333333333</ele><time>2026-04-26T17:41:30Z</time></trkpt><trkpt lat="1.1925876360797707" lon="-76.6627750382802"><ele>897.5</ele><time>2026-04-26T17:41:31Z</time></trkpt><trkpt lat="1.1926325629781114" lon="-76.6626969074373"><ele>894.6666666666666</ele><time>2026-04-26T17:41:32Z</time></trkpt><trkpt lat="1.1926792794538967" lon="-76.662622046857"><ele>891.8333333333333</ele><time>2026-04-26T17:41:33Z</time></trkpt><trkpt lat="1.1927209946198303" lon="-76.66255255724681"><ele>889.0</ele><time>2026-04-26T17:41:34Z</time></trkpt><trkpt lat="1.192756813939575" lon="-76.66248148756428"><ele>888.9999999999999</ele><time>2026-04-26T17:41:35Z</time></trkpt><trkpt lat="1.1928072185097491" lon="-76.66241374610793"><ele>889.0</ele><time>2026-04-26T17:41:36Z</time></trkpt><trkpt lat="1.1928517560138265" lon="-76.66234251302525"><ele>889.0</ele><time>2026-04-26T17:41:37Z</time></trkpt><trkpt lat="1.1928952384675946" lon="-76.66227289389448"><ele>889.0</ele><time>2026-04-26T17:41:38Z</time></trkpt><trkpt lat="1.1929202223277233" lon="-76.6621815741628"><ele>888.9999999999999</ele><time>2026-04-26T17:41:39Z</time></trkpt><trkpt lat="1.1929387681694508" lon="-76.66209824213824"><ele>889.0</ele><time>2026-04-26T17:41:40Z</time></trkpt><trkpt lat="1.1929240233492073" lon="-76.66201250312825"><ele>887.9999999999999</ele><time>2026-04-26T17:41:41Z</time></trkpt><trkpt lat="1.1928928091125195" lon="-76.66193245604632"><ele>887.0</ele><time>2026-04-26T17:41:42Z</time></trkpt><trkpt lat="1.1928679385089638" lon="-76.66185222783973"><ele>886.0</ele><time>2026-04-26T17:41:43Z</time></trkpt><trkpt lat="1.192837965674168" lon="-76.66175887118213"><ele>885.0</ele><time>2026-04-26T17:41:44Z</time></trkpt><trkpt lat="1.1927805851926696" lon="-76.66169206689601"><ele>883.9999999999999</ele><time>2026-04-26T17:41:45Z</time></trkpt><trkpt lat="1.1927301481807868" lon="-76.66163226724485"><ele>883.0</ele><time>2026-04-26T17:41:46Z</time></trkpt><trkpt lat="1.192659698848619" lon="-76.66156783297512"><ele>883.0</ele><time>2026-04-26T17:41:47Z</time></trkpt><trkpt lat="1.1925823829571163" lon="-76.66151624681162"><ele>883.0</ele><time>2026-04-26T17:41:48Z</time></trkpt><trkpt lat="1.1924834089242289" lon="-76.66145601672251"><ele>883.0</ele><time>2026-04-26T17:41:49Z</time></trkpt><trkpt lat="1.1923952895812635" lon="-76.66142376010376"><ele>883.0</ele><time>2026-04-26T17:41:50Z</time></trkpt><trkpt lat="1.1923086774773224" lon="-76.66139491931088"><ele>883.0</ele><time>2026-04-26T17:41:51Z</time></trkpt><trkpt lat="1.1922207460043837" lon="-76.66136563918153"><ele>884.8</ele><time>2026-04-26T17:41:52Z</time></trkpt><trkpt lat="1.1921283524977473" lon="-76.66133543342282"><ele>886.5999999999999</ele><time>2026-04-26T17:41:53Z</time></trkpt><trkpt lat="1.1920404985784172" lon="-76.66130661960207"><ele>888.4000000000001</ele><time>2026-04-26T17:41:54Z</time></trkpt><trkpt lat="1.1919527974367574" lon="-76.66127756040228"><ele>890.2</ele><time>2026-04-26T17:41:55Z</time></trkpt><trkpt lat="1.1918611474998564" lon="-76.66126120340545"><ele>892.0</ele><time>2026-04-26T17:41:56Z</time></trkpt><trkpt lat="1.1917755186751042" lon="-76.66122239088844"><ele>892.0</ele><time>2026-04-26T17:41:57Z</time></trkpt><trkpt lat="1.1916885167257896" lon="-76.66118719772484"><ele>892.0</ele><time>2026-04-26T17:41:58Z</time></trkpt><trkpt lat="1.1915971227567865" lon="-76.66116444441798"><ele>892.0</ele><time>2026-04-26T17:41:59Z</time></trkpt><trkpt lat="1.1914992684631982" lon="-76.66114720915283"><ele>892.0</ele><time>2026-04-26T17:42:00Z</time></trkpt><trkpt lat="1.1914003874890005" lon="-76.66114098884233"><ele>892.0</ele><time>2026-04-26T17:42:01Z</time></trkpt><trkpt lat="1.191300577436696" lon="-76.66114081781213"><ele>890.8</ele><time>2026-04-26T17:42:02Z</time></trkpt><trkpt lat="1.1912054560221124" lon="-76.66115057818058"><ele>889.6</ele><time>2026-04-26T17:42:03Z</time></trkpt><trkpt lat="1.191111781163049" lon="-76.66117492294883"><ele>888.3999999999999</ele><time>2026-04-26T17:42:04Z</time></trkpt><trkpt lat="1.1910209961359057" lon="-76.66120872123923"><ele>887.1999999999999</ele><time>2026-04-26T17:42:05Z</time></trkpt><trkpt lat="1.1909314701385685" lon="-76.66125400923039"><ele>886.0</ele><time>2026-04-26T17:42:06Z</time></trkpt><trkpt lat="1.1908419658425007" lon="-76.66130267395226"><ele>886.0</ele><time>2026-04-26T17:42:07Z</time></trkpt><trkpt lat="1.1907508732878573" lon="-76.66135159525477"><ele>885.9999999999999</ele><time>2026-04-26T17:42:08Z</time></trkpt><trkpt lat="1.1906671514489597" lon="-76.66140134536892"><ele>885.9999999999999</ele><time>2026-04-26T17:42:09Z</time></trkpt><trkpt lat="1.1905815045732426" lon="-76.66145080788836"><ele>886.0</ele><time>2026-04-26T17:42:10Z</time></trkpt><trkpt lat="1.1904956038773837" lon="-76.6615002572462"><ele>886.0</ele><time>2026-04-26T17:42:11Z</time></trkpt><trkpt lat="1.190413586642483" lon="-76.66155131872708"><ele>880.8</ele><time>2026-04-26T17:42:12Z</time></trkpt><trkpt lat="1.1903312070898429" lon="-76.66160307367518"><ele>875.5999999999999</ele><time>2026-04-26T17:42:12.999Z</time></trkpt><trkpt lat="1.1902487752158581" lon="-76.66165246853001"><ele>870.4</ele><time>2026-04-26T17:42:13.999Z</time></trkpt><trkpt lat="1.190164556444889" lon="-76.66170213106923"><ele>865.2</ele><time>2026-04-26T17:42:14.999Z</time></trkpt><trkpt lat="1.1900826120581023" lon="-76.66175095247188"><ele>860.0</ele><time>2026-04-26T17:42:15.999Z</time></trkpt><trkpt lat="1.1899975968585488" lon="-76.66180018392762"><ele>860.0</ele><time>2026-04-26T17:42:16.999Z</time></trkpt><trkpt lat="1.1899125411480593" lon="-76.66185003707619"><ele>860.0</ele><time>2026-04-26T17:42:17.999Z</time></trkpt><trkpt lat="1.189827691069728" lon="-76.66190326516846"><ele>860.0</ele><time>2026-04-26T17:42:18.999Z</time></trkpt><trkpt lat="1.189741598060269" lon="-76.66195783321335"><ele>860.0</ele><time>2026-04-26T17:42:19.999Z</time></trkpt><trkpt lat="1.1896498162331046" lon="-76.66200791872633"><ele>860.0</ele><time>2026-04-26T17:42:20.999Z</time></trkpt><trkpt lat="1.1895531273428952" lon="-76.66204596727522"><ele>861.6</ele><time>2026-04-26T17:42:21.999Z</time></trkpt><trkpt lat="1.1894500042596297" lon="-76.66208316055526"><ele>863.2</ele><time>2026-04-26T17:42:22.999Z</time></trkpt><trkpt lat="1.189364724426557" lon="-76.66213276739933"><ele>864.8</ele><time>2026-04-26T17:42:23.999Z</time></trkpt><trkpt lat="1.1892827089524298" lon="-76.66219392324207"><ele>866.4</ele><time>2026-04-26T17:42:24.999Z</time></trkpt><trkpt lat="1.1892126536405938" lon="-76.66226237922612"><ele>868.0</ele><time>2026-04-26T17:42:25.999Z</time></trkpt><trkpt lat="1.1891478099413486" lon="-76.6623295093209"><ele>868.0</ele><time>2026-04-26T17:42:26.999Z</time></trkpt><trkpt lat="1.1890577903680992" lon="-76.66239248490243"><ele>868.0</ele><time>2026-04-26T17:42:28Z</time></trkpt><trkpt lat="1.1889731144060007" lon="-76.66244485035912"><ele>868.0</ele><time>2026-04-26T17:42:29Z</time></trkpt><trkpt lat="1.1888892241849285" lon="-76.66249695507678"><ele>868.0</ele><time>2026-04-26T17:42:30Z</time></trkpt><trkpt lat="1.188808010809411" lon="-76.66254735585701"><ele>868.0</ele><time>2026-04-26T17:42:31Z</time></trkpt><trkpt lat="1.1887275602010565" lon="-76.66259817997586"><ele>866.4</ele><time>2026-04-26T17:42:32Z</time></trkpt><trkpt lat="1.1886013050000037" lon="-76.66256247851605"><ele>864.8</ele><time>2026-04-26T17:42:33Z</time></trkpt><trkpt lat="1.1885211270628635" lon="-76.66260458588826"><ele>863.2</ele><time>2026-04-26T17:42:34Z</time></trkpt><trkpt lat="1.188432137445913" lon="-76.66260814428536"><ele>861.6</ele><time>2026-04-26T17:42:35Z</time></trkpt><trkpt lat="1.188334712004762" lon="-76.66261692017761"><ele>860.0</ele><time>2026-04-26T17:42:36Z</time></trkpt><trkpt lat="1.188229028638785" lon="-76.66258800092334"><ele>864.8</ele><time>2026-04-26T17:42:37Z</time></trkpt><trkpt lat="1.1881302237115055" lon="-76.66255473494093"><ele>869.6</ele><time>2026-04-26T17:42:38Z</time></trkpt><trkpt lat="1.1880330061938946" lon="-76.66250520045723"><ele>874.4000000000001</ele><time>2026-04-26T17:42:39Z</time></trkpt><trkpt lat="1.1879475016556256" lon="-76.66244432971675"><ele>879.2</ele><time>2026-04-26T17:42:40Z</time></trkpt><trkpt lat="1.1878695967262265" lon="-76.66238919152482"><ele>884.0</ele><time>2026-04-26T17:42:41Z</time></trkpt><trkpt lat="1.1878012486084957" lon="-76.66233059775129"><ele>884.0000000000001</ele><time>2026-04-26T17:42:42Z</time></trkpt><trkpt lat="1.187749775653801" lon="-76.66227951987759"><ele>884.0</ele><time>2026-04-26T17:42:43Z</time></trkpt><trkpt lat="1.1877048869264646" lon="-76.66223497569028"><ele>884.0</ele><time>2026-04-26T17:42:44Z</time></trkpt><trkpt lat="1.1876147248316358" lon="-76.66214888732969"><ele>884.0</ele><time>2026-04-26T17:42:46Z</time></trkpt><trkpt lat="1.1875475957729178" lon="-76.66209827241325"><ele>884.0000000000001</ele><time>2026-04-26T17:42:47Z</time></trkpt><trkpt lat="1.1874659029942727" lon="-76.6620711232359"><ele>884.0</ele><time>2026-04-26T17:42:48Z</time></trkpt><trkpt lat="1.1873886499679283" lon="-76.6620436936639"><ele>882.6</ele><time>2026-04-26T17:42:49Z</time></trkpt><trkpt lat="1.1873167769770105" lon="-76.66199745261498"><ele>881.2</ele><time>2026-04-26T17:42:50Z</time></trkpt><trkpt lat="1.1872246755973763" lon="-76.66201128754844"><ele>879.8000000000001</ele><time>2026-04-26T17:42:51Z</time></trkpt><trkpt lat="1.1871322481153384" lon="-76.66201188091122"><ele>878.4000000000001</ele><time>2026-04-26T17:42:52Z</time></trkpt><trkpt lat="1.187042382821235" lon="-76.66201209425208"><ele>877.0</ele><time>2026-04-26T17:42:53Z</time></trkpt><trkpt lat="1.1869574824389568" lon="-76.66204101733584"><ele>877.0</ele><time>2026-04-26T17:42:54Z</time></trkpt><trkpt lat="1.186872893777308" lon="-76.66207924671534"><ele>877.0</ele><time>2026-04-26T17:42:55Z</time></trkpt><trkpt lat="1.1867908211552318" lon="-76.66212404129733"><ele>877.0</ele><time>2026-04-26T17:42:56Z</time></trkpt><trkpt lat="1.186712519256015" lon="-76.66217804075394"><ele>877.0</ele><time>2026-04-26T17:42:57Z</time></trkpt><trkpt lat="1.186637333350197" lon="-76.66222927052303"><ele>877.0</ele><time>2026-04-26T17:42:58Z</time></trkpt><trkpt lat="1.1865582381897688" lon="-76.6622570145313"><ele>872.3333333333333</ele><time>2026-04-26T17:42:59Z</time></trkpt><trkpt lat="1.1864754620803695" lon="-76.66230118719491"><ele>867.6666666666666</ele><time>2026-04-26T17:43:00Z</time></trkpt><trkpt lat="1.1864106709688007" lon="-76.66236467531984"><ele>863.0</ele><time>2026-04-26T17:43:01Z</time></trkpt><trkpt lat="1.1863292597843393" lon="-76.66240274197683"><ele>858.3333333333333</ele><time>2026-04-26T17:43:02Z</time></trkpt><trkpt lat="1.1862612131524337" lon="-76.66245953267209"><ele>853.6666666666666</ele><time>2026-04-26T17:43:03Z</time></trkpt><trkpt lat="1.1861903347359146" lon="-76.66250242598814"><ele>849.0</ele><time>2026-04-26T17:43:04Z</time></trkpt><trkpt lat="1.1861151613482084" lon="-76.66253791467663"><ele>849.0</ele><time>2026-04-26T17:43:05Z</time></trkpt><trkpt lat="1.1860356490746427" lon="-76.66256703499214"><ele>849.0</ele><time>2026-04-26T17:43:06Z</time></trkpt><trkpt lat="1.185953569815672" lon="-76.66258575892076"><ele>849.0</ele><time>2026-04-26T17:43:07Z</time></trkpt><trkpt lat="1.1858681934177275" lon="-76.66259368688276"><ele>849.0</ele><time>2026-04-26T17:43:08Z</time></trkpt><trkpt lat="1.1857797027820183" lon="-76.66259303584259"><ele>849.0</ele><time>2026-04-26T17:43:09Z</time></trkpt><trkpt lat="1.185690288232693" lon="-76.66258642936405"><ele>849.0</ele><time>2026-04-26T17:43:10Z</time></trkpt><trkpt lat="1.1856026900366665" lon="-76.66257984993564"><ele>847.6666666666666</ele><time>2026-04-26T17:43:11Z</time></trkpt><trkpt lat="1.1855156006078535" lon="-76.66257273575268"><ele>846.3333333333333</ele><time>2026-04-26T17:43:12Z</time></trkpt><trkpt lat="1.1854323134203517" lon="-76.6625633523823"><ele>845.0</ele><time>2026-04-26T17:43:13Z</time></trkpt><trkpt lat="1.1853470130431143" lon="-76.66255342462831"><ele>843.6666666666666</ele><time>2026-04-26T17:43:14Z</time></trkpt><trkpt lat="1.185259583008617" lon="-76.6625413591733"><ele>842.3333333333333</ele><time>2026-04-26T17:43:15Z</time></trkpt><trkpt lat="1.185177704796219" lon="-76.66253244501833"><ele>841.0</ele><time>2026-04-26T17:43:16Z</time></trkpt><trkpt lat="1.185096392834943" lon="-76.66252550847177"><ele>840.9999999999999</ele><time>2026-04-26T17:43:17Z</time></trkpt><trkpt lat="1.1850153284625407" lon="-76.66251820939074"><ele>841.0</ele><time>2026-04-26T17:43:18Z</time></trkpt><trkpt lat="1.1849347401826729" lon="-76.66250588736791"><ele>841.0</ele><time>2026-04-26T17:43:19Z</time></trkpt><trkpt lat="1.1848559268252368" lon="-76.66249422856491"><ele>841.0</ele><time>2026-04-26T17:43:20Z</time></trkpt><trkpt lat="1.18477751485651" lon="-76.66248199299191"><ele>840.9999999999999</ele><time>2026-04-26T17:43:21Z</time></trkpt><trkpt lat="1.1846975468572347" lon="-76.66247570719787"><ele>841.0</ele><time>2026-04-26T17:43:22Z</time></trkpt><trkpt lat="1.1846177752518243" lon="-76.66246898729061"><ele>841.3333333333333</ele><time>2026-04-26T17:43:23Z</time></trkpt><trkpt lat="1.1845375871678556" lon="-76.66246136673098"><ele>841.6666666666666</ele><time>2026-04-26T17:43:24Z</time></trkpt><trkpt lat="1.1844598908795423" lon="-76.66245145476937"><ele>842.0</ele><time>2026-04-26T17:43:25Z</time></trkpt><trkpt lat="1.1843813479759613" lon="-76.66244370752385"><ele>842.3333333333333</ele><time>2026-04-26T17:43:26Z</time></trkpt><trkpt lat="1.1843073848662276" lon="-76.66243715679589"><ele>842.6666666666666</ele><time>2026-04-26T17:43:27Z</time></trkpt><trkpt lat="1.1842344405130794" lon="-76.66242740442343"><ele>843.0</ele><time>2026-04-26T17:43:28Z</time></trkpt><trkpt lat="1.1841620144506548" lon="-76.66241821400645"><ele>843.0</ele><time>2026-04-26T17:43:29Z</time></trkpt><trkpt lat="1.1840919491360988" lon="-76.66240926883192"><ele>843.0</ele><time>2026-04-26T17:43:30Z</time></trkpt><trkpt lat="1.1840225969246136" lon="-76.66239957407582"><ele>843.0</ele><time>2026-04-26T17:43:31Z</time></trkpt><trkpt lat="1.183950901448215" lon="-76.66238873081774"><ele>843.0</ele><time>2026-04-26T17:43:32Z</time></trkpt><trkpt lat="1.1838785480953664" lon="-76.66237608510036"><ele>843.0</ele><time>2026-04-26T17:43:33Z</time></trkpt><trkpt lat="1.1838178307889817" lon="-76.6623350767407"><ele>843.0</ele><time>2026-04-26T17:43:34Z</time></trkpt><trkpt lat="1.183749538131101" lon="-76.66230324543136"><ele>843.0</ele><time>2026-04-26T17:43:35Z</time></trkpt><trkpt lat="1.183662932114159" lon="-76.66230863536359"><ele>844.1666666666666</ele><time>2026-04-26T17:43:36Z</time></trkpt><trkpt lat="1.1835890704424654" lon="-76.66227451643384"><ele>845.3333333333333</ele><time>2026-04-26T17:43:37Z</time></trkpt><trkpt lat="1.1835184953473217" lon="-76.66223377107734"><ele>846.5</ele><time>2026-04-26T17:43:38Z</time></trkpt><trkpt lat="1.1834527730301436" lon="-76.66218860688222"><ele>847.6666666666666</ele><time>2026-04-26T17:43:39Z</time></trkpt><trkpt lat="1.183391392417984" lon="-76.662145826972"><ele>848.8333333333333</ele><time>2026-04-26T17:43:40Z</time></trkpt><trkpt lat="1.1833362470544977" lon="-76.66209616101588"><ele>850.0</ele><time>2026-04-26T17:43:41Z</time></trkpt><trkpt lat="1.1832793285302903" lon="-76.66203931415765"><ele>849.9999999999999</ele><time>2026-04-26T17:43:42Z</time></trkpt><trkpt lat="1.1832130222077066" lon="-76.6619948609358"><ele>850.0</ele><time>2026-04-26T17:43:43Z</time></trkpt><trkpt lat="1.1831621820877418" lon="-76.66192811385"><ele>850.0</ele><time>2026-04-26T17:43:44Z</time></trkpt><trkpt lat="1.1831243338549062" lon="-76.661854116489"><ele>850.0</ele><time>2026-04-26T17:43:45Z</time></trkpt><trkpt lat="1.1830624785521797" lon="-76.6618033088303"><ele>849.9999999999999</ele><time>2026-04-26T17:43:46Z</time></trkpt><trkpt lat="1.183013607412559" lon="-76.6617419869903"><ele>850.0</ele><time>2026-04-26T17:43:47Z</time></trkpt><trkpt lat="1.1829608018088213" lon="-76.66168643798726"><ele>846.6666666666666</ele><time>2026-04-26T17:43:48Z</time></trkpt><trkpt lat="1.1829063602774035" lon="-76.66162872451277"><ele>843.3333333333333</ele><time>2026-04-26T17:43:49Z</time></trkpt><trkpt lat="1.1828523171756282" lon="-76.66157143341424"><ele>840.0</ele><time>2026-04-26T17:43:50Z</time></trkpt><trkpt lat="1.1828127914399287" lon="-76.66150998267716"><ele>836.6666666666667</ele><time>2026-04-26T17:43:51Z</time></trkpt><trkpt lat="1.1827513614743725" lon="-76.66146823826682"><ele>833.3333333333334</ele><time>2026-04-26T17:43:52Z</time></trkpt><trkpt lat="1.1826834235413601" lon="-76.66142905228556"><ele>830.0</ele><time>2026-04-26T17:43:53Z</time></trkpt><trkpt lat="1.182610075924285" lon="-76.66139360352966"><ele>830.0000000000001</ele><time>2026-04-26T17:43:54Z</time></trkpt><trkpt lat="1.1825346178414793" lon="-76.66136181859322"><ele>830.0</ele><time>2026-04-26T17:43:55Z</time></trkpt><trkpt lat="1.1824578352642907" lon="-76.66133651645119"><ele>830.0</ele><time>2026-04-26T17:43:56Z</time></trkpt><trkpt lat="1.182381221466554" lon="-76.66131222488397"><ele>830.0</ele><time>2026-04-26T17:43:57Z</time></trkpt><trkpt lat="1.1823032136222467" lon="-76.6612893888768"><ele>830.0000000000001</ele><time>2026-04-26T17:43:58Z</time></trkpt><trkpt lat="1.1822289119570033" lon="-76.66126576674725"><ele>830.0</ele><time>2026-04-26T17:43:59Z</time></trkpt><trkpt lat="1.1821508962415415" lon="-76.6612451183343"><ele>830.6666666666667</ele><time>2026-04-26T17:44:00Z</time></trkpt><trkpt lat="1.182076490088727" lon="-76.66122205200183"><ele>831.3333333333334</ele><time>2026-04-26T17:44:01Z</time></trkpt><trkpt lat="1.182003662686063" lon="-76.66119948321752"><ele>832.0</ele><time>2026-04-26T17:44:02Z</time></trkpt><trkpt lat="1.1819292677250364" lon="-76.66117511346096"><ele>832.6666666666667</ele><time>2026-04-26T17:44:03Z</time></trkpt><trkpt lat="1.1818547541784012" lon="-76.66114905653195"><ele>833.3333333333334</ele><time>2026-04-26T17:44:04Z</time></trkpt><trkpt lat="1.1817775165116715" lon="-76.66112793089313"><ele>834.0</ele><time>2026-04-26T17:44:05Z</time></trkpt><trkpt lat="1.1817026588219792" lon="-76.66108384149013"><ele>828.8000000000001</ele><time>2026-04-26T17:44:06Z</time></trkpt><trkpt lat="1.1816201576778576" lon="-76.66105385012986"><ele>823.6</ele><time>2026-04-26T17:44:07Z</time></trkpt><trkpt lat="1.1815350318382953" lon="-76.66102283065139"><ele>818.4</ele><time>2026-04-26T17:44:08Z</time></trkpt><trkpt lat="1.1814463121290508" lon="-76.66099083435994"><ele>813.2</ele><time>2026-04-26T17:44:09Z</time></trkpt><trkpt lat="1.1813577019328472" lon="-76.66095852193318"><ele>808.0</ele><time>2026-04-26T17:44:10Z</time></trkpt><trkpt lat="1.181268130024386" lon="-76.66093046484617"><ele>807.9999999999999</ele><time>2026-04-26T17:44:11Z</time></trkpt><trkpt lat="1.1811964276209193" lon="-76.66088074138477"><ele>808.0</ele><time>2026-04-26T17:44:12Z</time></trkpt><trkpt lat="1.1811282998031691" lon="-76.6608257394362"><ele>808.0</ele><time>2026-04-26T17:44:13Z</time></trkpt><trkpt lat="1.181050880194235" lon="-76.66077623307064"><ele>808.0</ele><time>2026-04-26T17:44:14Z</time></trkpt><trkpt lat="1.1809889239473657" lon="-76.66072426551258"><ele>807.9999999999999</ele><time>2026-04-26T17:44:15Z</time></trkpt><trkpt lat="1.180926023976106" lon="-76.66067150632922"><ele>808.0</ele><time>2026-04-26T17:44:16Z</time></trkpt><trkpt lat="1.1809053917333008" lon="-76.66057554994714"><ele>808.0</ele><time>2026-04-26T17:44:17Z</time></trkpt><trkpt lat="1.1808618957459291" lon="-76.66050862046292"><ele>808.0</ele><time>2026-04-26T17:44:18Z</time></trkpt><trkpt lat="1.1808266143605652" lon="-76.66044305584096"><ele>808.0</ele><time>2026-04-26T17:44:19Z</time></trkpt><trkpt lat="1.1807959647255575" lon="-76.66037641514046"><ele>808.0</ele><time>2026-04-26T17:44:19.999Z</time></trkpt><trkpt lat="1.180754254759978" lon="-76.66031217538122"><ele>808.0</ele><time>2026-04-26T17:44:20.999Z</time></trkpt><trkpt lat="1.180748785314722" lon="-76.66023898197163"><ele>808.0</ele><time>2026-04-26T17:44:21.999Z</time></trkpt><trkpt lat="1.1807264678234792" lon="-76.66017153437585"><ele>808.0</ele><time>2026-04-26T17:44:22.999Z</time></trkpt><trkpt lat="1.1807046265771421" lon="-76.66009922832595"><ele>807.4999999999999</ele><time>2026-04-26T17:44:23.999Z</time></trkpt><trkpt lat="1.1806817986384444" lon="-76.66002270152372"><ele>807.0</ele><time>2026-04-26T17:44:24.999Z</time></trkpt><trkpt lat="1.1806584238845723" lon="-76.65994376030315"><ele>806.5</ele><time>2026-04-26T17:44:25.999Z</time></trkpt><trkpt lat="1.1806351393688583" lon="-76.65986823385623"><ele>806.0</ele><time>2026-04-26T17:44:26.999Z</time></trkpt><trkpt lat="1.1806106893739339" lon="-76.65979213412184"><ele>805.4999999999999</ele><time>2026-04-26T17:44:27.999Z</time></trkpt><trkpt lat="1.180590205723801" lon="-76.65972198687274"><ele>805.0</ele><time>2026-04-26T17:44:28.999Z</time></trkpt><trkpt lat="1.1805677537790358" lon="-76.65964840864305"><ele>804.9999999999999</ele><time>2026-04-26T17:44:29.999Z</time></trkpt><trkpt lat="1.1805446870117786" lon="-76.65957416358296"><ele>805.0</ele><time>2026-04-26T17:44:30.999Z</time></trkpt><trkpt lat="1.1805252151251826" lon="-76.65950203121916"><ele>805.0</ele><time>2026-04-26T17:44:31.999Z</time></trkpt><trkpt lat="1.180504764505271" lon="-76.65942697672784"><ele>805.0</ele><time>2026-04-26T17:44:32.999Z</time></trkpt><trkpt lat="1.180484199603649" lon="-76.65935358556258"><ele>804.9999999999999</ele><time>2026-04-26T17:44:34Z</time></trkpt><trkpt lat="1.1804623381384196" lon="-76.65927928663268"><ele>805.0</ele><time>2026-04-26T17:44:35Z</time></trkpt><trkpt lat="1.1804375351253409" lon="-76.65920520335874"><ele>802.9999999999999</ele><time>2026-04-26T17:44:36Z</time></trkpt><trkpt lat="1.1804141180610426" lon="-76.6591304246925"><ele>801.0</ele><time>2026-04-26T17:44:37Z</time></trkpt><trkpt lat="1.1803930139700174" lon="-76.65905637148434"><ele>799.0</ele><time>2026-04-26T17:44:38Z</time></trkpt><trkpt lat="1.1803705037026084" lon="-76.65897744760422"><ele>797.0</ele><time>2026-04-26T17:44:39Z</time></trkpt><trkpt lat="1.1803477216208675" lon="-76.65889997224562"><ele>794.9999999999999</ele><time>2026-04-26T17:44:40Z</time></trkpt><trkpt lat="1.1803242539200476" lon="-76.65882110651299"><ele>793.0</ele><time>2026-04-26T17:44:41Z</time></trkpt><trkpt lat="1.1802978605862322" lon="-76.6587481344804"><ele>792.9999999999999</ele><time>2026-04-26T17:44:42Z</time></trkpt><trkpt lat="1.180274146791256" lon="-76.65867570193136"><ele>793.0</ele><time>2026-04-26T17:44:43Z</time></trkpt><trkpt lat="1.180251480234685" lon="-76.65859990733618"><ele>793.0</ele><time>2026-04-26T17:44:44Z</time></trkpt><trkpt lat="1.1802280430186216" lon="-76.65852975499547"><ele>793.0</ele><time>2026-04-26T17:44:45Z</time></trkpt><trkpt lat="1.1802005647819027" lon="-76.65845222171394"><ele>792.9999999999999</ele><time>2026-04-26T17:44:46Z</time></trkpt><trkpt lat="1.180173571695682" lon="-76.6583804094553"><ele>793.0</ele><time>2026-04-26T17:44:47Z</time></trkpt><trkpt lat="1.1801454053645004" lon="-76.6583050841718"><ele>791.9999999999999</ele><time>2026-04-26T17:44:48Z</time></trkpt><trkpt lat="1.180118574176868" lon="-76.6582289678126"><ele>791.0</ele><time>2026-04-26T17:44:49Z</time></trkpt><trkpt lat="1.1800862900270712" lon="-76.65815869451865"><ele>790.0</ele><time>2026-04-26T17:44:50Z</time></trkpt><trkpt lat="1.180048172595856" lon="-76.65809733617913"><ele>789.0</ele><time>2026-04-26T17:44:51Z</time></trkpt><trkpt lat="1.180009430535373" lon="-76.65803298881357"><ele>787.9999999999999</ele><time>2026-04-26T17:44:52Z</time></trkpt><trkpt lat="1.179967076718351" lon="-76.65796811128428"><ele>787.0</ele><time>2026-04-26T17:44:53Z</time></trkpt><trkpt lat="1.1799171259308125" lon="-76.65790367726368"><ele>787.4999999999999</ele><time>2026-04-26T17:44:54Z</time></trkpt><trkpt lat="1.1798420348276926" lon="-76.65785994442012"><ele>788.0</ele><time>2026-04-26T17:44:55Z</time></trkpt><trkpt lat="1.1797824073580643" lon="-76.65779853835369"><ele>788.5</ele><time>2026-04-26T17:44:56Z</time></trkpt><trkpt lat="1.1797199542125818" lon="-76.65773533743715"><ele>789.0</ele><time>2026-04-26T17:44:57Z</time></trkpt><trkpt lat="1.1796680214376454" lon="-76.65766311261173"><ele>789.4999999999999</ele><time>2026-04-26T17:44:58Z</time></trkpt><trkpt lat="1.1795991515562165" lon="-76.65762562950901"><ele>790.0</ele><time>2026-04-26T17:44:59Z</time></trkpt><trkpt lat="1.1795467258311312" lon="-76.65756728308428"><ele>788.6666666666666</ele><time>2026-04-26T17:45:00Z</time></trkpt><trkpt lat="1.1794845659981852" lon="-76.65752635971803"><ele>787.3333333333333</ele><time>2026-04-26T17:45:01Z</time></trkpt><trkpt lat="1.1794205411900107" lon="-76.65748143876489"><ele>786.0</ele><time>2026-04-26T17:45:02Z</time></trkpt><trkpt lat="1.1793583739280638" lon="-76.65743148792107"><ele>784.6666666666667</ele><time>2026-04-26T17:45:03Z</time></trkpt><trkpt lat="1.1792962370462843" lon="-76.65738271994817"><ele>783.3333333333334</ele><time>2026-04-26T17:45:04Z</time></trkpt><trkpt lat="1.1792339581132028" lon="-76.65733647945818"><ele>782.0</ele><time>2026-04-26T17:45:05Z</time></trkpt><trkpt lat="1.1791683384840275" lon="-76.65729175802348"><ele>782.0000000000001</ele><time>2026-04-26T17:45:06Z</time></trkpt><trkpt lat="1.1791018649285412" lon="-76.65724681711269"><ele>782.0</ele><time>2026-04-26T17:45:07Z</time></trkpt><trkpt lat="1.1790335167896548" lon="-76.65719955090118"><ele>782.0</ele><time>2026-04-26T17:45:08Z</time></trkpt><trkpt lat="1.1789664961668145" lon="-76.65714918733832"><ele>782.0</ele><time>2026-04-26T17:45:09Z</time></trkpt><trkpt lat="1.178899384664531" lon="-76.65709726349804"><ele>782.0000000000001</ele><time>2026-04-26T17:45:10Z</time></trkpt><trkpt lat="1.1788312275706074" lon="-76.65704656692887"><ele>782.0</ele><time>2026-04-26T17:45:11Z</time></trkpt><trkpt lat="1.178763787289319" lon="-76.65699841577238"><ele>780.8333333333334</ele><time>2026-04-26T17:45:12Z</time></trkpt><trkpt lat="1.178691397922166" lon="-76.65694786312072"><ele>779.6666666666667</ele><time>2026-04-26T17:45:13Z</time></trkpt><trkpt lat="1.1786215662260613" lon="-76.656896425693"><ele>778.5</ele><time>2026-04-26T17:45:14Z</time></trkpt><trkpt lat="1.1785508084784977" lon="-76.65684467321537"><ele>777.3333333333333</ele><time>2026-04-26T17:45:15Z</time></trkpt><trkpt lat="1.1784807251687202" lon="-76.65678918969702"><ele>776.1666666666666</ele><time>2026-04-26T17:45:16Z</time></trkpt><trkpt lat="1.178412648536584" lon="-76.65673300736493"><ele>775.0</ele><time>2026-04-26T17:45:17Z</time></trkpt><trkpt lat="1.1783481701725067" lon="-76.6566807442738"><ele>774.9999999999999</ele><time>2026-04-26T17:45:18Z</time></trkpt><trkpt lat="1.1782862798957265" lon="-76.6566314098502"><ele>775.0</ele><time>2026-04-26T17:45:19Z</time></trkpt><trkpt lat="1.1782170631032725" lon="-76.65658337058888"><ele>775.0</ele><time>2026-04-26T17:45:20Z</time></trkpt><trkpt lat="1.1781458987232352" lon="-76.65653213909151"><ele>775.0</ele><time>2026-04-26T17:45:21Z</time></trkpt><trkpt lat="1.1780831391602022" lon="-76.65648372465775"><ele>774.9999999999999</ele><time>2026-04-26T17:45:22Z</time></trkpt><trkpt lat="1.1780198911272701" lon="-76.65643561633088"><ele>775.0</ele><time>2026-04-26T17:45:23Z</time></trkpt><trkpt lat="1.1779592750012948" lon="-76.65639313076984"><ele>775.1666666666666</ele><time>2026-04-26T17:45:24Z</time></trkpt><trkpt lat="1.1778694170766144" lon="-76.656331469984"><ele>775.3333333333333</ele><time>2026-04-26T17:45:26Z</time></trkpt><trkpt lat="1.177805189602846" lon="-76.65628357262572"><ele>775.5</ele><time>2026-04-26T17:45:28Z</time></trkpt><trkpt lat="1.177751295484297" lon="-76.65624755831689"><ele>775.6666666666667</ele><time>2026-04-26T17:45:30Z</time></trkpt><trkpt lat="1.1776969367554533" lon="-76.65619608706665"><ele>775.8333333333334</ele><time>2026-04-26T17:45:33Z</time></trkpt><trkpt lat="1.177636715127334" lon="-76.65616539908096"><ele>776.0</ele><time>2026-04-26T17:45:38Z</time></trkpt><trkpt lat="1.1776435078397107" lon="-76.65625266133337"><ele>776.0</ele><time>2026-04-26T17:45:55Z</time></trkpt><trkpt lat="1.177699968997038" lon="-76.65629538988115"><ele>776.0</ele><time>2026-04-26T17:45:57Z</time></trkpt><trkpt lat="1.177747099969503" lon="-76.65634666960294"><ele>776.0</ele><time>2026-04-26T17:47:01Z</time></trkpt></trkseg></trk></gpx>